<?xml version='1.0' encoding='UTF-8'?><gpx version="1.1" creator="JPX - https://github.com/jenetics/jpx" xmlns="http://www.topografix.com/GPX/1/1"><trk><trkseg><trkpt lat="42.7119201" lon="13.7418958"><ele>238.0</ele><time>2026-04-18T07:11:59.968Z</time></trkpt><trkpt lat="42.7120333" lon="13.7419263"><ele>238.0</ele><time>2026-04-18T07:12:00.968Z</time></trkpt><trkpt lat="42.7121024" lon="13.741951"><ele>238.0</ele><time>2026-04-18T07:12:01.969Z</time></trkpt><trkpt lat="42.7122019" lon="13.7420063"><ele>238.0</ele><time>2026-04-18T07:12:02.969Z</time></trkpt><trkpt lat="42.7123215" lon="13.7420891"><ele>238.0</ele><time>2026-04-18T07:12:04.229Z</time></trkpt><trkpt lat="42.7124472" lon="13.7421685"><ele>238.0</ele><time>2026-04-18T07:12:05.247Z</time></trkpt><trkpt lat="42.7125655" lon="13.7422321"><ele>238.0</ele><time>2026-04-18T07:12:06.26Z</time></trkpt><trkpt lat="42.7126868" lon="13.7422564"><ele>238.0</ele><time>2026-04-18T07:12:07.265Z</time></trkpt><trkpt lat="42.712802" lon="13.7422495"><ele>238.0</ele><time>2026-04-18T07:12:08.278Z</time></trkpt><trkpt lat="42.7129152" lon="13.7421915"><ele>238.5</ele><time>2026-04-18T07:12:09.272Z</time></trkpt><trkpt lat="42.7130398" lon="13.7420421"><ele>239.0</ele><time>2026-04-18T07:12:10.262Z</time></trkpt><trkpt lat="42.7132327" lon="13.7417309"><ele>222.0</ele><time>2026-04-18T07:12:11.382Z</time></trkpt><trkpt lat="42.7135761" lon="13.7412631"><ele>222.0</ele><time>2026-04-18T07:12:13.292Z</time></trkpt><trkpt lat="42.713729" lon="13.7410644"><ele>222.0</ele><time>2026-04-18T07:12:14.244Z</time></trkpt><trkpt lat="42.7138812" lon="13.7408638"><ele>222.0</ele><time>2026-04-18T07:12:15.25Z</time></trkpt><trkpt lat="42.7140213" lon="13.7406718"><ele>228.33333333333331</ele><time>2026-04-18T07:12:16.271Z</time></trkpt><trkpt lat="42.7141403" lon="13.7405118"><ele>234.66666666666666</ele><time>2026-04-18T07:12:17.278Z</time></trkpt><trkpt lat="42.7142503" lon="13.7403692"><ele>241.0</ele><time>2026-04-18T07:12:18.288Z</time></trkpt><trkpt lat="42.7143513" lon="13.7402384"><ele>240.25</ele><time>2026-04-18T07:12:19.277Z</time></trkpt><trkpt lat="42.7144421" lon="13.7401185"><ele>239.5</ele><time>2026-04-18T07:12:20.279Z</time></trkpt><trkpt lat="42.7145241" lon="13.740008"><ele>238.75</ele><time>2026-04-18T07:12:21.256Z</time></trkpt><trkpt lat="42.7146224" lon="13.7398778"><ele>238.0</ele><time>2026-04-18T07:12:22.29Z</time></trkpt><trkpt lat="42.7147266" lon="13.7397308"><ele>238.0</ele><time>2026-04-18T07:12:23.274Z</time></trkpt><trkpt lat="42.7148496" lon="13.7395544"><ele>238.0</ele><time>2026-04-18T07:12:24.277Z</time></trkpt><trkpt lat="42.7149918" lon="13.7393543"><ele>238.0</ele><time>2026-04-18T07:12:25.265Z</time></trkpt><trkpt lat="42.7151527" lon="13.7391376"><ele>243.5</ele><time>2026-04-18T07:12:26.265Z</time></trkpt><trkpt lat="42.7153295" lon="13.7389024"><ele>249.0</ele><time>2026-04-18T07:12:27.275Z</time></trkpt><trkpt lat="42.7155111" lon="13.7386516"><ele>251.0</ele><time>2026-04-18T07:12:28.273Z</time></trkpt><trkpt lat="42.7157084" lon="13.7383749"><ele>253.0</ele><time>2026-04-18T07:12:29.317Z</time></trkpt><trkpt lat="42.715893" lon="13.7381271"><ele>253.5</ele><time>2026-04-18T07:12:30.254Z</time></trkpt><trkpt lat="42.7161063" lon="13.7378495"><ele>254.0</ele><time>2026-04-18T07:12:31.288Z</time></trkpt><trkpt lat="42.7163142" lon="13.7375716"><ele>254.0</ele><time>2026-04-18T07:12:32.288Z</time></trkpt><trkpt lat="42.7165254" lon="13.7373246"><ele>254.0</ele><time>2026-04-18T07:12:33.276Z</time></trkpt><trkpt lat="42.7167318" lon="13.7370617"><ele>257.0</ele><time>2026-04-18T07:12:34.266Z</time></trkpt><trkpt lat="42.7169608" lon="13.7367727"><ele>260.0</ele><time>2026-04-18T07:12:35.368Z</time></trkpt><trkpt lat="42.7171756" lon="13.7365457"><ele>260.0</ele><time>2026-04-18T07:12:36.27Z</time></trkpt><trkpt lat="42.7174053" lon="13.7362967"><ele>260.0</ele><time>2026-04-18T07:12:37.279Z</time></trkpt><trkpt lat="42.7176158" lon="13.736016"><ele>259.6666666666667</ele><time>2026-04-18T07:12:38.315Z</time></trkpt><trkpt lat="42.7177427" lon="13.7358049"><ele>259.3333333333333</ele><time>2026-04-18T07:12:39.282Z</time></trkpt><trkpt lat="42.7177311" lon="13.7356477"><ele>259.0</ele><time>2026-04-18T07:12:40.317Z</time></trkpt><trkpt lat="42.7179006" lon="13.7354189"><ele>259.0</ele><time>2026-04-18T07:12:41.33Z</time></trkpt><trkpt lat="42.7180677" lon="13.7351966"><ele>259.0</ele><time>2026-04-18T07:12:42.301Z</time></trkpt><trkpt lat="42.7182431" lon="13.7349619"><ele>259.0</ele><time>2026-04-18T07:12:43.312Z</time></trkpt><trkpt lat="42.7184192" lon="13.7347292"><ele>259.0</ele><time>2026-04-18T07:12:44.313Z</time></trkpt><trkpt lat="42.7185918" lon="13.7344953"><ele>261.0</ele><time>2026-04-18T07:12:45.301Z</time></trkpt><trkpt lat="42.7187669" lon="13.7342583"><ele>263.0</ele><time>2026-04-18T07:12:46.298Z</time></trkpt><trkpt lat="42.7189458" lon="13.7340194"><ele>263.0</ele><time>2026-04-18T07:12:47.306Z</time></trkpt><trkpt lat="42.7191181" lon="13.7337862"><ele>263.0</ele><time>2026-04-18T07:12:48.299Z</time></trkpt><trkpt lat="42.7192846" lon="13.7335579"><ele>265.5</ele><time>2026-04-18T07:12:49.275Z</time></trkpt><trkpt lat="42.7194579" lon="13.7333245"><ele>268.0</ele><time>2026-04-18T07:12:50.307Z</time></trkpt><trkpt lat="42.7196152" lon="13.7331112"><ele>268.0</ele><time>2026-04-18T07:12:51.274Z</time></trkpt><trkpt lat="42.719791" lon="13.7328749"><ele>268.0</ele><time>2026-04-18T07:12:52.376Z</time></trkpt><trkpt lat="42.7199351" lon="13.7326782"><ele>268.0</ele><time>2026-04-18T07:12:53.305Z</time></trkpt><trkpt lat="42.7200805" lon="13.7324816"><ele>268.0</ele><time>2026-04-18T07:12:54.27Z</time></trkpt><trkpt lat="42.7202334" lon="13.7322763"><ele>268.0</ele><time>2026-04-18T07:12:55.314Z</time></trkpt><trkpt lat="42.7203732" lon="13.7320876"><ele>268.0</ele><time>2026-04-18T07:12:56.304Z</time></trkpt><trkpt lat="42.7205263" lon="13.7318828"><ele>268.0</ele><time>2026-04-18T07:12:57.397Z</time></trkpt><trkpt lat="42.7206554" lon="13.7317094"><ele>268.0</ele><time>2026-04-18T07:12:58.314Z</time></trkpt><trkpt lat="42.7207971" lon="13.7315154"><ele>268.0</ele><time>2026-04-18T07:12:59.32Z</time></trkpt><trkpt lat="42.7209553" lon="13.7313082"><ele>268.0</ele><time>2026-04-18T07:13:00.419Z</time></trkpt><trkpt lat="42.7212272" lon="13.7309558"><ele>270.0</ele><time>2026-04-18T07:13:02.288Z</time></trkpt><trkpt lat="42.7213904" lon="13.7307435"><ele>272.0</ele><time>2026-04-18T07:13:03.423Z</time></trkpt><trkpt lat="42.7215301" lon="13.7305546"><ele>274.0</ele><time>2026-04-18T07:13:04.408Z</time></trkpt><trkpt lat="42.7216539" lon="13.7303799"><ele>275.0</ele><time>2026-04-18T07:13:05.317Z</time></trkpt><trkpt lat="42.7217773" lon="13.7302045"><ele>276.0</ele><time>2026-04-18T07:13:06.276Z</time></trkpt><trkpt lat="42.7219061" lon="13.7300289"><ele>277.0</ele><time>2026-04-18T07:13:07.32Z</time></trkpt><trkpt lat="42.7220215" lon="13.7298701"><ele>277.0</ele><time>2026-04-18T07:13:08.303Z</time></trkpt><trkpt lat="42.7221296" lon="13.7297193"><ele>277.0</ele><time>2026-04-18T07:13:09.316Z</time></trkpt><trkpt lat="42.7222302" lon="13.729576"><ele>277.0</ele><time>2026-04-18T07:13:10.335Z</time></trkpt><trkpt lat="42.7223245" lon="13.729446"><ele>277.0</ele><time>2026-04-18T07:13:11.286Z</time></trkpt><trkpt lat="42.7224394" lon="13.7292941"><ele>278.0</ele><time>2026-04-18T07:13:12.415Z</time></trkpt><trkpt lat="42.7226446" lon="13.729038"><ele>279.0</ele><time>2026-04-18T07:13:14.253Z</time></trkpt><trkpt lat="42.7227771" lon="13.7288676"><ele>280.0</ele><time>2026-04-18T07:13:15.412Z</time></trkpt><trkpt lat="42.7228865" lon="13.7287268"><ele>281.0</ele><time>2026-04-18T07:13:16.337Z</time></trkpt><trkpt lat="42.7230053" lon="13.7285641"><ele>282.0</ele><time>2026-04-18T07:13:17.337Z</time></trkpt><trkpt lat="42.7231188" lon="13.728411"><ele>282.6666666666667</ele><time>2026-04-18T07:13:18.27Z</time></trkpt><trkpt lat="42.7232432" lon="13.728238"><ele>283.33333333333337</ele><time>2026-04-18T07:13:19.283Z</time></trkpt><trkpt lat="42.7233671" lon="13.7280596"><ele>284.0</ele><time>2026-04-18T07:13:20.3Z</time></trkpt><trkpt lat="42.7234706" lon="13.7278909"><ele>283.75</ele><time>2026-04-18T07:13:21.274Z</time></trkpt><trkpt lat="42.7235663" lon="13.7277214"><ele>283.5</ele><time>2026-04-18T07:13:22.283Z</time></trkpt><trkpt lat="42.7236616" lon="13.7275429"><ele>283.25</ele><time>2026-04-18T07:13:23.422Z</time></trkpt><trkpt lat="42.7237336" lon="13.7274102"><ele>283.0</ele><time>2026-04-18T07:13:24.345Z</time></trkpt><trkpt lat="42.7238155" lon="13.727266"><ele>283.0</ele><time>2026-04-18T07:13:25.421Z</time></trkpt><trkpt lat="42.7239458" lon="13.7270336"><ele>283.0</ele><time>2026-04-18T07:13:27.278Z</time></trkpt><trkpt lat="42.724014" lon="13.7269125"><ele>283.0</ele><time>2026-04-18T07:13:28.312Z</time></trkpt><trkpt lat="42.7240805" lon="13.7268065"><ele>283.0</ele><time>2026-04-18T07:13:29.309Z</time></trkpt><trkpt lat="42.7241551" lon="13.726728"><ele>283.2</ele><time>2026-04-18T07:13:30.302Z</time></trkpt><trkpt lat="42.7242413" lon="13.7266755"><ele>283.4</ele><time>2026-04-18T07:13:31.315Z</time></trkpt><trkpt lat="42.7243341" lon="13.7266431"><ele>283.59999999999997</ele><time>2026-04-18T07:13:32.313Z</time></trkpt><trkpt lat="42.7244177" lon="13.7266438"><ele>283.8</ele><time>2026-04-18T07:13:33.282Z</time></trkpt><trkpt lat="42.7245115" lon="13.726639"><ele>284.0</ele><time>2026-04-18T07:13:34.313Z</time></trkpt><trkpt lat="42.7246104" lon="13.7266195"><ele>281.59999999999997</ele><time>2026-04-18T07:13:35.31Z</time></trkpt><trkpt lat="42.7246746" lon="13.7265882"><ele>279.2</ele><time>2026-04-18T07:13:36.298Z</time></trkpt><trkpt lat="42.7247353" lon="13.7265116"><ele>276.79999999999995</ele><time>2026-04-18T07:13:37.314Z</time></trkpt><trkpt lat="42.7247717" lon="13.7263706"><ele>274.4</ele><time>2026-04-18T07:13:38.272Z</time></trkpt><trkpt lat="42.724827" lon="13.7262269"><ele>272.0</ele><time>2026-04-18T07:13:39.269Z</time></trkpt><trkpt lat="42.7248956" lon="13.7260997"><ele>270.25</ele><time>2026-04-18T07:13:40.275Z</time></trkpt><trkpt lat="42.7249848" lon="13.7259835"><ele>268.5</ele><time>2026-04-18T07:13:41.282Z</time></trkpt><trkpt lat="42.7250845" lon="13.7258721"><ele>266.75</ele><time>2026-04-18T07:13:42.291Z</time></trkpt><trkpt lat="42.7252003" lon="13.7257582"><ele>265.0</ele><time>2026-04-18T07:13:43.348Z</time></trkpt><trkpt lat="42.7253231" lon="13.7256772"><ele>265.0</ele><time>2026-04-18T07:13:44.304Z</time></trkpt><trkpt lat="42.7254778" lon="13.7255902"><ele>265.0</ele><time>2026-04-18T07:13:45.286Z</time></trkpt><trkpt lat="42.7256305" lon="13.7254834"><ele>265.0</ele><time>2026-04-18T07:13:46.292Z</time></trkpt><trkpt lat="42.7257629" lon="13.7253618"><ele>265.0</ele><time>2026-04-18T07:13:47.283Z</time></trkpt><trkpt lat="42.7258866" lon="13.7252308"><ele>265.0</ele><time>2026-04-18T07:13:48.317Z</time></trkpt><trkpt lat="42.7259905" lon="13.7251019"><ele>265.0</ele><time>2026-04-18T07:13:49.272Z</time></trkpt><trkpt lat="42.7260928" lon="13.7249589"><ele>265.0</ele><time>2026-04-18T07:13:50.276Z</time></trkpt><trkpt lat="42.726193" lon="13.7248176"><ele>265.25</ele><time>2026-04-18T07:13:51.289Z</time></trkpt><trkpt lat="42.7262733" lon="13.7246973"><ele>265.5</ele><time>2026-04-18T07:13:52.301Z</time></trkpt><trkpt lat="42.7263382" lon="13.7246116"><ele>265.75</ele><time>2026-04-18T07:13:53.272Z</time></trkpt><trkpt lat="42.7264261" lon="13.7245124"><ele>266.0</ele><time>2026-04-18T07:13:54.423Z</time></trkpt><trkpt lat="42.7265745" lon="13.7243731"><ele>266.0</ele><time>2026-04-18T07:13:56.271Z</time></trkpt><trkpt lat="42.7266547" lon="13.7243009"><ele>266.0</ele><time>2026-04-18T07:13:57.285Z</time></trkpt><trkpt lat="42.7267353" lon="13.7242297"><ele>266.0</ele><time>2026-04-18T07:13:58.279Z</time></trkpt><trkpt lat="42.726819" lon="13.7241608"><ele>266.0</ele><time>2026-04-18T07:13:59.316Z</time></trkpt><trkpt lat="42.7269058" lon="13.7240939"><ele>266.0</ele><time>2026-04-18T07:14:00.399Z</time></trkpt><trkpt lat="42.7269834" lon="13.7240295"><ele>265.25</ele><time>2026-04-18T07:14:01.401Z</time></trkpt><trkpt lat="42.7271193" lon="13.7238758"><ele>264.5</ele><time>2026-04-18T07:14:03.354Z</time></trkpt><trkpt lat="42.7271773" lon="13.7237874"><ele>263.75</ele><time>2026-04-18T07:14:04.283Z</time></trkpt><trkpt lat="42.7272366" lon="13.7236782"><ele>263.0</ele><time>2026-04-18T07:14:05.295Z</time></trkpt><trkpt lat="42.72729" lon="13.7235579"><ele>263.0</ele><time>2026-04-18T07:14:06.297Z</time></trkpt><trkpt lat="42.7273483" lon="13.723432"><ele>263.0</ele><time>2026-04-18T07:14:07.3Z</time></trkpt><trkpt lat="42.7274112" lon="13.7233013"><ele>263.0</ele><time>2026-04-18T07:14:08.267Z</time></trkpt><trkpt lat="42.7274784" lon="13.7231594"><ele>263.0</ele><time>2026-04-18T07:14:09.298Z</time></trkpt><trkpt lat="42.7275429" lon="13.7230092"><ele>263.0</ele><time>2026-04-18T07:14:10.293Z</time></trkpt><trkpt lat="42.7276064" lon="13.7228566"><ele>263.0</ele><time>2026-04-18T07:14:11.273Z</time></trkpt><trkpt lat="42.7276772" lon="13.7226808"><ele>263.0</ele><time>2026-04-18T07:14:12.326Z</time></trkpt><trkpt lat="42.7277382" lon="13.7225112"><ele>263.0</ele><time>2026-04-18T07:14:13.286Z</time></trkpt><trkpt lat="42.727792" lon="13.7223231"><ele>262.33333333333337</ele><time>2026-04-18T07:14:14.282Z</time></trkpt><trkpt lat="42.7278329" lon="13.7221225"><ele>261.6666666666667</ele><time>2026-04-18T07:14:15.279Z</time></trkpt><trkpt lat="42.7278613" lon="13.7219116"><ele>261.0</ele><time>2026-04-18T07:14:16.273Z</time></trkpt><trkpt lat="42.7278915" lon="13.721698"><ele>261.0</ele><time>2026-04-18T07:14:17.271Z</time></trkpt><trkpt lat="42.7279293" lon="13.7214768"><ele>261.0</ele><time>2026-04-18T07:14:18.281Z</time></trkpt><trkpt lat="42.7279726" lon="13.7212523"><ele>261.0</ele><time>2026-04-18T07:14:19.298Z</time></trkpt><trkpt lat="42.7280226" lon="13.7210376"><ele>261.6666666666667</ele><time>2026-04-18T07:14:20.292Z</time></trkpt><trkpt lat="42.7280712" lon="13.7208259"><ele>262.33333333333337</ele><time>2026-04-18T07:14:21.289Z</time></trkpt><trkpt lat="42.7281269" lon="13.7206216"><ele>263.0</ele><time>2026-04-18T07:14:22.296Z</time></trkpt><trkpt lat="42.7281924" lon="13.720428"><ele>263.6666666666667</ele><time>2026-04-18T07:14:23.284Z</time></trkpt><trkpt lat="42.7282579" lon="13.7202312"><ele>264.3333333333333</ele><time>2026-04-18T07:14:24.315Z</time></trkpt><trkpt lat="42.7283234" lon="13.7200537"><ele>265.0</ele><time>2026-04-18T07:14:25.264Z</time></trkpt><trkpt lat="42.7283955" lon="13.7198697"><ele>265.0</ele><time>2026-04-18T07:14:26.319Z</time></trkpt><trkpt lat="42.7284645" lon="13.7197018"><ele>265.0</ele><time>2026-04-18T07:14:27.317Z</time></trkpt><trkpt lat="42.7285317" lon="13.7195499"><ele>265.0</ele><time>2026-04-18T07:14:28.32Z</time></trkpt><trkpt lat="42.7286151" lon="13.7194018"><ele>265.0</ele><time>2026-04-18T07:14:29.35Z</time></trkpt><trkpt lat="42.7287048" lon="13.7192815"><ele>266.0</ele><time>2026-04-18T07:14:30.286Z</time></trkpt><trkpt lat="42.7288274" lon="13.7191788"><ele>267.0</ele><time>2026-04-18T07:14:31.321Z</time></trkpt><trkpt lat="42.728952" lon="13.719102"><ele>268.0</ele><time>2026-04-18T07:14:32.286Z</time></trkpt><trkpt lat="42.729088" lon="13.7190257"><ele>269.0</ele><time>2026-04-18T07:14:33.313Z</time></trkpt><trkpt lat="42.7292179" lon="13.7189353"><ele>269.0</ele><time>2026-04-18T07:14:34.313Z</time></trkpt><trkpt lat="42.7293492" lon="13.7188386"><ele>269.0</ele><time>2026-04-18T07:14:35.303Z</time></trkpt><trkpt lat="42.7294774" lon="13.7187308"><ele>269.0</ele><time>2026-04-18T07:14:36.29Z</time></trkpt><trkpt lat="42.7295998" lon="13.7186079"><ele>269.0</ele><time>2026-04-18T07:14:37.287Z</time></trkpt><trkpt lat="42.7297124" lon="13.718471"><ele>269.0</ele><time>2026-04-18T07:14:38.291Z</time></trkpt><trkpt lat="42.7298156" lon="13.7183225"><ele>269.0</ele><time>2026-04-18T07:14:39.29Z</time></trkpt><trkpt lat="42.7299126" lon="13.7181715"><ele>269.0</ele><time>2026-04-18T07:14:40.321Z</time></trkpt><trkpt lat="42.7299954" lon="13.7180394"><ele>269.0</ele><time>2026-04-18T07:14:41.287Z</time></trkpt><trkpt lat="42.7300704" lon="13.7179126"><ele>269.0</ele><time>2026-04-18T07:14:42.265Z</time></trkpt><trkpt lat="42.7301366" lon="13.7177792"><ele>269.0</ele><time>2026-04-18T07:14:43.282Z</time></trkpt><trkpt lat="42.7301899" lon="13.7176432"><ele>269.0</ele><time>2026-04-18T07:14:44.276Z</time></trkpt><trkpt lat="42.7302308" lon="13.7174859"><ele>269.5</ele><time>2026-04-18T07:14:45.333Z</time></trkpt><trkpt lat="42.7302572" lon="13.7173385"><ele>270.0</ele><time>2026-04-18T07:14:46.306Z</time></trkpt><trkpt lat="42.7302708" lon="13.7171955"><ele>270.5</ele><time>2026-04-18T07:14:47.274Z</time></trkpt><trkpt lat="42.7302852" lon="13.7170176"><ele>271.0</ele><time>2026-04-18T07:14:48.513Z</time></trkpt><trkpt lat="42.7302934" lon="13.7168056"><ele>271.0</ele><time>2026-04-18T07:14:50.29Z</time></trkpt><trkpt lat="42.7302958" lon="13.7167063"><ele>271.0</ele><time>2026-04-18T07:14:51.279Z</time></trkpt><trkpt lat="42.7302984" lon="13.7166205"><ele>271.0</ele><time>2026-04-18T07:14:52.334Z</time></trkpt><trkpt lat="42.7303105" lon="13.7164591"><ele>271.0</ele><time>2026-04-18T07:14:55.438Z</time></trkpt><trkpt lat="42.7303405" lon="13.7163801"><ele>271.0</ele><time>2026-04-18T07:14:58.295Z</time></trkpt><trkpt lat="42.7303203" lon="13.7162466"><ele>271.0</ele><time>2026-04-18T07:15:05.323Z</time></trkpt><trkpt lat="42.7302696" lon="13.7161919"><ele>270.8333333333333</ele><time>2026-04-18T07:15:06.337Z</time></trkpt><trkpt lat="42.7302074" lon="13.7161528"><ele>270.66666666666663</ele><time>2026-04-18T07:15:07.271Z</time></trkpt><trkpt lat="42.7301259" lon="13.7160977"><ele>270.5</ele><time>2026-04-18T07:15:08.355Z</time></trkpt><trkpt lat="42.7300486" lon="13.7160438"><ele>270.3333333333333</ele><time>2026-04-18T07:15:09.344Z</time></trkpt><trkpt lat="42.7299668" lon="13.7160015"><ele>270.1666666666667</ele><time>2026-04-18T07:15:10.28Z</time></trkpt><trkpt lat="42.7298705" lon="13.7159728"><ele>270.0</ele><time>2026-04-18T07:15:11.309Z</time></trkpt><trkpt lat="42.7297704" lon="13.7159798"><ele>270.0</ele><time>2026-04-18T07:15:12.307Z</time></trkpt><trkpt lat="42.7296654" lon="13.7160205"><ele>270.0</ele><time>2026-04-18T07:15:13.332Z</time></trkpt><trkpt lat="42.7295711" lon="13.7160801"><ele>270.0</ele><time>2026-04-18T07:15:14.278Z</time></trkpt><trkpt lat="42.729481" lon="13.7161643"><ele>270.0</ele><time>2026-04-18T07:15:15.297Z</time></trkpt><trkpt lat="42.7294107" lon="13.7162674"><ele>270.0</ele><time>2026-04-18T07:15:16.266Z</time></trkpt><trkpt lat="42.7293502" lon="13.716384"><ele>271.8</ele><time>2026-04-18T07:15:17.26Z</time></trkpt><trkpt lat="42.729302" lon="13.7165068"><ele>273.6</ele><time>2026-04-18T07:15:18.286Z</time></trkpt><trkpt lat="42.7292676" lon="13.7166193"><ele>275.4</ele><time>2026-04-18T07:15:19.287Z</time></trkpt><trkpt lat="42.7292172" lon="13.7167228"><ele>277.2</ele><time>2026-04-18T07:15:20.295Z</time></trkpt><trkpt lat="42.729159" lon="13.7168093"><ele>279.0</ele><time>2026-04-18T07:15:21.275Z</time></trkpt><trkpt lat="42.7290795" lon="13.7168693"><ele>279.0</ele><time>2026-04-18T07:15:22.374Z</time></trkpt><trkpt lat="42.7289282" lon="13.7168312"><ele>279.0</ele><time>2026-04-18T07:15:24.295Z</time></trkpt><trkpt lat="42.7288615" lon="13.7167575"><ele>279.0</ele><time>2026-04-18T07:15:25.288Z</time></trkpt><trkpt lat="42.728808" lon="13.7166582"><ele>279.0</ele><time>2026-04-18T07:15:26.282Z</time></trkpt><trkpt lat="42.7287685" lon="13.7165368"><ele>279.0</ele><time>2026-04-18T07:15:27.264Z</time></trkpt><trkpt lat="42.7287219" lon="13.7164003"><ele>279.0</ele><time>2026-04-18T07:15:28.299Z</time></trkpt><trkpt lat="42.7286833" lon="13.7162541"><ele>279.0</ele><time>2026-04-18T07:15:29.271Z</time></trkpt><trkpt lat="42.7286471" lon="13.716103"><ele>279.0</ele><time>2026-04-18T07:15:30.313Z</time></trkpt><trkpt lat="42.7286278" lon="13.7159722"><ele>279.0</ele><time>2026-04-18T07:15:31.262Z</time></trkpt><trkpt lat="42.7286322" lon="13.7158405"><ele>279.0</ele><time>2026-04-18T07:15:32.255Z</time></trkpt><trkpt lat="42.7286858" lon="13.7157163"><ele>282.75</ele><time>2026-04-18T07:15:33.264Z</time></trkpt><trkpt lat="42.7287626" lon="13.7156031"><ele>286.5</ele><time>2026-04-18T07:15:34.275Z</time></trkpt><trkpt lat="42.7288432" lon="13.7154833"><ele>290.25</ele><time>2026-04-18T07:15:35.277Z</time></trkpt><trkpt lat="42.7289159" lon="13.715337"><ele>294.0</ele><time>2026-04-18T07:15:36.355Z</time></trkpt><trkpt lat="42.7289651" lon="13.7151858"><ele>295.0</ele><time>2026-04-18T07:15:37.306Z</time></trkpt><trkpt lat="42.7290056" lon="13.7150057"><ele>296.0</ele><time>2026-04-18T07:15:38.333Z</time></trkpt><trkpt lat="42.7290449" lon="13.7148448"><ele>297.0</ele><time>2026-04-18T07:15:39.271Z</time></trkpt><trkpt lat="42.7290691" lon="13.7146644"><ele>298.0</ele><time>2026-04-18T07:15:40.263Z</time></trkpt><trkpt lat="42.7290819" lon="13.7144811"><ele>299.0</ele><time>2026-04-18T07:15:41.271Z</time></trkpt><trkpt lat="42.7290738" lon="13.7143033"><ele>300.0</ele><time>2026-04-18T07:15:42.252Z</time></trkpt><trkpt lat="42.7290429" lon="13.7141256"><ele>301.0</ele><time>2026-04-18T07:15:43.251Z</time></trkpt><trkpt lat="42.728993" lon="13.7139489"><ele>302.0</ele><time>2026-04-18T07:15:44.275Z</time></trkpt><trkpt lat="42.7289346" lon="13.7138076"><ele>302.0</ele><time>2026-04-18T07:15:45.239Z</time></trkpt><trkpt lat="42.7288706" lon="13.713673"><ele>302.0</ele><time>2026-04-18T07:15:46.259Z</time></trkpt><trkpt lat="42.7288146" lon="13.7135507"><ele>302.0</ele><time>2026-04-18T07:15:47.253Z</time></trkpt><trkpt lat="42.7287582" lon="13.7134262"><ele>302.0</ele><time>2026-04-18T07:15:48.352Z</time></trkpt><trkpt lat="42.7287114" lon="13.7133465"><ele>302.0</ele><time>2026-04-18T07:15:49.253Z</time></trkpt><trkpt lat="42.7286583" lon="13.7132469"><ele>304.2</ele><time>2026-04-18T07:15:50.261Z</time></trkpt><trkpt lat="42.7286122" lon="13.7131434"><ele>306.4</ele><time>2026-04-18T07:15:51.238Z</time></trkpt><trkpt lat="42.7285756" lon="13.7130342"><ele>308.6</ele><time>2026-04-18T07:15:52.22Z</time></trkpt><trkpt lat="42.728558" lon="13.7129232"><ele>310.8</ele><time>2026-04-18T07:15:53.242Z</time></trkpt><trkpt lat="42.7285751" lon="13.7127949"><ele>313.0</ele><time>2026-04-18T07:15:54.254Z</time></trkpt><trkpt lat="42.728602" lon="13.7126468"><ele>314.66666666666663</ele><time>2026-04-18T07:15:55.3Z</time></trkpt><trkpt lat="42.7286304" lon="13.7124951"><ele>316.3333333333333</ele><time>2026-04-18T07:15:56.267Z</time></trkpt><trkpt lat="42.728671" lon="13.7123234"><ele>318.0</ele><time>2026-04-18T07:15:57.378Z</time></trkpt><trkpt lat="42.7287411" lon="13.7120079"><ele>316.5</ele><time>2026-04-18T07:15:59.234Z</time></trkpt><trkpt lat="42.7287758" lon="13.7118329"><ele>315.0</ele><time>2026-04-18T07:16:00.228Z</time></trkpt><trkpt lat="42.7287991" lon="13.7116396"><ele>313.5</ele><time>2026-04-18T07:16:01.252Z</time></trkpt><trkpt lat="42.7288141" lon="13.7114528"><ele>312.0</ele><time>2026-04-18T07:16:02.265Z</time></trkpt><trkpt lat="42.7288479" lon="13.7112795"><ele>312.0</ele><time>2026-04-18T07:16:03.26Z</time></trkpt><trkpt lat="42.7289103" lon="13.7111218"><ele>312.0</ele><time>2026-04-18T07:16:04.282Z</time></trkpt><trkpt lat="42.7289809" lon="13.7109829"><ele>312.0</ele><time>2026-04-18T07:16:05.25Z</time></trkpt><trkpt lat="42.7290432" lon="13.7108305"><ele>312.0</ele><time>2026-04-18T07:16:06.283Z</time></trkpt><trkpt lat="42.7290748" lon="13.7106844"><ele>311.8</ele><time>2026-04-18T07:16:07.254Z</time></trkpt><trkpt lat="42.7290691" lon="13.7105344"><ele>311.6</ele><time>2026-04-18T07:16:08.288Z</time></trkpt><trkpt lat="42.7290483" lon="13.7104017"><ele>311.40000000000003</ele><time>2026-04-18T07:16:09.267Z</time></trkpt><trkpt lat="42.7290349" lon="13.7102583"><ele>311.2</ele><time>2026-04-18T07:16:10.261Z</time></trkpt><trkpt lat="42.729035" lon="13.7101131"><ele>311.0</ele><time>2026-04-18T07:16:11.225Z</time></trkpt><trkpt lat="42.7290582" lon="13.709959"><ele>311.0</ele><time>2026-04-18T07:16:12.252Z</time></trkpt><trkpt lat="42.729092" lon="13.7098129"><ele>311.0</ele><time>2026-04-18T07:16:13.248Z</time></trkpt><trkpt lat="42.7291241" lon="13.7096544"><ele>311.0</ele><time>2026-04-18T07:16:14.251Z</time></trkpt><trkpt lat="42.729148" lon="13.7094849"><ele>311.0</ele><time>2026-04-18T07:16:15.251Z</time></trkpt><trkpt lat="42.7291562" lon="13.7093167"><ele>311.25</ele><time>2026-04-18T07:16:16.266Z</time></trkpt><trkpt lat="42.7291548" lon="13.7091441"><ele>311.5</ele><time>2026-04-18T07:16:17.288Z</time></trkpt><trkpt lat="42.7291496" lon="13.7089836"><ele>311.75</ele><time>2026-04-18T07:16:18.264Z</time></trkpt><trkpt lat="42.7291494" lon="13.7088164"><ele>312.0</ele><time>2026-04-18T07:16:19.281Z</time></trkpt><trkpt lat="42.7291603" lon="13.7086537"><ele>310.75</ele><time>2026-04-18T07:16:20.289Z</time></trkpt><trkpt lat="42.7291735" lon="13.7085087"><ele>309.5</ele><time>2026-04-18T07:16:21.241Z</time></trkpt><trkpt lat="42.7291915" lon="13.7083684"><ele>308.25</ele><time>2026-04-18T07:16:22.244Z</time></trkpt><trkpt lat="42.7292163" lon="13.7082296"><ele>307.0</ele><time>2026-04-18T07:16:23.35Z</time></trkpt><trkpt lat="42.7293245" lon="13.708014"><ele>307.0</ele><time>2026-04-18T07:16:25.348Z</time></trkpt><trkpt lat="42.7293903" lon="13.7079242"><ele>307.0</ele><time>2026-04-18T07:16:26.258Z</time></trkpt><trkpt lat="42.7294542" lon="13.7078145"><ele>307.0</ele><time>2026-04-18T07:16:27.236Z</time></trkpt><trkpt lat="42.729523" lon="13.7076777"><ele>307.0</ele><time>2026-04-18T07:16:28.281Z</time></trkpt><trkpt lat="42.7295709" lon="13.7075446"><ele>307.0</ele><time>2026-04-18T07:16:29.269Z</time></trkpt><trkpt lat="42.729579" lon="13.7073822"><ele>308.5</ele><time>2026-04-18T07:16:30.254Z</time></trkpt><trkpt lat="42.7295486" lon="13.7072444"><ele>310.0</ele><time>2026-04-18T07:16:31.231Z</time></trkpt><trkpt lat="42.7295174" lon="13.7071108"><ele>311.5</ele><time>2026-04-18T07:16:32.262Z</time></trkpt><trkpt lat="42.7294922" lon="13.7070007"><ele>313.0</ele><time>2026-04-18T07:16:33.244Z</time></trkpt><trkpt lat="42.7294856" lon="13.7068972"><ele>314.5</ele><time>2026-04-18T07:16:34.244Z</time></trkpt><trkpt lat="42.7294973" lon="13.7068108"><ele>316.0</ele><time>2026-04-18T07:16:35.251Z</time></trkpt><trkpt lat="42.7295924" lon="13.7067153"><ele>316.0</ele><time>2026-04-18T07:16:37.333Z</time></trkpt><trkpt lat="42.7297115" lon="13.706725"><ele>316.0</ele><time>2026-04-18T07:16:38.264Z</time></trkpt><trkpt lat="42.7298224" lon="13.7067343"><ele>316.0</ele><time>2026-04-18T07:16:39.282Z</time></trkpt><trkpt lat="42.7299217" lon="13.706713"><ele>316.0</ele><time>2026-04-18T07:16:40.29Z</time></trkpt><trkpt lat="42.7300293" lon="13.70665"><ele>316.0</ele><time>2026-04-18T07:16:41.278Z</time></trkpt><trkpt lat="42.7301162" lon="13.7065685"><ele>316.0</ele><time>2026-04-18T07:16:42.244Z</time></trkpt><trkpt lat="42.730181" lon="13.7064389"><ele>316.0</ele><time>2026-04-18T07:16:43.258Z</time></trkpt><trkpt lat="42.7302126" lon="13.7062657"><ele>316.0</ele><time>2026-04-18T07:16:44.258Z</time></trkpt><trkpt lat="42.7302581" lon="13.7061255"><ele>316.0</ele><time>2026-04-18T07:16:45.251Z</time></trkpt><trkpt lat="42.7303192" lon="13.7059689"><ele>315.2</ele><time>2026-04-18T07:16:46.381Z</time></trkpt><trkpt lat="42.7303806" lon="13.7058452"><ele>314.40000000000003</ele><time>2026-04-18T07:16:47.324Z</time></trkpt><trkpt lat="42.7304419" lon="13.705723"><ele>313.6</ele><time>2026-04-18T07:16:48.257Z</time></trkpt><trkpt lat="42.7304963" lon="13.7055854"><ele>312.8</ele><time>2026-04-18T07:16:49.241Z</time></trkpt><trkpt lat="42.730538" lon="13.7054442"><ele>312.0</ele><time>2026-04-18T07:16:50.272Z</time></trkpt><trkpt lat="42.7305784" lon="13.7053237"><ele>310.6</ele><time>2026-04-18T07:16:51.255Z</time></trkpt><trkpt lat="42.730626" lon="13.7052142"><ele>309.2</ele><time>2026-04-18T07:16:52.258Z</time></trkpt><trkpt lat="42.7306791" lon="13.7051065"><ele>307.8</ele><time>2026-04-18T07:16:53.285Z</time></trkpt><trkpt lat="42.7307315" lon="13.7050011"><ele>306.4</ele><time>2026-04-18T07:16:54.289Z</time></trkpt><trkpt lat="42.7307937" lon="13.7048812"><ele>305.0</ele><time>2026-04-18T07:16:55.423Z</time></trkpt><trkpt lat="42.7308469" lon="13.7047871"><ele>305.0</ele><time>2026-04-18T07:16:56.327Z</time></trkpt><trkpt lat="42.7309113" lon="13.7046848"><ele>305.0</ele><time>2026-04-18T07:16:57.345Z</time></trkpt><trkpt lat="42.7309747" lon="13.7045847"><ele>305.0</ele><time>2026-04-18T07:16:58.318Z</time></trkpt><trkpt lat="42.7310362" lon="13.7044928"><ele>305.0</ele><time>2026-04-18T07:16:59.3Z</time></trkpt><trkpt lat="42.7310945" lon="13.7044123"><ele>305.0</ele><time>2026-04-18T07:17:00.278Z</time></trkpt><trkpt lat="42.7311505" lon="13.7043393"><ele>305.0</ele><time>2026-04-18T07:17:01.289Z</time></trkpt><trkpt lat="42.7312002" lon="13.7042632"><ele>306.33333333333337</ele><time>2026-04-18T07:17:02.324Z</time></trkpt><trkpt lat="42.731225" lon="13.7041733"><ele>307.6666666666667</ele><time>2026-04-18T07:17:03.294Z</time></trkpt><trkpt lat="42.7312137" lon="13.7040758"><ele>309.0</ele><time>2026-04-18T07:17:04.314Z</time></trkpt><trkpt lat="42.7311764" lon="13.7039875"><ele>310.3333333333333</ele><time>2026-04-18T07:17:05.313Z</time></trkpt><trkpt lat="42.7311194" lon="13.7039069"><ele>311.66666666666663</ele><time>2026-04-18T07:17:06.288Z</time></trkpt><trkpt lat="42.731046" lon="13.7038389"><ele>313.0</ele><time>2026-04-18T07:17:07.302Z</time></trkpt><trkpt lat="42.7309665" lon="13.703786"><ele>313.66666666666663</ele><time>2026-04-18T07:17:08.305Z</time></trkpt><trkpt lat="42.7308877" lon="13.7037362"><ele>314.3333333333333</ele><time>2026-04-18T07:17:09.277Z</time></trkpt><trkpt lat="42.7308107" lon="13.70369"><ele>315.0</ele><time>2026-04-18T07:17:10.278Z</time></trkpt><trkpt lat="42.7307298" lon="13.7036419"><ele>315.6666666666667</ele><time>2026-04-18T07:17:11.268Z</time></trkpt><trkpt lat="42.7306662" lon="13.703569"><ele>316.33333333333337</ele><time>2026-04-18T07:17:12.288Z</time></trkpt><trkpt lat="42.7306262" lon="13.703475"><ele>317.0</ele><time>2026-04-18T07:17:13.257Z</time></trkpt><trkpt lat="42.7306079" lon="13.7033582"><ele>319.2</ele><time>2026-04-18T07:17:14.321Z</time></trkpt><trkpt lat="42.7305996" lon="13.7032577"><ele>321.4</ele><time>2026-04-18T07:17:15.329Z</time></trkpt><trkpt lat="42.7305985" lon="13.7030856"><ele>323.59999999999997</ele><time>2026-04-18T07:17:17.296Z</time></trkpt><trkpt lat="42.7306241" lon="13.7029273"><ele>325.79999999999995</ele><time>2026-04-18T07:17:19.318Z</time></trkpt><trkpt lat="42.7307211" lon="13.7028588"><ele>328.0</ele><time>2026-04-18T07:17:21.326Z</time></trkpt><trkpt lat="42.7307766" lon="13.7029062"><ele>328.0</ele><time>2026-04-18T07:17:22.281Z</time></trkpt><trkpt lat="42.7308168" lon="13.7029835"><ele>328.0</ele><time>2026-04-18T07:17:23.282Z</time></trkpt><trkpt lat="42.7308347" lon="13.7030877"><ele>328.0</ele><time>2026-04-18T07:17:24.291Z</time></trkpt><trkpt lat="42.7308363" lon="13.7032054"><ele>328.0</ele><time>2026-04-18T07:17:25.288Z</time></trkpt><trkpt lat="42.7308336" lon="13.7033162"><ele>328.0</ele><time>2026-04-18T07:17:26.279Z</time></trkpt><trkpt lat="42.7308541" lon="13.7034202"><ele>328.0</ele><time>2026-04-18T07:17:27.299Z</time></trkpt><trkpt lat="42.7308912" lon="13.7034939"><ele>328.0</ele><time>2026-04-18T07:17:28.311Z</time></trkpt><trkpt lat="42.7309536" lon="13.7035334"><ele>328.0</ele><time>2026-04-18T07:17:29.299Z</time></trkpt><trkpt lat="42.7310201" lon="13.7035281"><ele>328.0</ele><time>2026-04-18T07:17:30.287Z</time></trkpt><trkpt lat="42.7310761" lon="13.7034592"><ele>328.0</ele><time>2026-04-18T07:17:31.311Z</time></trkpt><trkpt lat="42.731114" lon="13.7033635"><ele>328.0</ele><time>2026-04-18T07:17:32.328Z</time></trkpt><trkpt lat="42.7311278" lon="13.7032392"><ele>328.0</ele><time>2026-04-18T07:17:33.303Z</time></trkpt><trkpt lat="42.7311232" lon="13.7031055"><ele>326.3333333333333</ele><time>2026-04-18T07:17:34.285Z</time></trkpt><trkpt lat="42.7311223" lon="13.702943"><ele>324.6666666666667</ele><time>2026-04-18T07:17:35.282Z</time></trkpt><trkpt lat="42.7311216" lon="13.7027427"><ele>323.0</ele><time>2026-04-18T07:17:36.601Z</time></trkpt><trkpt lat="42.7311146" lon="13.7024503"><ele>322.25</ele><time>2026-04-18T07:17:38.285Z</time></trkpt><trkpt lat="42.7311186" lon="13.7022901"><ele>321.5</ele><time>2026-04-18T07:17:39.274Z</time></trkpt><trkpt lat="42.731118" lon="13.702117"><ele>320.75</ele><time>2026-04-18T07:17:40.32Z</time></trkpt><trkpt lat="42.7311076" lon="13.7019548"><ele>320.0</ele><time>2026-04-18T07:17:41.311Z</time></trkpt><trkpt lat="42.7310921" lon="13.7017901"><ele>320.0</ele><time>2026-04-18T07:17:42.317Z</time></trkpt><trkpt lat="42.7310727" lon="13.7016213"><ele>320.0</ele><time>2026-04-18T07:17:43.305Z</time></trkpt><trkpt lat="42.7310428" lon="13.7014457"><ele>320.0</ele><time>2026-04-18T07:17:44.277Z</time></trkpt><trkpt lat="42.7309999" lon="13.7012771"><ele>320.0</ele><time>2026-04-18T07:17:45.274Z</time></trkpt><trkpt lat="42.7309563" lon="13.7010806"><ele>326.33333333333337</ele><time>2026-04-18T07:17:46.267Z</time></trkpt><trkpt lat="42.7308904" lon="13.7008158"><ele>332.6666666666667</ele><time>2026-04-18T07:17:47.341Z</time></trkpt><trkpt lat="42.7308348" lon="13.700571"><ele>339.0</ele><time>2026-04-18T07:17:48.289Z</time></trkpt><trkpt lat="42.7307488" lon="13.7002261"><ele>349.0</ele><time>2026-04-18T07:17:49.435Z</time></trkpt><trkpt lat="42.7305982" lon="13.6996077"><ele>351.0</ele><time>2026-04-18T07:17:51.287Z</time></trkpt><trkpt lat="42.7305382" lon="13.6993325"><ele>353.0</ele><time>2026-04-18T07:17:52.297Z</time></trkpt><trkpt lat="42.7304924" lon="13.6990865"><ele>355.0</ele><time>2026-04-18T07:17:53.288Z</time></trkpt><trkpt lat="42.7304363" lon="13.6988486"><ele>355.0</ele><time>2026-04-18T07:17:54.29Z</time></trkpt><trkpt lat="42.7303853" lon="13.6986249"><ele>355.0</ele><time>2026-04-18T07:17:55.301Z</time></trkpt><trkpt lat="42.7303387" lon="13.6984181"><ele>355.0</ele><time>2026-04-18T07:17:56.298Z</time></trkpt><trkpt lat="42.730298" lon="13.698227"><ele>355.25</ele><time>2026-04-18T07:17:57.299Z</time></trkpt><trkpt lat="42.7302573" lon="13.6980485"><ele>355.5</ele><time>2026-04-18T07:17:58.325Z</time></trkpt><trkpt lat="42.7302226" lon="13.6978813"><ele>355.75</ele><time>2026-04-18T07:17:59.293Z</time></trkpt><trkpt lat="42.7301804" lon="13.6976968"><ele>356.0</ele><time>2026-04-18T07:18:00.346Z</time></trkpt><trkpt lat="42.73014" lon="13.6975312"><ele>357.0</ele><time>2026-04-18T07:18:01.278Z</time></trkpt><trkpt lat="42.730095" lon="13.6973486"><ele>358.0</ele><time>2026-04-18T07:18:02.306Z</time></trkpt><trkpt lat="42.7300493" lon="13.697164"><ele>359.0</ele><time>2026-04-18T07:18:03.29Z</time></trkpt><trkpt lat="42.7300036" lon="13.6969744"><ele>360.0</ele><time>2026-04-18T07:18:04.287Z</time></trkpt><trkpt lat="42.7299555" lon="13.6967804"><ele>360.6666666666667</ele><time>2026-04-18T07:18:05.286Z</time></trkpt><trkpt lat="42.7299068" lon="13.6965817"><ele>361.33333333333337</ele><time>2026-04-18T07:18:06.31Z</time></trkpt><trkpt lat="42.7298649" lon="13.6963949"><ele>362.0</ele><time>2026-04-18T07:18:07.271Z</time></trkpt><trkpt lat="42.7298201" lon="13.6961896"><ele>362.6666666666667</ele><time>2026-04-18T07:18:08.282Z</time></trkpt><trkpt lat="42.7297786" lon="13.695979"><ele>363.3333333333333</ele><time>2026-04-18T07:18:09.275Z</time></trkpt><trkpt lat="42.729729" lon="13.6957548"><ele>364.0</ele><time>2026-04-18T07:18:10.308Z</time></trkpt><trkpt lat="42.7296752" lon="13.6955365"><ele>364.0</ele><time>2026-04-18T07:18:11.313Z</time></trkpt><trkpt lat="42.7296233" lon="13.6953235"><ele>364.0</ele><time>2026-04-18T07:18:12.29Z</time></trkpt><trkpt lat="42.7295748" lon="13.695107"><ele>364.0</ele><time>2026-04-18T07:18:13.309Z</time></trkpt><trkpt lat="42.729532" lon="13.6949141"><ele>365.0</ele><time>2026-04-18T07:18:14.289Z</time></trkpt><trkpt lat="42.72949" lon="13.6947226"><ele>366.0</ele><time>2026-04-18T07:18:15.316Z</time></trkpt><trkpt lat="42.7294566" lon="13.694548"><ele>367.0</ele><time>2026-04-18T07:18:16.288Z</time></trkpt><trkpt lat="42.7294402" lon="13.6943571"><ele>368.0</ele><time>2026-04-18T07:18:17.306Z</time></trkpt><trkpt lat="42.7294477" lon="13.6941429"><ele>368.5</ele><time>2026-04-18T07:18:18.397Z</time></trkpt><trkpt lat="42.729467" lon="13.6939628"><ele>369.0</ele><time>2026-04-18T07:18:19.305Z</time></trkpt><trkpt lat="42.7294906" lon="13.6937609"><ele>369.5</ele><time>2026-04-18T07:18:20.307Z</time></trkpt><trkpt lat="42.7295094" lon="13.6935524"><ele>370.0</ele><time>2026-04-18T07:18:21.315Z</time></trkpt><trkpt lat="42.7295301" lon="13.6933427"><ele>367.3333333333333</ele><time>2026-04-18T07:18:22.283Z</time></trkpt><trkpt lat="42.7295507" lon="13.6931241"><ele>364.6666666666667</ele><time>2026-04-18T07:18:23.272Z</time></trkpt><trkpt lat="42.7295767" lon="13.6928967"><ele>362.0</ele><time>2026-04-18T07:18:24.284Z</time></trkpt><trkpt lat="42.7296024" lon="13.6926752"><ele>359.6666666666667</ele><time>2026-04-18T07:18:25.281Z</time></trkpt><trkpt lat="42.7296207" lon="13.6924443"><ele>357.3333333333333</ele><time>2026-04-18T07:18:26.332Z</time></trkpt><trkpt lat="42.7296286" lon="13.6922384"><ele>355.0</ele><time>2026-04-18T07:18:27.303Z</time></trkpt><trkpt lat="42.729613" lon="13.6920311"><ele>358.3333333333333</ele><time>2026-04-18T07:18:28.265Z</time></trkpt><trkpt lat="42.7295786" lon="13.6918325"><ele>361.6666666666667</ele><time>2026-04-18T07:18:29.283Z</time></trkpt><trkpt lat="42.7295031" lon="13.6916361"><ele>365.0</ele><time>2026-04-18T07:18:30.282Z</time></trkpt><trkpt lat="42.7294178" lon="13.6914616"><ele>367.33333333333337</ele><time>2026-04-18T07:18:31.28Z</time></trkpt><trkpt lat="42.7293135" lon="13.6912943"><ele>369.6666666666667</ele><time>2026-04-18T07:18:32.286Z</time></trkpt><trkpt lat="42.729217" lon="13.6911321"><ele>372.0</ele><time>2026-04-18T07:18:33.273Z</time></trkpt><trkpt lat="42.7291223" lon="13.6909537"><ele>372.0</ele><time>2026-04-18T07:18:34.298Z</time></trkpt><trkpt lat="42.7290301" lon="13.6907737"><ele>372.0</ele><time>2026-04-18T07:18:35.298Z</time></trkpt><trkpt lat="42.7289414" lon="13.6906081"><ele>372.0</ele><time>2026-04-18T07:18:36.286Z</time></trkpt><trkpt lat="42.7288522" lon="13.6904511"><ele>372.0</ele><time>2026-04-18T07:18:37.31Z</time></trkpt><trkpt lat="42.7287702" lon="13.6903045"><ele>372.0</ele><time>2026-04-18T07:18:38.267Z</time></trkpt><trkpt lat="42.7286624" lon="13.6901394"><ele>372.0</ele><time>2026-04-18T07:18:39.432Z</time></trkpt><trkpt lat="42.7284803" lon="13.6898982"><ele>372.5</ele><time>2026-04-18T07:18:41.29Z</time></trkpt><trkpt lat="42.7283853" lon="13.6897539"><ele>373.0</ele><time>2026-04-18T07:18:42.393Z</time></trkpt><trkpt lat="42.7283345" lon="13.6896173"><ele>373.5</ele><time>2026-04-18T07:18:43.315Z</time></trkpt><trkpt lat="42.7282952" lon="13.6894577"><ele>374.0</ele><time>2026-04-18T07:18:44.323Z</time></trkpt><trkpt lat="42.7282845" lon="13.689292"><ele>374.0</ele><time>2026-04-18T07:18:45.3Z</time></trkpt><trkpt lat="42.7282924" lon="13.6891046"><ele>374.0</ele><time>2026-04-18T07:18:46.343Z</time></trkpt><trkpt lat="42.7283054" lon="13.6889293"><ele>374.0</ele><time>2026-04-18T07:18:47.313Z</time></trkpt><trkpt lat="42.7283221" lon="13.6887407"><ele>374.0</ele><time>2026-04-18T07:18:48.342Z</time></trkpt><trkpt lat="42.7283394" lon="13.6885587"><ele>376.0</ele><time>2026-04-18T07:18:49.298Z</time></trkpt><trkpt lat="42.7283524" lon="13.688383"><ele>378.0</ele><time>2026-04-18T07:18:50.305Z</time></trkpt><trkpt lat="42.728353" lon="13.6882282"><ele>380.0</ele><time>2026-04-18T07:18:51.298Z</time></trkpt><trkpt lat="42.728346" lon="13.6880836"><ele>382.0</ele><time>2026-04-18T07:18:52.317Z</time></trkpt><trkpt lat="42.7283241" lon="13.6879581"><ele>384.0</ele><time>2026-04-18T07:18:53.294Z</time></trkpt><trkpt lat="42.7282837" lon="13.6878349"><ele>383.3333333333333</ele><time>2026-04-18T07:18:54.284Z</time></trkpt><trkpt lat="42.7282301" lon="13.6877051"><ele>382.66666666666663</ele><time>2026-04-18T07:18:55.275Z</time></trkpt><trkpt lat="42.728151" lon="13.6875852"><ele>382.0</ele><time>2026-04-18T07:18:56.394Z</time></trkpt><trkpt lat="42.7280073" lon="13.6873452"><ele>382.0</ele><time>2026-04-18T07:18:58.268Z</time></trkpt><trkpt lat="42.7279275" lon="13.68721"><ele>382.0</ele><time>2026-04-18T07:18:59.254Z</time></trkpt><trkpt lat="42.7278485" lon="13.6870711"><ele>382.0</ele><time>2026-04-18T07:19:00.375Z</time></trkpt><trkpt lat="42.7277913" lon="13.6869764"><ele>382.0</ele><time>2026-04-18T07:19:01.278Z</time></trkpt><trkpt lat="42.7277236" lon="13.6868643"><ele>384.40000000000003</ele><time>2026-04-18T07:19:02.32Z</time></trkpt><trkpt lat="42.727667" lon="13.6867659"><ele>386.8</ele><time>2026-04-18T07:19:03.284Z</time></trkpt><trkpt lat="42.7276035" lon="13.6866617"><ele>389.2</ele><time>2026-04-18T07:19:04.289Z</time></trkpt><trkpt lat="42.7275373" lon="13.6865588"><ele>391.6</ele><time>2026-04-18T07:19:05.258Z</time></trkpt><trkpt lat="42.7274481" lon="13.6864614"><ele>394.0</ele><time>2026-04-18T07:19:06.279Z</time></trkpt><trkpt lat="42.7273458" lon="13.6863727"><ele>394.0</ele><time>2026-04-18T07:19:07.288Z</time></trkpt><trkpt lat="42.7272369" lon="13.6862889"><ele>394.0</ele><time>2026-04-18T07:19:08.291Z</time></trkpt><trkpt lat="42.7271267" lon="13.6862116"><ele>394.0</ele><time>2026-04-18T07:19:09.312Z</time></trkpt><trkpt lat="42.7270159" lon="13.6861393"><ele>394.0</ele><time>2026-04-18T07:19:10.331Z</time></trkpt><trkpt lat="42.7269144" lon="13.686091"><ele>393.2</ele><time>2026-04-18T07:19:11.277Z</time></trkpt><trkpt lat="42.7268181" lon="13.6860468"><ele>392.4</ele><time>2026-04-18T07:19:12.227Z</time></trkpt><trkpt lat="42.7267279" lon="13.6859766"><ele>391.6</ele><time>2026-04-18T07:19:13.271Z</time></trkpt><trkpt lat="42.7266492" lon="13.6858907"><ele>390.8</ele><time>2026-04-18T07:19:14.259Z</time></trkpt><trkpt lat="42.726583" lon="13.6857807"><ele>390.0</ele><time>2026-04-18T07:19:15.297Z</time></trkpt><trkpt lat="42.7265146" lon="13.6856692"><ele>390.0</ele><time>2026-04-18T07:19:16.292Z</time></trkpt><trkpt lat="42.7264415" lon="13.6855666"><ele>390.0</ele><time>2026-04-18T07:19:17.278Z</time></trkpt><trkpt lat="42.7263625" lon="13.6854691"><ele>390.0</ele><time>2026-04-18T07:19:18.279Z</time></trkpt><trkpt lat="42.7262958" lon="13.6853681"><ele>390.0</ele><time>2026-04-18T07:19:19.258Z</time></trkpt><trkpt lat="42.7262252" lon="13.6852403"><ele>390.0</ele><time>2026-04-18T07:19:20.423Z</time></trkpt><trkpt lat="42.7261158" lon="13.6850243"><ele>391.6</ele><time>2026-04-18T07:19:22.289Z</time></trkpt><trkpt lat="42.7260529" lon="13.6849144"><ele>393.2</ele><time>2026-04-18T07:19:23.318Z</time></trkpt><trkpt lat="42.7259887" lon="13.6848227"><ele>394.79999999999995</ele><time>2026-04-18T07:19:24.265Z</time></trkpt><trkpt lat="42.7259262" lon="13.6847237"><ele>396.4</ele><time>2026-04-18T07:19:25.291Z</time></trkpt><trkpt lat="42.7258406" lon="13.6846559"><ele>398.0</ele><time>2026-04-18T07:19:26.278Z</time></trkpt><trkpt lat="42.7257533" lon="13.6846279"><ele>398.0</ele><time>2026-04-18T07:19:27.282Z</time></trkpt><trkpt lat="42.7256175" lon="13.6846014"><ele>398.0</ele><time>2026-04-18T07:19:28.276Z</time></trkpt><trkpt lat="42.7255014" lon="13.6845725"><ele>398.0</ele><time>2026-04-18T07:19:29.254Z</time></trkpt><trkpt lat="42.7253765" lon="13.6845242"><ele>398.0</ele><time>2026-04-18T07:19:30.285Z</time></trkpt><trkpt lat="42.7252558" lon="13.6844569"><ele>395.75</ele><time>2026-04-18T07:19:31.272Z</time></trkpt><trkpt lat="42.7251373" lon="13.684376"><ele>393.5</ele><time>2026-04-18T07:19:32.253Z</time></trkpt><trkpt lat="42.7250166" lon="13.6842784"><ele>391.25</ele><time>2026-04-18T07:19:33.264Z</time></trkpt><trkpt lat="42.7248787" lon="13.6841705"><ele>389.0</ele><time>2026-04-18T07:19:34.377Z</time></trkpt><trkpt lat="42.7246465" lon="13.6839796"><ele>389.0</ele><time>2026-04-18T07:19:36.257Z</time></trkpt><trkpt lat="42.7245176" lon="13.6838719"><ele>389.0</ele><time>2026-04-18T07:19:37.31Z</time></trkpt><trkpt lat="42.7244056" lon="13.683779"><ele>389.0</ele><time>2026-04-18T07:19:38.244Z</time></trkpt><trkpt lat="42.7242824" lon="13.6836776"><ele>389.0</ele><time>2026-04-18T07:19:39.272Z</time></trkpt><trkpt lat="42.7241674" lon="13.6835704"><ele>386.0</ele><time>2026-04-18T07:19:40.255Z</time></trkpt><trkpt lat="42.7240491" lon="13.6834363"><ele>383.0</ele><time>2026-04-18T07:19:41.311Z</time></trkpt><trkpt lat="42.7239464" lon="13.6833009"><ele>380.0</ele><time>2026-04-18T07:19:42.262Z</time></trkpt><trkpt lat="42.7238409" lon="13.683155"><ele>377.0</ele><time>2026-04-18T07:19:43.263Z</time></trkpt><trkpt lat="42.7237336" lon="13.6830002"><ele>377.0</ele><time>2026-04-18T07:19:44.278Z</time></trkpt><trkpt lat="42.7236157" lon="13.6828266"><ele>377.0</ele><time>2026-04-18T07:19:45.396Z</time></trkpt><trkpt lat="42.7234334" lon="13.6825255"><ele>376.75</ele><time>2026-04-18T07:19:47.329Z</time></trkpt><trkpt lat="42.7233504" lon="13.6823762"><ele>376.5</ele><time>2026-04-18T07:19:48.277Z</time></trkpt><trkpt lat="42.7232627" lon="13.6822047"><ele>376.25</ele><time>2026-04-18T07:19:49.315Z</time></trkpt><trkpt lat="42.7231848" lon="13.6820352"><ele>376.0</ele><time>2026-04-18T07:19:50.32Z</time></trkpt><trkpt lat="42.7231095" lon="13.6818648"><ele>376.0</ele><time>2026-04-18T07:19:51.309Z</time></trkpt><trkpt lat="42.7230296" lon="13.6816877"><ele>376.0</ele><time>2026-04-18T07:19:52.317Z</time></trkpt><trkpt lat="42.7229495" lon="13.6815214"><ele>376.0</ele><time>2026-04-18T07:19:53.269Z</time></trkpt><trkpt lat="42.722856" lon="13.6813533"><ele>376.0</ele><time>2026-04-18T07:19:54.273Z</time></trkpt><trkpt lat="42.7227404" lon="13.6812024"><ele>376.0</ele><time>2026-04-18T07:19:55.291Z</time></trkpt><trkpt lat="42.7226096" lon="13.681086"><ele>376.0</ele><time>2026-04-18T07:19:56.261Z</time></trkpt><trkpt lat="42.7224499" lon="13.6809634"><ele>378.3333333333333</ele><time>2026-04-18T07:19:57.348Z</time></trkpt><trkpt lat="42.7223111" lon="13.6808382"><ele>380.6666666666667</ele><time>2026-04-18T07:19:58.327Z</time></trkpt><trkpt lat="42.7221891" lon="13.6806891"><ele>383.0</ele><time>2026-04-18T07:19:59.33Z</time></trkpt><trkpt lat="42.7220979" lon="13.680523"><ele>383.0</ele><time>2026-04-18T07:20:00.28Z</time></trkpt><trkpt lat="42.7220236" lon="13.6803324"><ele>383.0</ele><time>2026-04-18T07:20:01.304Z</time></trkpt><trkpt lat="42.7219766" lon="13.6801414"><ele>383.0</ele><time>2026-04-18T07:20:02.279Z</time></trkpt><trkpt lat="42.7219474" lon="13.6799354"><ele>382.25</ele><time>2026-04-18T07:20:03.293Z</time></trkpt><trkpt lat="42.7219369" lon="13.6797348"><ele>381.5</ele><time>2026-04-18T07:20:04.288Z</time></trkpt><trkpt lat="42.7219018" lon="13.6795316"><ele>380.75</ele><time>2026-04-18T07:20:05.34Z</time></trkpt><trkpt lat="42.7218561" lon="13.6793558"><ele>380.0</ele><time>2026-04-18T07:20:06.279Z</time></trkpt><trkpt lat="42.7218016" lon="13.6791594"><ele>386.33333333333337</ele><time>2026-04-18T07:20:07.299Z</time></trkpt><trkpt lat="42.7217449" lon="13.6789527"><ele>392.6666666666667</ele><time>2026-04-18T07:20:08.325Z</time></trkpt><trkpt lat="42.7217111" lon="13.6787581"><ele>399.0</ele><time>2026-04-18T07:20:09.27Z</time></trkpt><trkpt lat="42.7216828" lon="13.678537"><ele>401.33333333333337</ele><time>2026-04-18T07:20:10.302Z</time></trkpt><trkpt lat="42.7216698" lon="13.6783221"><ele>403.6666666666667</ele><time>2026-04-18T07:20:11.28Z</time></trkpt><trkpt lat="42.7216743" lon="13.678109"><ele>406.0</ele><time>2026-04-18T07:20:12.269Z</time></trkpt><trkpt lat="42.7217071" lon="13.6778945"><ele>408.25</ele><time>2026-04-18T07:20:13.266Z</time></trkpt><trkpt lat="42.7217458" lon="13.6776933"><ele>410.5</ele><time>2026-04-18T07:20:14.268Z</time></trkpt><trkpt lat="42.7217651" lon="13.677513"><ele>412.75</ele><time>2026-04-18T07:20:15.267Z</time></trkpt><trkpt lat="42.7217634" lon="13.6773388"><ele>415.0</ele><time>2026-04-18T07:20:16.281Z</time></trkpt><trkpt lat="42.7217106" lon="13.6769785"><ele>414.0</ele><time>2026-04-18T07:20:18.283Z</time></trkpt><trkpt lat="42.721661" lon="13.6767992"><ele>413.0</ele><time>2026-04-18T07:20:19.276Z</time></trkpt><trkpt lat="42.7216083" lon="13.6766276"><ele>412.0</ele><time>2026-04-18T07:20:20.258Z</time></trkpt><trkpt lat="42.7215472" lon="13.67643"><ele>411.0</ele><time>2026-04-18T07:20:21.305Z</time></trkpt><trkpt lat="42.7214919" lon="13.6762501"><ele>408.25</ele><time>2026-04-18T07:20:22.287Z</time></trkpt><trkpt lat="42.7214138" lon="13.67609"><ele>405.5</ele><time>2026-04-18T07:20:23.294Z</time></trkpt><trkpt lat="42.7213017" lon="13.6759627"><ele>402.75</ele><time>2026-04-18T07:20:24.282Z</time></trkpt><trkpt lat="42.7211721" lon="13.675848"><ele>400.0</ele><time>2026-04-18T07:20:25.293Z</time></trkpt><trkpt lat="42.7210327" lon="13.6757374"><ele>406.25</ele><time>2026-04-18T07:20:26.353Z</time></trkpt><trkpt lat="42.7209181" lon="13.6756601"><ele>412.5</ele><time>2026-04-18T07:20:27.271Z</time></trkpt><trkpt lat="42.7207993" lon="13.675586"><ele>418.75</ele><time>2026-04-18T07:20:28.298Z</time></trkpt><trkpt lat="42.7206826" lon="13.6755423"><ele>425.0</ele><time>2026-04-18T07:20:29.285Z</time></trkpt><trkpt lat="42.7205575" lon="13.6755216"><ele>425.0</ele><time>2026-04-18T07:20:30.307Z</time></trkpt><trkpt lat="42.7204124" lon="13.6755288"><ele>425.0</ele><time>2026-04-18T07:20:31.412Z</time></trkpt><trkpt lat="42.7201526" lon="13.6754987"><ele>425.0</ele><time>2026-04-18T07:20:33.262Z</time></trkpt><trkpt lat="42.7200313" lon="13.6754632"><ele>427.0</ele><time>2026-04-18T07:20:34.263Z</time></trkpt><trkpt lat="42.7199111" lon="13.6754619"><ele>429.0</ele><time>2026-04-18T07:20:35.254Z</time></trkpt><trkpt lat="42.7198054" lon="13.6755036"><ele>431.0</ele><time>2026-04-18T07:20:36.263Z</time></trkpt><trkpt lat="42.7197033" lon="13.6755718"><ele>433.0</ele><time>2026-04-18T07:20:37.263Z</time></trkpt><trkpt lat="42.7196025" lon="13.6755947"><ele>435.0</ele><time>2026-04-18T07:20:38.26Z</time></trkpt><trkpt lat="42.7194955" lon="13.6755588"><ele>436.0</ele><time>2026-04-18T07:20:39.277Z</time></trkpt><trkpt lat="42.7193993" lon="13.6754599"><ele>437.0</ele><time>2026-04-18T07:20:40.292Z</time></trkpt><trkpt lat="42.7193161" lon="13.675321"><ele>438.0</ele><time>2026-04-18T07:20:41.282Z</time></trkpt><trkpt lat="42.7192273" lon="13.6751414"><ele>439.0</ele><time>2026-04-18T07:20:42.274Z</time></trkpt><trkpt lat="42.7191364" lon="13.6749214"><ele>439.0</ele><time>2026-04-18T07:20:43.288Z</time></trkpt><trkpt lat="42.719041" lon="13.6746819"><ele>439.0</ele><time>2026-04-18T07:20:44.282Z</time></trkpt><trkpt lat="42.7189601" lon="13.67447"><ele>439.0</ele><time>2026-04-18T07:20:45.286Z</time></trkpt><trkpt lat="42.718881" lon="13.6742624"><ele>441.6666666666667</ele><time>2026-04-18T07:20:46.321Z</time></trkpt><trkpt lat="42.7188113" lon="13.6740758"><ele>444.33333333333337</ele><time>2026-04-18T07:20:47.286Z</time></trkpt><trkpt lat="42.7187399" lon="13.6738788"><ele>447.0</ele><time>2026-04-18T07:20:48.319Z</time></trkpt><trkpt lat="42.7186712" lon="13.6736954"><ele>447.66666666666663</ele><time>2026-04-18T07:20:49.285Z</time></trkpt><trkpt lat="42.7185979" lon="13.6735066"><ele>448.3333333333333</ele><time>2026-04-18T07:20:50.263Z</time></trkpt><trkpt lat="42.7185107" lon="13.6733016"><ele>449.0</ele><time>2026-04-18T07:20:51.295Z</time></trkpt><trkpt lat="42.7184203" lon="13.6730953"><ele>449.0</ele><time>2026-04-18T07:20:52.266Z</time></trkpt><trkpt lat="42.7183082" lon="13.6728449"><ele>449.0</ele><time>2026-04-18T07:20:53.357Z</time></trkpt><trkpt lat="42.7182129" lon="13.6726399"><ele>449.0</ele><time>2026-04-18T07:20:54.271Z</time></trkpt><trkpt lat="42.7181017" lon="13.6723996"><ele>450.0</ele><time>2026-04-18T07:20:55.322Z</time></trkpt><trkpt lat="42.7179959" lon="13.6721728"><ele>451.0</ele><time>2026-04-18T07:20:56.303Z</time></trkpt><trkpt lat="42.7178878" lon="13.6719444"><ele>452.0</ele><time>2026-04-18T07:20:57.299Z</time></trkpt><trkpt lat="42.7177744" lon="13.671691"><ele>454.5</ele><time>2026-04-18T07:20:58.378Z</time></trkpt><trkpt lat="42.7175841" lon="13.6712361"><ele>457.0</ele><time>2026-04-18T07:21:00.317Z</time></trkpt><trkpt lat="42.7174855" lon="13.6710097"><ele>457.6666666666667</ele><time>2026-04-18T07:21:01.299Z</time></trkpt><trkpt lat="42.7173862" lon="13.6707821"><ele>458.33333333333337</ele><time>2026-04-18T07:21:02.292Z</time></trkpt><trkpt lat="42.7172812" lon="13.6705472"><ele>459.0</ele><time>2026-04-18T07:21:03.298Z</time></trkpt><trkpt lat="42.7171803" lon="13.6703193"><ele>460.0</ele><time>2026-04-18T07:21:04.282Z</time></trkpt><trkpt lat="42.7170758" lon="13.670084"><ele>461.0</ele><time>2026-04-18T07:21:05.291Z</time></trkpt><trkpt lat="42.7169719" lon="13.6698496"><ele>462.0</ele><time>2026-04-18T07:21:06.289Z</time></trkpt><trkpt lat="42.716852" lon="13.6695801"><ele>464.0</ele><time>2026-04-18T07:21:07.438Z</time></trkpt><trkpt lat="42.7166536" lon="13.6691387"><ele>466.0</ele><time>2026-04-18T07:21:09.299Z</time></trkpt><trkpt lat="42.7165464" lon="13.6688916"><ele>466.0</ele><time>2026-04-18T07:21:10.326Z</time></trkpt><trkpt lat="42.7164521" lon="13.6686635"><ele>466.0</ele><time>2026-04-18T07:21:11.265Z</time></trkpt><trkpt lat="42.7163452" lon="13.668405"><ele>466.0</ele><time>2026-04-18T07:21:12.331Z</time></trkpt><trkpt lat="42.7162425" lon="13.668173"><ele>466.0</ele><time>2026-04-18T07:21:13.291Z</time></trkpt><trkpt lat="42.7161285" lon="13.6679241"><ele>466.0</ele><time>2026-04-18T07:21:14.323Z</time></trkpt><trkpt lat="42.716023" lon="13.6676881"><ele>466.0</ele><time>2026-04-18T07:21:15.294Z</time></trkpt><trkpt lat="42.7159174" lon="13.6674484"><ele>468.33333333333337</ele><time>2026-04-18T07:21:16.275Z</time></trkpt><trkpt lat="42.715808" lon="13.6672029"><ele>470.66666666666663</ele><time>2026-04-18T07:21:17.282Z</time></trkpt><trkpt lat="42.7156978" lon="13.6669614"><ele>473.0</ele><time>2026-04-18T07:21:18.282Z</time></trkpt><trkpt lat="42.7155813" lon="13.6667039"><ele>474.3333333333333</ele><time>2026-04-18T07:21:19.33Z</time></trkpt><trkpt lat="42.7154733" lon="13.6664576"><ele>475.66666666666663</ele><time>2026-04-18T07:21:20.294Z</time></trkpt><trkpt lat="42.7153567" lon="13.6661933"><ele>477.0</ele><time>2026-04-18T07:21:21.3Z</time></trkpt><trkpt lat="42.715243" lon="13.6659352"><ele>478.0</ele><time>2026-04-18T07:21:22.321Z</time></trkpt><trkpt lat="42.7151401" lon="13.6656973"><ele>479.0</ele><time>2026-04-18T07:21:23.316Z</time></trkpt><trkpt lat="42.7150422" lon="13.6654719"><ele>480.0</ele><time>2026-04-18T07:21:24.305Z</time></trkpt><trkpt lat="42.714944" lon="13.6652501"><ele>481.66666666666663</ele><time>2026-04-18T07:21:25.303Z</time></trkpt><trkpt lat="42.7148456" lon="13.6650286"><ele>483.3333333333333</ele><time>2026-04-18T07:21:26.315Z</time></trkpt><trkpt lat="42.7147485" lon="13.6648132"><ele>485.0</ele><time>2026-04-18T07:21:27.305Z</time></trkpt><trkpt lat="42.7146464" lon="13.6645798"><ele>485.3333333333333</ele><time>2026-04-18T07:21:28.374Z</time></trkpt><trkpt lat="42.71456" lon="13.6643779"><ele>485.66666666666663</ele><time>2026-04-18T07:21:29.287Z</time></trkpt><trkpt lat="42.7144609" lon="13.6641525"><ele>486.0</ele><time>2026-04-18T07:21:30.302Z</time></trkpt><trkpt lat="42.7143605" lon="13.6639235"><ele>486.33333333333337</ele><time>2026-04-18T07:21:31.319Z</time></trkpt><trkpt lat="42.7142646" lon="13.6637072"><ele>486.6666666666667</ele><time>2026-04-18T07:21:32.284Z</time></trkpt><trkpt lat="42.7141649" lon="13.663479"><ele>487.0</ele><time>2026-04-18T07:21:33.292Z</time></trkpt><trkpt lat="42.7140665" lon="13.6632578"><ele>488.33333333333337</ele><time>2026-04-18T07:21:34.275Z</time></trkpt><trkpt lat="42.7139671" lon="13.6630342"><ele>489.66666666666663</ele><time>2026-04-18T07:21:35.283Z</time></trkpt><trkpt lat="42.7138703" lon="13.6628172"><ele>491.0</ele><time>2026-04-18T07:21:36.267Z</time></trkpt><trkpt lat="42.7137749" lon="13.6625974"><ele>491.66666666666663</ele><time>2026-04-18T07:21:37.267Z</time></trkpt><trkpt lat="42.7136787" lon="13.6623739"><ele>492.33333333333337</ele><time>2026-04-18T07:21:38.284Z</time></trkpt><trkpt lat="42.7135758" lon="13.6621297"><ele>493.0</ele><time>2026-04-18T07:21:39.408Z</time></trkpt><trkpt lat="42.7133992" lon="13.6617369"><ele>494.6666666666667</ele><time>2026-04-18T07:21:41.276Z</time></trkpt><trkpt lat="42.7133065" lon="13.6615299"><ele>496.33333333333337</ele><time>2026-04-18T07:21:42.279Z</time></trkpt><trkpt lat="42.7132147" lon="13.6613225"><ele>498.0</ele><time>2026-04-18T07:21:43.326Z</time></trkpt><trkpt lat="42.7131351" lon="13.6611385"><ele>498.75</ele><time>2026-04-18T07:21:44.328Z</time></trkpt><trkpt lat="42.7130607" lon="13.6609673"><ele>499.5</ele><time>2026-04-18T07:21:45.339Z</time></trkpt><trkpt lat="42.7129921" lon="13.6608081"><ele>500.25</ele><time>2026-04-18T07:21:46.327Z</time></trkpt><trkpt lat="42.7129263" lon="13.6606601"><ele>501.0</ele><time>2026-04-18T07:21:47.318Z</time></trkpt><trkpt lat="42.7128554" lon="13.6605275"><ele>501.0</ele><time>2026-04-18T07:21:48.302Z</time></trkpt><trkpt lat="42.7127879" lon="13.6604287"><ele>501.0</ele><time>2026-04-18T07:21:49.291Z</time></trkpt><trkpt lat="42.7126897" lon="13.6603346"><ele>501.0</ele><time>2026-04-18T07:21:50.32Z</time></trkpt><trkpt lat="42.7125838" lon="13.6602785"><ele>501.0</ele><time>2026-04-18T07:21:51.302Z</time></trkpt><trkpt lat="42.7124888" lon="13.6602213"><ele>501.0</ele><time>2026-04-18T07:21:52.318Z</time></trkpt><trkpt lat="42.712423" lon="13.6601446"><ele>501.4</ele><time>2026-04-18T07:21:53.391Z</time></trkpt><trkpt lat="42.7123616" lon="13.6600251"><ele>501.8</ele><time>2026-04-18T07:21:55.284Z</time></trkpt><trkpt lat="42.7123413" lon="13.6598602"><ele>502.19999999999993</ele><time>2026-04-18T07:21:57.329Z</time></trkpt><trkpt lat="42.7123427" lon="13.6597539"><ele>502.59999999999997</ele><time>2026-04-18T07:21:58.292Z</time></trkpt><trkpt lat="42.7123663" lon="13.6596291"><ele>503.0</ele><time>2026-04-18T07:21:59.288Z</time></trkpt><trkpt lat="42.7124116" lon="13.6594916"><ele>503.59999999999997</ele><time>2026-04-18T07:22:00.35Z</time></trkpt><trkpt lat="42.7124533" lon="13.6593826"><ele>504.19999999999993</ele><time>2026-04-18T07:22:01.29Z</time></trkpt><trkpt lat="42.7124981" lon="13.659302"><ele>504.8</ele><time>2026-04-18T07:22:02.33Z</time></trkpt><trkpt lat="42.7125678" lon="13.6592647"><ele>505.4</ele><time>2026-04-18T07:22:03.339Z</time></trkpt><trkpt lat="42.7126971" lon="13.6592471"><ele>506.0</ele><time>2026-04-18T07:22:04.299Z</time></trkpt><trkpt lat="42.7128559" lon="13.6592603"><ele>506.0</ele><time>2026-04-18T07:22:05.289Z</time></trkpt><trkpt lat="42.7130591" lon="13.659304"><ele>506.0</ele><time>2026-04-18T07:22:06.326Z</time></trkpt><trkpt lat="42.7132197" lon="13.6593303"><ele>506.0</ele><time>2026-04-18T07:22:07.304Z</time></trkpt><trkpt lat="42.7134238" lon="13.659367"><ele>505.5</ele><time>2026-04-18T07:22:08.485Z</time></trkpt><trkpt lat="42.7137599" lon="13.6594327"><ele>505.0</ele><time>2026-04-18T07:22:10.306Z</time></trkpt><trkpt lat="42.7139509" lon="13.6594771"><ele>503.6666666666667</ele><time>2026-04-18T07:22:11.32Z</time></trkpt><trkpt lat="42.7141342" lon="13.6595187"><ele>502.33333333333337</ele><time>2026-04-18T07:22:12.275Z</time></trkpt><trkpt lat="42.7143293" lon="13.6595534"><ele>501.0</ele><time>2026-04-18T07:22:13.295Z</time></trkpt><trkpt lat="42.7145075" lon="13.6595789"><ele>500.0</ele><time>2026-04-18T07:22:14.274Z</time></trkpt><trkpt lat="42.7146844" lon="13.659605"><ele>499.0</ele><time>2026-04-18T07:22:15.27Z</time></trkpt><trkpt lat="42.7148634" lon="13.6596355"><ele>498.0</ele><time>2026-04-18T07:22:16.294Z</time></trkpt><trkpt lat="42.7150419" lon="13.6596656"><ele>498.0</ele><time>2026-04-18T07:22:17.288Z</time></trkpt><trkpt lat="42.7152325" lon="13.6596984"><ele>498.0</ele><time>2026-04-18T07:22:18.285Z</time></trkpt><trkpt lat="42.7154449" lon="13.6597275"><ele>498.0</ele><time>2026-04-18T07:22:19.331Z</time></trkpt><trkpt lat="42.715646" lon="13.6597569"><ele>495.0</ele><time>2026-04-18T07:22:20.306Z</time></trkpt><trkpt lat="42.7158556" lon="13.659785"><ele>492.0</ele><time>2026-04-18T07:22:21.282Z</time></trkpt><trkpt lat="42.7161021" lon="13.6598206"><ele>483.5</ele><time>2026-04-18T07:22:22.412Z</time></trkpt><trkpt lat="42.716505" lon="13.6598901"><ele>475.0</ele><time>2026-04-18T07:22:24.317Z</time></trkpt><trkpt lat="42.7167116" lon="13.6599303"><ele>479.0</ele><time>2026-04-18T07:22:25.34Z</time></trkpt><trkpt lat="42.7169084" lon="13.6599687"><ele>483.0</ele><time>2026-04-18T07:22:26.337Z</time></trkpt><trkpt lat="42.7170944" lon="13.6599991"><ele>487.0</ele><time>2026-04-18T07:22:27.31Z</time></trkpt><trkpt lat="42.7172913" lon="13.6600282"><ele>487.0</ele><time>2026-04-18T07:22:28.342Z</time></trkpt><trkpt lat="42.7174909" lon="13.6600625"><ele>487.0</ele><time>2026-04-18T07:22:29.401Z</time></trkpt><trkpt lat="42.717685" lon="13.660096"><ele>487.0</ele><time>2026-04-18T07:22:30.411Z</time></trkpt><trkpt lat="42.7178691" lon="13.6601259"><ele>486.6666666666667</ele><time>2026-04-18T07:22:31.357Z</time></trkpt><trkpt lat="42.7180576" lon="13.6601568"><ele>486.33333333333337</ele><time>2026-04-18T07:22:32.323Z</time></trkpt><trkpt lat="42.718247" lon="13.6601855"><ele>486.0</ele><time>2026-04-18T07:22:33.285Z</time></trkpt><trkpt lat="42.7184454" lon="13.6602112"><ele>485.0</ele><time>2026-04-18T07:22:34.299Z</time></trkpt><trkpt lat="42.7186472" lon="13.66024"><ele>484.0</ele><time>2026-04-18T07:22:35.344Z</time></trkpt><trkpt lat="42.7188342" lon="13.6602684"><ele>483.0</ele><time>2026-04-18T07:22:36.332Z</time></trkpt><trkpt lat="42.7190167" lon="13.6602982"><ele>484.0</ele><time>2026-04-18T07:22:37.324Z</time></trkpt><trkpt lat="42.719222" lon="13.6603299"><ele>485.0</ele><time>2026-04-18T07:22:38.459Z</time></trkpt><trkpt lat="42.7195443" lon="13.6604026"><ele>485.0</ele><time>2026-04-18T07:22:40.279Z</time></trkpt><trkpt lat="42.7197406" lon="13.6604686"><ele>485.0</ele><time>2026-04-18T07:22:41.43Z</time></trkpt><trkpt lat="42.7198958" lon="13.6605237"><ele>485.0</ele><time>2026-04-18T07:22:42.351Z</time></trkpt><trkpt lat="42.7200623" lon="13.660584"><ele>485.0</ele><time>2026-04-18T07:22:43.356Z</time></trkpt><trkpt lat="42.7202207" lon="13.6606381"><ele>485.0</ele><time>2026-04-18T07:22:44.296Z</time></trkpt><trkpt lat="42.7203969" lon="13.6606964"><ele>485.0</ele><time>2026-04-18T07:22:45.331Z</time></trkpt><trkpt lat="42.7205675" lon="13.6607527"><ele>485.0</ele><time>2026-04-18T07:22:46.328Z</time></trkpt><trkpt lat="42.7207332" lon="13.6608058"><ele>485.0</ele><time>2026-04-18T07:22:47.291Z</time></trkpt><trkpt lat="42.7209131" lon="13.6608632"><ele>485.0</ele><time>2026-04-18T07:22:48.348Z</time></trkpt><trkpt lat="42.7210733" lon="13.6609215"><ele>485.3333333333333</ele><time>2026-04-18T07:22:49.284Z</time></trkpt><trkpt lat="42.7212529" lon="13.6609927"><ele>485.66666666666663</ele><time>2026-04-18T07:22:50.372Z</time></trkpt><trkpt lat="42.7214099" lon="13.6610643"><ele>486.0</ele><time>2026-04-18T07:22:51.314Z</time></trkpt><trkpt lat="42.7215703" lon="13.6611489"><ele>485.33333333333337</ele><time>2026-04-18T07:22:52.281Z</time></trkpt><trkpt lat="42.7217322" lon="13.6612566"><ele>484.6666666666667</ele><time>2026-04-18T07:22:53.295Z</time></trkpt><trkpt lat="42.7218779" lon="13.6613814"><ele>484.0</ele><time>2026-04-18T07:22:54.295Z</time></trkpt><trkpt lat="42.7220183" lon="13.6615222"><ele>484.0</ele><time>2026-04-18T07:22:55.338Z</time></trkpt><trkpt lat="42.7221443" lon="13.6616524"><ele>484.0</ele><time>2026-04-18T07:22:56.301Z</time></trkpt><trkpt lat="42.7222737" lon="13.6617771"><ele>484.0</ele><time>2026-04-18T07:22:57.294Z</time></trkpt><trkpt lat="42.7224016" lon="13.6618937"><ele>482.0</ele><time>2026-04-18T07:22:58.312Z</time></trkpt><trkpt lat="42.722529" lon="13.661998"><ele>480.0</ele><time>2026-04-18T07:22:59.291Z</time></trkpt><trkpt lat="42.7226779" lon="13.6620828"><ele>478.0</ele><time>2026-04-18T07:23:00.298Z</time></trkpt><trkpt lat="42.7228404" lon="13.6621461"><ele>477.33333333333337</ele><time>2026-04-18T07:23:01.329Z</time></trkpt><trkpt lat="42.7230057" lon="13.6621875"><ele>476.66666666666663</ele><time>2026-04-18T07:23:02.295Z</time></trkpt><trkpt lat="42.7231905" lon="13.6622205"><ele>476.0</ele><time>2026-04-18T07:23:03.33Z</time></trkpt><trkpt lat="42.7233771" lon="13.6622515"><ele>475.3333333333333</ele><time>2026-04-18T07:23:04.329Z</time></trkpt><trkpt lat="42.7235707" lon="13.6622828"><ele>474.66666666666663</ele><time>2026-04-18T07:23:05.349Z</time></trkpt><trkpt lat="42.723748" lon="13.6623111"><ele>474.0</ele><time>2026-04-18T07:23:06.274Z</time></trkpt><trkpt lat="42.7239474" lon="13.6623417"><ele>474.0</ele><time>2026-04-18T07:23:07.331Z</time></trkpt><trkpt lat="42.7241339" lon="13.6623707"><ele>474.0</ele><time>2026-04-18T07:23:08.321Z</time></trkpt><trkpt lat="42.7243262" lon="13.6623996"><ele>474.0</ele><time>2026-04-18T07:23:09.322Z</time></trkpt><trkpt lat="42.7245187" lon="13.6624274"><ele>473.33333333333337</ele><time>2026-04-18T07:23:10.329Z</time></trkpt><trkpt lat="42.7247007" lon="13.6624516"><ele>472.6666666666667</ele><time>2026-04-18T07:23:11.279Z</time></trkpt><trkpt lat="42.724908" lon="13.6624819"><ele>472.0</ele><time>2026-04-18T07:23:12.34Z</time></trkpt><trkpt lat="42.7250894" lon="13.6625142"><ele>471.6666666666667</ele><time>2026-04-18T07:23:13.294Z</time></trkpt><trkpt lat="42.7252795" lon="13.6625557"><ele>471.33333333333337</ele><time>2026-04-18T07:23:14.324Z</time></trkpt><trkpt lat="42.7254525" lon="13.6625924"><ele>471.0</ele><time>2026-04-18T07:23:15.283Z</time></trkpt><trkpt lat="42.7256289" lon="13.6626254"><ele>471.0</ele><time>2026-04-18T07:23:16.282Z</time></trkpt><trkpt lat="42.7257974" lon="13.662653"><ele>471.0</ele><time>2026-04-18T07:23:17.296Z</time></trkpt><trkpt lat="42.7259515" lon="13.6626793"><ele>471.0</ele><time>2026-04-18T07:23:18.267Z</time></trkpt><trkpt lat="42.726122" lon="13.662707"><ele>470.66666666666663</ele><time>2026-04-18T07:23:19.346Z</time></trkpt><trkpt lat="42.7262733" lon="13.6627345"><ele>470.3333333333333</ele><time>2026-04-18T07:23:20.283Z</time></trkpt><trkpt lat="42.7264497" lon="13.6627688"><ele>470.0</ele><time>2026-04-18T07:23:21.387Z</time></trkpt><trkpt lat="42.7265957" lon="13.6627953"><ele>468.0</ele><time>2026-04-18T07:23:22.311Z</time></trkpt><trkpt lat="42.7267499" lon="13.6628202"><ele>466.0</ele><time>2026-04-18T07:23:23.298Z</time></trkpt><trkpt lat="42.7269072" lon="13.662838"><ele>464.0</ele><time>2026-04-18T07:23:24.279Z</time></trkpt><trkpt lat="42.727075" lon="13.6628625"><ele>464.0</ele><time>2026-04-18T07:23:25.317Z</time></trkpt><trkpt lat="42.7272335" lon="13.6628919"><ele>464.0</ele><time>2026-04-18T07:23:26.327Z</time></trkpt><trkpt lat="42.7273867" lon="13.6629254"><ele>464.0</ele><time>2026-04-18T07:23:27.309Z</time></trkpt><trkpt lat="42.7275422" lon="13.6629579"><ele>464.0</ele><time>2026-04-18T07:23:28.303Z</time></trkpt><trkpt lat="42.7276896" lon="13.6629817"><ele>464.0</ele><time>2026-04-18T07:23:29.273Z</time></trkpt><trkpt lat="42.7278411" lon="13.6629885"><ele>464.0</ele><time>2026-04-18T07:23:30.282Z</time></trkpt><trkpt lat="42.7279917" lon="13.6629836"><ele>462.66666666666663</ele><time>2026-04-18T07:23:31.274Z</time></trkpt><trkpt lat="42.7281408" lon="13.6629675"><ele>461.33333333333337</ele><time>2026-04-18T07:23:32.345Z</time></trkpt><trkpt lat="42.7282794" lon="13.6629525"><ele>460.0</ele><time>2026-04-18T07:23:33.28Z</time></trkpt><trkpt lat="42.7284456" lon="13.6629491"><ele>458.33333333333337</ele><time>2026-04-18T07:23:34.279Z</time></trkpt><trkpt lat="42.7286111" lon="13.662941"><ele>456.66666666666663</ele><time>2026-04-18T07:23:35.34Z</time></trkpt><trkpt lat="42.7287643" lon="13.6629399"><ele>455.0</ele><time>2026-04-18T07:23:36.287Z</time></trkpt><trkpt lat="42.7289234" lon="13.6629368"><ele>455.0</ele><time>2026-04-18T07:23:37.359Z</time></trkpt><trkpt lat="42.7290793" lon="13.6629294"><ele>455.0</ele><time>2026-04-18T07:23:38.412Z</time></trkpt><trkpt lat="42.7292296" lon="13.6629271"><ele>455.0</ele><time>2026-04-18T07:23:39.319Z</time></trkpt><trkpt lat="42.7293815" lon="13.662918"><ele>454.0</ele><time>2026-04-18T07:23:40.271Z</time></trkpt><trkpt lat="42.7295611" lon="13.6628948"><ele>453.0</ele><time>2026-04-18T07:23:41.325Z</time></trkpt><trkpt lat="42.729727" lon="13.6628325"><ele>452.0</ele><time>2026-04-18T07:23:42.328Z</time></trkpt><trkpt lat="42.7299" lon="13.6627653"><ele>453.3333333333333</ele><time>2026-04-18T07:23:43.365Z</time></trkpt><trkpt lat="42.7300572" lon="13.6627114"><ele>454.66666666666663</ele><time>2026-04-18T07:23:44.294Z</time></trkpt><trkpt lat="42.7302493" lon="13.6626601"><ele>456.0</ele><time>2026-04-18T07:23:45.314Z</time></trkpt><trkpt lat="42.7304357" lon="13.6626092"><ele>456.0</ele><time>2026-04-18T07:23:46.302Z</time></trkpt><trkpt lat="42.7306291" lon="13.6625565"><ele>456.0</ele><time>2026-04-18T07:23:47.3Z</time></trkpt><trkpt lat="42.7308214" lon="13.6625019"><ele>456.0</ele><time>2026-04-18T07:23:48.294Z</time></trkpt><trkpt lat="42.7310192" lon="13.6624306"><ele>455.33333333333337</ele><time>2026-04-18T07:23:49.315Z</time></trkpt><trkpt lat="42.7312023" lon="13.6623542"><ele>454.6666666666667</ele><time>2026-04-18T07:23:50.267Z</time></trkpt><trkpt lat="42.7314076" lon="13.6622744"><ele>454.0</ele><time>2026-04-18T07:23:51.323Z</time></trkpt><trkpt lat="42.7315978" lon="13.6622053"><ele>454.0</ele><time>2026-04-18T07:23:52.289Z</time></trkpt><trkpt lat="42.7318121" lon="13.6621351"><ele>454.0</ele><time>2026-04-18T07:23:53.358Z</time></trkpt><trkpt lat="42.7320289" lon="13.6620645"><ele>454.0</ele><time>2026-04-18T07:23:54.431Z</time></trkpt><trkpt lat="42.7324047" lon="13.6619413"><ele>454.33333333333337</ele><time>2026-04-18T07:23:56.285Z</time></trkpt><trkpt lat="42.7326" lon="13.6618698"><ele>454.66666666666663</ele><time>2026-04-18T07:23:57.294Z</time></trkpt><trkpt lat="42.7327913" lon="13.6618044"><ele>455.0</ele><time>2026-04-18T07:23:58.285Z</time></trkpt><trkpt lat="42.7329758" lon="13.6617421"><ele>450.66666666666663</ele><time>2026-04-18T07:23:59.297Z</time></trkpt><trkpt lat="42.7331524" lon="13.6616896"><ele>446.33333333333337</ele><time>2026-04-18T07:24:00.315Z</time></trkpt><trkpt lat="42.7333176" lon="13.6616456"><ele>442.0</ele><time>2026-04-18T07:24:01.296Z</time></trkpt><trkpt lat="42.7334756" lon="13.6616068"><ele>445.0</ele><time>2026-04-18T07:24:02.295Z</time></trkpt><trkpt lat="42.7336306" lon="13.6615729"><ele>448.0</ele><time>2026-04-18T07:24:03.312Z</time></trkpt><trkpt lat="42.733782" lon="13.6615401"><ele>451.0</ele><time>2026-04-18T07:24:04.34Z</time></trkpt><trkpt lat="42.7339243" lon="13.6615078"><ele>451.0</ele><time>2026-04-18T07:24:05.388Z</time></trkpt><trkpt lat="42.734039" lon="13.6614686"><ele>451.0</ele><time>2026-04-18T07:24:06.297Z</time></trkpt><trkpt lat="42.7341554" lon="13.6614092"><ele>451.0</ele><time>2026-04-18T07:24:07.294Z</time></trkpt><trkpt lat="42.7342662" lon="13.6613462"><ele>451.0</ele><time>2026-04-18T07:24:08.277Z</time></trkpt><trkpt lat="42.7343863" lon="13.6613101"><ele>453.0</ele><time>2026-04-18T07:24:09.287Z</time></trkpt><trkpt lat="42.7345131" lon="13.6613181"><ele>455.0</ele><time>2026-04-18T07:24:10.28Z</time></trkpt><trkpt lat="42.7346667" lon="13.6613494"><ele>457.0</ele><time>2026-04-18T07:24:11.294Z</time></trkpt><trkpt lat="42.7348506" lon="13.6613619"><ele>457.0</ele><time>2026-04-18T07:24:12.313Z</time></trkpt><trkpt lat="42.7350636" lon="13.6613388"><ele>457.0</ele><time>2026-04-18T07:24:13.307Z</time></trkpt><trkpt lat="42.7353142" lon="13.6613001"><ele>456.5</ele><time>2026-04-18T07:24:14.364Z</time></trkpt><trkpt lat="42.7355427" lon="13.661253"><ele>456.0</ele><time>2026-04-18T07:24:15.325Z</time></trkpt><trkpt lat="42.7357587" lon="13.6611948"><ele>455.5</ele><time>2026-04-18T07:24:16.274Z</time></trkpt><trkpt lat="42.7359681" lon="13.6610772"><ele>455.0</ele><time>2026-04-18T07:24:17.282Z</time></trkpt><trkpt lat="42.7361637" lon="13.6609197"><ele>455.0</ele><time>2026-04-18T07:24:18.277Z</time></trkpt><trkpt lat="42.7363355" lon="13.6607258"><ele>455.0</ele><time>2026-04-18T07:24:19.289Z</time></trkpt><trkpt lat="42.7364916" lon="13.6604892"><ele>458.3333333333333</ele><time>2026-04-18T07:24:20.324Z</time></trkpt><trkpt lat="42.7366079" lon="13.6602459"><ele>461.66666666666663</ele><time>2026-04-18T07:24:21.275Z</time></trkpt><trkpt lat="42.7367153" lon="13.6599773"><ele>465.0</ele><time>2026-04-18T07:24:22.287Z</time></trkpt><trkpt lat="42.7368264" lon="13.6597078"><ele>462.0</ele><time>2026-04-18T07:24:23.299Z</time></trkpt><trkpt lat="42.7369554" lon="13.659431"><ele>459.0</ele><time>2026-04-18T07:24:24.365Z</time></trkpt><trkpt lat="42.7370519" lon="13.6591889"><ele>456.0</ele><time>2026-04-18T07:24:25.28Z</time></trkpt><trkpt lat="42.7371584" lon="13.658923"><ele>456.0</ele><time>2026-04-18T07:24:26.281Z</time></trkpt><trkpt lat="42.7372699" lon="13.6586681"><ele>456.0</ele><time>2026-04-18T07:24:27.259Z</time></trkpt><trkpt lat="42.7373933" lon="13.6584123"><ele>456.0</ele><time>2026-04-18T07:24:28.298Z</time></trkpt><trkpt lat="42.7375208" lon="13.6581872"><ele>457.33333333333337</ele><time>2026-04-18T07:24:29.3Z</time></trkpt><trkpt lat="42.7376555" lon="13.6579802"><ele>458.6666666666667</ele><time>2026-04-18T07:24:30.266Z</time></trkpt><trkpt lat="42.7378199" lon="13.657761"><ele>460.0</ele><time>2026-04-18T07:24:31.377Z</time></trkpt><trkpt lat="42.7379642" lon="13.6575938"><ele>460.0</ele><time>2026-04-18T07:24:32.299Z</time></trkpt><trkpt lat="42.7381183" lon="13.6574182"><ele>460.0</ele><time>2026-04-18T07:24:33.265Z</time></trkpt><trkpt lat="42.7382789" lon="13.6572306"><ele>460.0</ele><time>2026-04-18T07:24:34.286Z</time></trkpt><trkpt lat="42.7384788" lon="13.6570005"><ele>461.5</ele><time>2026-04-18T07:24:35.537Z</time></trkpt><trkpt lat="42.7387401" lon="13.6566847"><ele>463.0</ele><time>2026-04-18T07:24:37.354Z</time></trkpt><trkpt lat="42.7388668" lon="13.6565336"><ele>463.0</ele><time>2026-04-18T07:24:38.298Z</time></trkpt><trkpt lat="42.7389944" lon="13.6563745"><ele>463.0</ele><time>2026-04-18T07:24:39.296Z</time></trkpt><trkpt lat="42.7391176" lon="13.6562277"><ele>463.0</ele><time>2026-04-18T07:24:40.295Z</time></trkpt><trkpt lat="42.739244" lon="13.6560968"><ele>462.0</ele><time>2026-04-18T07:24:41.278Z</time></trkpt><trkpt lat="42.7393835" lon="13.6559983"><ele>461.0</ele><time>2026-04-18T07:24:42.258Z</time></trkpt><trkpt lat="42.7395373" lon="13.6559377"><ele>460.0</ele><time>2026-04-18T07:24:43.295Z</time></trkpt><trkpt lat="42.7396938" lon="13.6559202"><ele>460.0</ele><time>2026-04-18T07:24:44.323Z</time></trkpt><trkpt lat="42.7398391" lon="13.6559231"><ele>460.0</ele><time>2026-04-18T07:24:45.28Z</time></trkpt><trkpt lat="42.7399889" lon="13.6559285"><ele>460.0</ele><time>2026-04-18T07:24:46.315Z</time></trkpt><trkpt lat="42.7401212" lon="13.6559317"><ele>460.0</ele><time>2026-04-18T07:24:47.302Z</time></trkpt><trkpt lat="42.7402384" lon="13.6559512"><ele>462.0</ele><time>2026-04-18T07:24:48.299Z</time></trkpt><trkpt lat="42.7403384" lon="13.656025"><ele>464.0</ele><time>2026-04-18T07:24:49.301Z</time></trkpt><trkpt lat="42.7404151" lon="13.6561402"><ele>466.0</ele><time>2026-04-18T07:24:50.291Z</time></trkpt><trkpt lat="42.7404772" lon="13.6562972"><ele>468.0</ele><time>2026-04-18T07:24:51.343Z</time></trkpt><trkpt lat="42.7405014" lon="13.6564579"><ele>470.0</ele><time>2026-04-18T07:24:52.285Z</time></trkpt><trkpt lat="42.7404904" lon="13.6566176"><ele>472.0</ele><time>2026-04-18T07:24:53.271Z</time></trkpt><trkpt lat="42.740433" lon="13.6567566"><ele>474.0</ele><time>2026-04-18T07:24:54.28Z</time></trkpt><trkpt lat="42.7403403" lon="13.6568896"><ele>476.0</ele><time>2026-04-18T07:24:55.312Z</time></trkpt><trkpt lat="42.7402432" lon="13.6569874"><ele>472.75</ele><time>2026-04-18T07:24:56.258Z</time></trkpt><trkpt lat="42.7401449" lon="13.6571056"><ele>469.5</ele><time>2026-04-18T07:24:57.272Z</time></trkpt><trkpt lat="42.740052" lon="13.657224"><ele>466.25</ele><time>2026-04-18T07:24:58.255Z</time></trkpt><trkpt lat="42.7399933" lon="13.6573538"><ele>463.0</ele><time>2026-04-18T07:24:59.263Z</time></trkpt><trkpt lat="42.7399752" lon="13.6575089"><ele>463.0</ele><time>2026-04-18T07:25:00.273Z</time></trkpt><trkpt lat="42.7400055" lon="13.6576679"><ele>463.0</ele><time>2026-04-18T07:25:01.287Z</time></trkpt><trkpt lat="42.7400706" lon="13.6578125"><ele>463.0</ele><time>2026-04-18T07:25:02.305Z</time></trkpt><trkpt lat="42.7401958" lon="13.6579464"><ele>463.0</ele><time>2026-04-18T07:25:03.391Z</time></trkpt><trkpt lat="42.7404709" lon="13.6580976"><ele>464.33333333333337</ele><time>2026-04-18T07:25:05.348Z</time></trkpt><trkpt lat="42.7406149" lon="13.6581198"><ele>465.66666666666663</ele><time>2026-04-18T07:25:06.289Z</time></trkpt><trkpt lat="42.7407801" lon="13.6581351"><ele>467.0</ele><time>2026-04-18T07:25:07.312Z</time></trkpt><trkpt lat="42.7409384" lon="13.6581284"><ele>468.0</ele><time>2026-04-18T07:25:08.293Z</time></trkpt><trkpt lat="42.741102" lon="13.6580761"><ele>469.0</ele><time>2026-04-18T07:25:09.306Z</time></trkpt><trkpt lat="42.741257" lon="13.6580216"><ele>470.0</ele><time>2026-04-18T07:25:10.337Z</time></trkpt><trkpt lat="42.741402" lon="13.6579918"><ele>470.0</ele><time>2026-04-18T07:25:11.323Z</time></trkpt><trkpt lat="42.7415358" lon="13.6580185"><ele>470.0</ele><time>2026-04-18T07:25:12.296Z</time></trkpt><trkpt lat="42.7416691" lon="13.6580998"><ele>470.0</ele><time>2026-04-18T07:25:13.328Z</time></trkpt><trkpt lat="42.7417815" lon="13.6582025"><ele>470.0</ele><time>2026-04-18T07:25:14.269Z</time></trkpt><trkpt lat="42.741894" lon="13.6583216"><ele>470.75</ele><time>2026-04-18T07:25:15.278Z</time></trkpt><trkpt lat="42.7420088" lon="13.6584422"><ele>471.5</ele><time>2026-04-18T07:25:16.284Z</time></trkpt><trkpt lat="42.7421264" lon="13.6585619"><ele>472.25</ele><time>2026-04-18T07:25:17.285Z</time></trkpt><trkpt lat="42.742234" lon="13.6586728"><ele>473.0</ele><time>2026-04-18T07:25:18.288Z</time></trkpt><trkpt lat="42.7423339" lon="13.6587728"><ele>473.0</ele><time>2026-04-18T07:25:19.288Z</time></trkpt><trkpt lat="42.742429" lon="13.6588592"><ele>472.99999999999994</ele><time>2026-04-18T07:25:20.281Z</time></trkpt><trkpt lat="42.7425289" lon="13.6589179"><ele>472.99999999999994</ele><time>2026-04-18T07:25:21.286Z</time></trkpt><trkpt lat="42.7426356" lon="13.6589264"><ele>473.0</ele><time>2026-04-18T07:25:22.291Z</time></trkpt><trkpt lat="42.742728" lon="13.658861"><ele>473.0</ele><time>2026-04-18T07:25:23.312Z</time></trkpt><trkpt lat="42.7427908" lon="13.6587492"><ele>472.5</ele><time>2026-04-18T07:25:24.321Z</time></trkpt><trkpt lat="42.742801" lon="13.6586067"><ele>472.0</ele><time>2026-04-18T07:25:25.298Z</time></trkpt><trkpt lat="42.7427852" lon="13.6584376"><ele>471.5</ele><time>2026-04-18T07:25:26.302Z</time></trkpt><trkpt lat="42.7427768" lon="13.6582207"><ele>471.0</ele><time>2026-04-18T07:25:27.305Z</time></trkpt><trkpt lat="42.7427758" lon="13.6579807"><ele>472.66666666666663</ele><time>2026-04-18T07:25:28.284Z</time></trkpt><trkpt lat="42.7427777" lon="13.6577046"><ele>474.3333333333333</ele><time>2026-04-18T07:25:29.279Z</time></trkpt><trkpt lat="42.742777" lon="13.6573922"><ele>476.0</ele><time>2026-04-18T07:25:30.31Z</time></trkpt><trkpt lat="42.742782" lon="13.6571214"><ele>478.0</ele><time>2026-04-18T07:25:31.317Z</time></trkpt><trkpt lat="42.7427979" lon="13.6568427"><ele>480.0</ele><time>2026-04-18T07:25:32.427Z</time></trkpt><trkpt lat="42.7428182" lon="13.6566306"><ele>482.0</ele><time>2026-04-18T07:25:33.336Z</time></trkpt><trkpt lat="42.7428441" lon="13.6564206"><ele>482.0</ele><time>2026-04-18T07:25:34.278Z</time></trkpt><trkpt lat="42.7428886" lon="13.6561961"><ele>482.0</ele><time>2026-04-18T07:25:35.37Z</time></trkpt><trkpt lat="42.7429408" lon="13.6560276"><ele>482.0</ele><time>2026-04-18T07:25:36.297Z</time></trkpt><trkpt lat="42.74302" lon="13.6558563"><ele>483.25</ele><time>2026-04-18T07:25:37.379Z</time></trkpt><trkpt lat="42.7431069" lon="13.6557397"><ele>484.5</ele><time>2026-04-18T07:25:38.28Z</time></trkpt><trkpt lat="42.7432252" lon="13.6556237"><ele>485.75</ele><time>2026-04-18T07:25:39.317Z</time></trkpt><trkpt lat="42.7433522" lon="13.6555452"><ele>487.0</ele><time>2026-04-18T07:25:40.302Z</time></trkpt><trkpt lat="42.7434911" lon="13.6555058"><ele>488.6666666666667</ele><time>2026-04-18T07:25:41.301Z</time></trkpt><trkpt lat="42.743641" lon="13.6554961"><ele>490.33333333333337</ele><time>2026-04-18T07:25:42.337Z</time></trkpt><trkpt lat="42.7437951" lon="13.6555155"><ele>492.0</ele><time>2026-04-18T07:25:43.301Z</time></trkpt><trkpt lat="42.7439507" lon="13.6555764"><ele>492.0</ele><time>2026-04-18T07:25:44.279Z</time></trkpt><trkpt lat="42.7441219" lon="13.6556509"><ele>492.0</ele><time>2026-04-18T07:25:45.292Z</time></trkpt><trkpt lat="42.7442823" lon="13.6557559"><ele>492.0</ele><time>2026-04-18T07:25:46.276Z</time></trkpt><trkpt lat="42.7444412" lon="13.6559034"><ele>492.66666666666663</ele><time>2026-04-18T07:25:47.326Z</time></trkpt><trkpt lat="42.7445661" lon="13.6560522"><ele>493.3333333333333</ele><time>2026-04-18T07:25:48.271Z</time></trkpt><trkpt lat="42.7446899" lon="13.6562164"><ele>494.0</ele><time>2026-04-18T07:25:49.313Z</time></trkpt><trkpt lat="42.7447919" lon="13.6563649"><ele>494.0</ele><time>2026-04-18T07:25:50.272Z</time></trkpt><trkpt lat="42.7448763" lon="13.6565345"><ele>494.0</ele><time>2026-04-18T07:25:51.3Z</time></trkpt><trkpt lat="42.7449255" lon="13.6567029"><ele>494.0</ele><time>2026-04-18T07:25:52.297Z</time></trkpt><trkpt lat="42.7449339" lon="13.656896"><ele>494.0</ele><time>2026-04-18T07:25:53.296Z</time></trkpt><trkpt lat="42.7449151" lon="13.65707"><ele>494.0</ele><time>2026-04-18T07:25:54.33Z</time></trkpt><trkpt lat="42.7448848" lon="13.6572342"><ele>494.0</ele><time>2026-04-18T07:25:55.428Z</time></trkpt><trkpt lat="42.7448778" lon="13.6574818"><ele>494.0</ele><time>2026-04-18T07:25:57.274Z</time></trkpt><trkpt lat="42.7449017" lon="13.6576047"><ele>494.0</ele><time>2026-04-18T07:25:58.304Z</time></trkpt><trkpt lat="42.7449791" lon="13.6577261"><ele>494.0</ele><time>2026-04-18T07:25:59.313Z</time></trkpt><trkpt lat="42.7450817" lon="13.6578185"><ele>494.0</ele><time>2026-04-18T07:26:00.298Z</time></trkpt><trkpt lat="42.7452266" lon="13.6579064"><ele>494.0</ele><time>2026-04-18T07:26:01.306Z</time></trkpt><trkpt lat="42.7453826" lon="13.6579553"><ele>494.0</ele><time>2026-04-18T07:26:02.282Z</time></trkpt><trkpt lat="42.7455407" lon="13.6579898"><ele>494.0</ele><time>2026-04-18T07:26:03.297Z</time></trkpt><trkpt lat="42.7456989" lon="13.6580218"><ele>494.0</ele><time>2026-04-18T07:26:04.304Z</time></trkpt><trkpt lat="42.7458585" lon="13.6580561"><ele>494.0</ele><time>2026-04-18T07:26:05.301Z</time></trkpt><trkpt lat="42.7460335" lon="13.6580869"><ele>492.66666666666663</ele><time>2026-04-18T07:26:06.428Z</time></trkpt><trkpt lat="42.7463133" lon="13.6580511"><ele>491.33333333333337</ele><time>2026-04-18T07:26:08.323Z</time></trkpt><trkpt lat="42.7464709" lon="13.6580055"><ele>490.0</ele><time>2026-04-18T07:26:09.378Z</time></trkpt><trkpt lat="42.7467146" lon="13.6577753"><ele>494.0</ele><time>2026-04-18T07:26:11.295Z</time></trkpt><trkpt lat="42.7468439" lon="13.6576776"><ele>498.0</ele><time>2026-04-18T07:26:12.395Z</time></trkpt><trkpt lat="42.7469725" lon="13.6576969"><ele>502.0</ele><time>2026-04-18T07:26:13.385Z</time></trkpt><trkpt lat="42.7471111" lon="13.6577261"><ele>506.0</ele><time>2026-04-18T07:26:14.311Z</time></trkpt><trkpt lat="42.7472529" lon="13.6577488"><ele>506.0</ele><time>2026-04-18T07:26:15.294Z</time></trkpt><trkpt lat="42.7473977" lon="13.6577422"><ele>506.0</ele><time>2026-04-18T07:26:16.279Z</time></trkpt><trkpt lat="42.7475353" lon="13.6577156"><ele>506.0</ele><time>2026-04-18T07:26:17.294Z</time></trkpt><trkpt lat="42.7476728" lon="13.6576834"><ele>506.0</ele><time>2026-04-18T07:26:18.385Z</time></trkpt><trkpt lat="42.7478957" lon="13.6577187"><ele>504.0</ele><time>2026-04-18T07:26:20.287Z</time></trkpt><trkpt lat="42.7479913" lon="13.6578143"><ele>502.0</ele><time>2026-04-18T07:26:21.301Z</time></trkpt><trkpt lat="42.7480559" lon="13.6579487"><ele>500.0</ele><time>2026-04-18T07:26:22.292Z</time></trkpt><trkpt lat="42.7481124" lon="13.6580938"><ele>498.0</ele><time>2026-04-18T07:26:23.402Z</time></trkpt><trkpt lat="42.7482558" lon="13.6582424"><ele>498.0</ele><time>2026-04-18T07:26:25.295Z</time></trkpt><trkpt lat="42.7483617" lon="13.6582597"><ele>498.0</ele><time>2026-04-18T07:26:26.286Z</time></trkpt><trkpt lat="42.7484668" lon="13.6582229"><ele>498.0</ele><time>2026-04-18T07:26:27.269Z</time></trkpt><trkpt lat="42.7485625" lon="13.6581065"><ele>498.0</ele><time>2026-04-18T07:26:28.439Z</time></trkpt><trkpt lat="42.7486939" lon="13.6578215"><ele>496.75</ele><time>2026-04-18T07:26:30.286Z</time></trkpt><trkpt lat="42.7487391" lon="13.6576443"><ele>495.5</ele><time>2026-04-18T07:26:31.295Z</time></trkpt><trkpt lat="42.7487781" lon="13.6574634"><ele>494.25</ele><time>2026-04-18T07:26:32.325Z</time></trkpt><trkpt lat="42.7488374" lon="13.6573031"><ele>493.0</ele><time>2026-04-18T07:26:33.317Z</time></trkpt><trkpt lat="42.7489216" lon="13.6571672"><ele>493.0</ele><time>2026-04-18T07:26:34.344Z</time></trkpt><trkpt lat="42.7490271" lon="13.6570792"><ele>493.0</ele><time>2026-04-18T07:26:35.299Z</time></trkpt><trkpt lat="42.7491499" lon="13.6569977"><ele>493.0</ele><time>2026-04-18T07:26:36.3Z</time></trkpt><trkpt lat="42.7492815" lon="13.6569115"><ele>493.0</ele><time>2026-04-18T07:26:37.292Z</time></trkpt><trkpt lat="42.7494179" lon="13.6568137"><ele>495.25</ele><time>2026-04-18T07:26:38.291Z</time></trkpt><trkpt lat="42.7495572" lon="13.6567128"><ele>497.5</ele><time>2026-04-18T07:26:39.315Z</time></trkpt><trkpt lat="42.7496858" lon="13.6566404"><ele>499.75</ele><time>2026-04-18T07:26:40.286Z</time></trkpt><trkpt lat="42.7498129" lon="13.6565798"><ele>502.0</ele><time>2026-04-18T07:26:41.266Z</time></trkpt><trkpt lat="42.7499331" lon="13.6565228"><ele>502.0</ele><time>2026-04-18T07:26:42.268Z</time></trkpt><trkpt lat="42.7500572" lon="13.6564846"><ele>502.0</ele><time>2026-04-18T07:26:43.301Z</time></trkpt><trkpt lat="42.7501731" lon="13.6564604"><ele>502.0</ele><time>2026-04-18T07:26:44.298Z</time></trkpt><trkpt lat="42.7502917" lon="13.6564682"><ele>502.0</ele><time>2026-04-18T07:26:45.393Z</time></trkpt><trkpt lat="42.7504641" lon="13.6566045"><ele>502.6</ele><time>2026-04-18T07:26:47.395Z</time></trkpt><trkpt lat="42.7505148" lon="13.656706"><ele>503.20000000000005</ele><time>2026-04-18T07:26:48.297Z</time></trkpt><trkpt lat="42.7505566" lon="13.6568369"><ele>503.8</ele><time>2026-04-18T07:26:49.313Z</time></trkpt><trkpt lat="42.7505737" lon="13.6569879"><ele>504.4</ele><time>2026-04-18T07:26:50.329Z</time></trkpt><trkpt lat="42.7505686" lon="13.6571484"><ele>505.0</ele><time>2026-04-18T07:26:51.319Z</time></trkpt><trkpt lat="42.7505451" lon="13.6573091"><ele>505.5</ele><time>2026-04-18T07:26:52.289Z</time></trkpt><trkpt lat="42.750511" lon="13.6574856"><ele>506.0</ele><time>2026-04-18T07:26:53.293Z</time></trkpt><trkpt lat="42.7504673" lon="13.6576694"><ele>506.5</ele><time>2026-04-18T07:26:54.311Z</time></trkpt><trkpt lat="42.7504316" lon="13.6578581"><ele>507.0</ele><time>2026-04-18T07:26:55.283Z</time></trkpt><trkpt lat="42.7503933" lon="13.6580672"><ele>508.33333333333337</ele><time>2026-04-18T07:26:56.31Z</time></trkpt><trkpt lat="42.7503611" lon="13.6582781"><ele>509.6666666666667</ele><time>2026-04-18T07:26:57.282Z</time></trkpt><trkpt lat="42.750338" lon="13.658504"><ele>511.0</ele><time>2026-04-18T07:26:58.304Z</time></trkpt><trkpt lat="42.7503274" lon="13.6587238"><ele>511.33333333333337</ele><time>2026-04-18T07:26:59.276Z</time></trkpt><trkpt lat="42.7503234" lon="13.6589436"><ele>511.66666666666663</ele><time>2026-04-18T07:27:00.297Z</time></trkpt><trkpt lat="42.750319" lon="13.6591468"><ele>512.0</ele><time>2026-04-18T07:27:01.28Z</time></trkpt><trkpt lat="42.7503257" lon="13.6593428"><ele>509.3333333333333</ele><time>2026-04-18T07:27:02.269Z</time></trkpt><trkpt lat="42.7503539" lon="13.6595614"><ele>506.66666666666663</ele><time>2026-04-18T07:27:03.41Z</time></trkpt><trkpt lat="42.7504679" lon="13.6598988"><ele>504.0</ele><time>2026-04-18T07:27:05.297Z</time></trkpt><trkpt lat="42.7505587" lon="13.6600602"><ele>504.0</ele><time>2026-04-18T07:27:06.329Z</time></trkpt><trkpt lat="42.7506677" lon="13.6601844"><ele>504.0</ele><time>2026-04-18T07:27:07.284Z</time></trkpt><trkpt lat="42.7507917" lon="13.6602883"><ele>504.0</ele><time>2026-04-18T07:27:08.261Z</time></trkpt><trkpt lat="42.7509368" lon="13.6603762"><ele>504.0</ele><time>2026-04-18T07:27:09.29Z</time></trkpt><trkpt lat="42.7510885" lon="13.6604598"><ele>503.66666666666663</ele><time>2026-04-18T07:27:10.292Z</time></trkpt><trkpt lat="42.7512364" lon="13.6605505"><ele>503.3333333333333</ele><time>2026-04-18T07:27:11.281Z</time></trkpt><trkpt lat="42.7513965" lon="13.6606435"><ele>503.0</ele><time>2026-04-18T07:27:12.382Z</time></trkpt><trkpt lat="42.7516508" lon="13.6607886"><ele>503.0</ele><time>2026-04-18T07:27:14.265Z</time></trkpt><trkpt lat="42.7517974" lon="13.6608814"><ele>503.0</ele><time>2026-04-18T07:27:15.388Z</time></trkpt><trkpt lat="42.7520204" lon="13.6610425"><ele>503.0</ele><time>2026-04-18T07:27:17.335Z</time></trkpt><trkpt lat="42.7521247" lon="13.6611296"><ele>502.0</ele><time>2026-04-18T07:27:18.318Z</time></trkpt><trkpt lat="42.7522292" lon="13.6612253"><ele>501.0</ele><time>2026-04-18T07:27:19.272Z</time></trkpt><trkpt lat="42.7523372" lon="13.6613442"><ele>500.0</ele><time>2026-04-18T07:27:20.28Z</time></trkpt><trkpt lat="42.7524334" lon="13.661489"><ele>499.0</ele><time>2026-04-18T07:27:21.283Z</time></trkpt><trkpt lat="42.7525146" lon="13.6616569"><ele>499.0</ele><time>2026-04-18T07:27:22.28Z</time></trkpt><trkpt lat="42.7525711" lon="13.6618606"><ele>499.0</ele><time>2026-04-18T07:27:23.352Z</time></trkpt><trkpt lat="42.7526109" lon="13.6620467"><ele>499.0</ele><time>2026-04-18T07:27:24.298Z</time></trkpt><trkpt lat="42.7526449" lon="13.6622509"><ele>498.33333333333337</ele><time>2026-04-18T07:27:25.329Z</time></trkpt><trkpt lat="42.7526702" lon="13.6624628"><ele>497.66666666666663</ele><time>2026-04-18T07:27:26.401Z</time></trkpt><trkpt lat="42.7526833" lon="13.6626402"><ele>497.0</ele><time>2026-04-18T07:27:27.304Z</time></trkpt><trkpt lat="42.7526935" lon="13.6628625"><ele>497.0</ele><time>2026-04-18T07:27:28.427Z</time></trkpt><trkpt lat="42.7526992" lon="13.663035"><ele>497.0</ele><time>2026-04-18T07:27:29.296Z</time></trkpt><trkpt lat="42.7527064" lon="13.6632281"><ele>497.0</ele><time>2026-04-18T07:27:30.292Z</time></trkpt><trkpt lat="42.7527178" lon="13.6634247"><ele>497.0</ele><time>2026-04-18T07:27:31.323Z</time></trkpt><trkpt lat="42.7527341" lon="13.663602"><ele>497.75</ele><time>2026-04-18T07:27:32.289Z</time></trkpt><trkpt lat="42.75276" lon="13.6637868"><ele>498.5</ele><time>2026-04-18T07:27:33.321Z</time></trkpt><trkpt lat="42.7527912" lon="13.6639566"><ele>499.25</ele><time>2026-04-18T07:27:34.27Z</time></trkpt><trkpt lat="42.752831" lon="13.664147"><ele>500.0</ele><time>2026-04-18T07:27:35.317Z</time></trkpt><trkpt lat="42.7528714" lon="13.6643269"><ele>498.75</ele><time>2026-04-18T07:27:36.312Z</time></trkpt><trkpt lat="42.7529226" lon="13.6645054"><ele>497.5</ele><time>2026-04-18T07:27:37.319Z</time></trkpt><trkpt lat="42.7529697" lon="13.664673"><ele>496.25</ele><time>2026-04-18T07:27:38.287Z</time></trkpt><trkpt lat="42.7530221" lon="13.6648413"><ele>495.0</ele><time>2026-04-18T07:27:39.302Z</time></trkpt><trkpt lat="42.7530776" lon="13.6649931"><ele>495.0</ele><time>2026-04-18T07:27:40.286Z</time></trkpt><trkpt lat="42.7531482" lon="13.6651377"><ele>495.0</ele><time>2026-04-18T07:27:41.332Z</time></trkpt><trkpt lat="42.7532436" lon="13.6652552"><ele>495.0</ele><time>2026-04-18T07:27:42.315Z</time></trkpt><trkpt lat="42.7533478" lon="13.6653623"><ele>495.0</ele><time>2026-04-18T07:27:43.301Z</time></trkpt><trkpt lat="42.7534603" lon="13.6654725"><ele>495.0</ele><time>2026-04-18T07:27:44.334Z</time></trkpt><trkpt lat="42.7535657" lon="13.665587"><ele>495.0</ele><time>2026-04-18T07:27:45.314Z</time></trkpt><trkpt lat="42.7536687" lon="13.6657158"><ele>495.0</ele><time>2026-04-18T07:27:46.3Z</time></trkpt><trkpt lat="42.7537674" lon="13.6658682"><ele>495.0</ele><time>2026-04-18T07:27:47.31Z</time></trkpt><trkpt lat="42.7538532" lon="13.6660433"><ele>494.33333333333337</ele><time>2026-04-18T07:27:48.299Z</time></trkpt><trkpt lat="42.7539347" lon="13.6662465"><ele>493.6666666666667</ele><time>2026-04-18T07:27:49.305Z</time></trkpt><trkpt lat="42.7540141" lon="13.666463"><ele>493.0</ele><time>2026-04-18T07:27:50.29Z</time></trkpt><trkpt lat="42.7541021" lon="13.6666996"><ele>493.0</ele><time>2026-04-18T07:27:51.345Z</time></trkpt><trkpt lat="42.7541984" lon="13.6669398"><ele>493.0</ele><time>2026-04-18T07:27:52.424Z</time></trkpt><trkpt lat="42.7543948" lon="13.6673356"><ele>493.33333333333337</ele><time>2026-04-18T07:27:54.3Z</time></trkpt><trkpt lat="42.7545016" lon="13.6675256"><ele>493.66666666666663</ele><time>2026-04-18T07:27:55.31Z</time></trkpt><trkpt lat="42.7546038" lon="13.6677048"><ele>494.0</ele><time>2026-04-18T07:27:56.317Z</time></trkpt><trkpt lat="42.7546998" lon="13.667873"><ele>492.75</ele><time>2026-04-18T07:27:57.323Z</time></trkpt><trkpt lat="42.7547873" lon="13.6680295"><ele>491.5</ele><time>2026-04-18T07:27:58.289Z</time></trkpt><trkpt lat="42.7548781" lon="13.6681915"><ele>490.25</ele><time>2026-04-18T07:27:59.331Z</time></trkpt><trkpt lat="42.7549577" lon="13.6683292"><ele>489.0</ele><time>2026-04-18T07:28:00.281Z</time></trkpt><trkpt lat="42.7550462" lon="13.6684635"><ele>489.0</ele><time>2026-04-18T07:28:01.298Z</time></trkpt><trkpt lat="42.7551355" lon="13.6685806"><ele>489.0</ele><time>2026-04-18T07:28:02.303Z</time></trkpt><trkpt lat="42.7552479" lon="13.6686798"><ele>489.0</ele><time>2026-04-18T07:28:03.438Z</time></trkpt><trkpt lat="42.7554663" lon="13.6687471"><ele>487.0</ele><time>2026-04-18T07:28:05.259Z</time></trkpt><trkpt lat="42.7555979" lon="13.6687698"><ele>485.0</ele><time>2026-04-18T07:28:06.309Z</time></trkpt><trkpt lat="42.755714" lon="13.6687673"><ele>483.0</ele><time>2026-04-18T07:28:07.298Z</time></trkpt><trkpt lat="42.7558252" lon="13.6687192"><ele>481.0</ele><time>2026-04-18T07:28:08.264Z</time></trkpt><trkpt lat="42.7559462" lon="13.668634"><ele>479.75</ele><time>2026-04-18T07:28:09.301Z</time></trkpt><trkpt lat="42.7560567" lon="13.6685155"><ele>478.5</ele><time>2026-04-18T07:28:10.313Z</time></trkpt><trkpt lat="42.7561591" lon="13.668377"><ele>477.25</ele><time>2026-04-18T07:28:11.295Z</time></trkpt><trkpt lat="42.7562516" lon="13.6682219"><ele>476.0</ele><time>2026-04-18T07:28:12.275Z</time></trkpt><trkpt lat="42.7563374" lon="13.6680396"><ele>476.0</ele><time>2026-04-18T07:28:13.295Z</time></trkpt><trkpt lat="42.7564123" lon="13.6678621"><ele>476.0</ele><time>2026-04-18T07:28:14.274Z</time></trkpt><trkpt lat="42.7564899" lon="13.667679"><ele>476.0</ele><time>2026-04-18T07:28:15.322Z</time></trkpt><trkpt lat="42.7565748" lon="13.6675281"><ele>476.0</ele><time>2026-04-18T07:28:16.293Z</time></trkpt><trkpt lat="42.7566887" lon="13.6674082"><ele>476.3333333333333</ele><time>2026-04-18T07:28:17.287Z</time></trkpt><trkpt lat="42.7568194" lon="13.667334"><ele>476.66666666666663</ele><time>2026-04-18T07:28:18.297Z</time></trkpt><trkpt lat="42.7569643" lon="13.6672914"><ele>477.0</ele><time>2026-04-18T07:28:19.283Z</time></trkpt><trkpt lat="42.7571263" lon="13.6672488"><ele>477.0</ele><time>2026-04-18T07:28:20.304Z</time></trkpt><trkpt lat="42.7572852" lon="13.6671942"><ele>477.0</ele><time>2026-04-18T07:28:21.291Z</time></trkpt><trkpt lat="42.7574498" lon="13.6671444"><ele>477.0</ele><time>2026-04-18T07:28:22.29Z</time></trkpt><trkpt lat="42.7576212" lon="13.6670963"><ele>474.66666666666663</ele><time>2026-04-18T07:28:23.277Z</time></trkpt><trkpt lat="42.7578002" lon="13.6670446"><ele>472.3333333333333</ele><time>2026-04-18T07:28:24.293Z</time></trkpt><trkpt lat="42.7579924" lon="13.6669875"><ele>470.0</ele><time>2026-04-18T07:28:25.344Z</time></trkpt><trkpt lat="42.7581628" lon="13.6669416"><ele>472.3333333333333</ele><time>2026-04-18T07:28:26.26Z</time></trkpt><trkpt lat="42.7583633" lon="13.6668921"><ele>474.66666666666663</ele><time>2026-04-18T07:28:27.313Z</time></trkpt><trkpt lat="42.7585512" lon="13.6668557"><ele>477.0</ele><time>2026-04-18T07:28:28.299Z</time></trkpt><trkpt lat="42.7587371" lon="13.6668185"><ele>477.0</ele><time>2026-04-18T07:28:29.282Z</time></trkpt><trkpt lat="42.7589246" lon="13.6667723"><ele>477.0</ele><time>2026-04-18T07:28:30.269Z</time></trkpt><trkpt lat="42.7591157" lon="13.6667254"><ele>477.0</ele><time>2026-04-18T07:28:31.272Z</time></trkpt><trkpt lat="42.7593092" lon="13.666684"><ele>473.33333333333337</ele><time>2026-04-18T07:28:32.29Z</time></trkpt><trkpt lat="42.7594988" lon="13.6666463"><ele>469.6666666666667</ele><time>2026-04-18T07:28:33.275Z</time></trkpt><trkpt lat="42.759692" lon="13.6665963"><ele>466.0</ele><time>2026-04-18T07:28:34.305Z</time></trkpt><trkpt lat="42.7598703" lon="13.6665446"><ele>466.0</ele><time>2026-04-18T07:28:35.265Z</time></trkpt><trkpt lat="42.760062" lon="13.6664827"><ele>466.0</ele><time>2026-04-18T07:28:36.29Z</time></trkpt><trkpt lat="42.7602447" lon="13.6664115"><ele>466.0</ele><time>2026-04-18T07:28:37.283Z</time></trkpt><trkpt lat="42.7604199" lon="13.6663334"><ele>463.0</ele><time>2026-04-18T07:28:38.272Z</time></trkpt><trkpt lat="42.7605877" lon="13.666244"><ele>460.0</ele><time>2026-04-18T07:28:39.255Z</time></trkpt><trkpt lat="42.7607586" lon="13.6661594"><ele>457.0</ele><time>2026-04-18T07:28:40.26Z</time></trkpt><trkpt lat="42.7609297" lon="13.6660734"><ele>458.0</ele><time>2026-04-18T07:28:41.274Z</time></trkpt><trkpt lat="42.7610899" lon="13.6659833"><ele>459.0</ele><time>2026-04-18T07:28:42.255Z</time></trkpt><trkpt lat="42.7612479" lon="13.6658576"><ele>460.0</ele><time>2026-04-18T07:28:43.272Z</time></trkpt><trkpt lat="42.7613875" lon="13.6656889"><ele>460.0</ele><time>2026-04-18T07:28:44.268Z</time></trkpt><trkpt lat="42.76153" lon="13.6654731"><ele>460.0</ele><time>2026-04-18T07:28:45.27Z</time></trkpt><trkpt lat="42.7616825" lon="13.6652346"><ele>460.0</ele><time>2026-04-18T07:28:46.288Z</time></trkpt><trkpt lat="42.7618326" lon="13.6650099"><ele>455.6666666666667</ele><time>2026-04-18T07:28:47.294Z</time></trkpt><trkpt lat="42.761992" lon="13.664792"><ele>451.33333333333337</ele><time>2026-04-18T07:28:48.366Z</time></trkpt><trkpt lat="42.7621347" lon="13.6646162"><ele>447.0</ele><time>2026-04-18T07:28:49.323Z</time></trkpt><trkpt lat="42.7622722" lon="13.6644512"><ele>446.33333333333337</ele><time>2026-04-18T07:28:50.291Z</time></trkpt><trkpt lat="42.7624196" lon="13.6643081"><ele>445.6666666666667</ele><time>2026-04-18T07:28:51.274Z</time></trkpt><trkpt lat="42.7625665" lon="13.6641361"><ele>445.0</ele><time>2026-04-18T07:28:52.355Z</time></trkpt><trkpt lat="42.76272" lon="13.6639309"><ele>443.5</ele><time>2026-04-18T07:28:53.548Z</time></trkpt><trkpt lat="42.762865" lon="13.663526"><ele>442.0</ele><time>2026-04-18T07:28:55.346Z</time></trkpt><trkpt lat="42.7629087" lon="13.6632701"><ele>442.0</ele><time>2026-04-18T07:28:56.286Z</time></trkpt><trkpt lat="42.7629751" lon="13.6630088"><ele>442.0</ele><time>2026-04-18T07:28:57.285Z</time></trkpt><trkpt lat="42.7630627" lon="13.6627525"><ele>442.0</ele><time>2026-04-18T07:28:58.354Z</time></trkpt><trkpt lat="42.7631538" lon="13.6625266"><ele>443.6666666666667</ele><time>2026-04-18T07:28:59.395Z</time></trkpt><trkpt lat="42.7632325" lon="13.6623208"><ele>445.33333333333337</ele><time>2026-04-18T07:29:00.398Z</time></trkpt><trkpt lat="42.763302" lon="13.6621451"><ele>447.0</ele><time>2026-04-18T07:29:01.31Z</time></trkpt><trkpt lat="42.7633862" lon="13.6619532"><ele>445.75</ele><time>2026-04-18T07:29:02.342Z</time></trkpt><trkpt lat="42.7634646" lon="13.661793"><ele>444.5</ele><time>2026-04-18T07:29:03.332Z</time></trkpt><trkpt lat="42.7635632" lon="13.6616613"><ele>443.25</ele><time>2026-04-18T07:29:04.324Z</time></trkpt><trkpt lat="42.7636668" lon="13.6615886"><ele>442.0</ele><time>2026-04-18T07:29:05.286Z</time></trkpt><trkpt lat="42.7638001" lon="13.6615454"><ele>442.0</ele><time>2026-04-18T07:29:06.267Z</time></trkpt><trkpt lat="42.7639752" lon="13.6615792"><ele>442.0</ele><time>2026-04-18T07:29:07.32Z</time></trkpt><trkpt lat="42.7641516" lon="13.6616778"><ele>442.0</ele><time>2026-04-18T07:29:08.289Z</time></trkpt><trkpt lat="42.7643494" lon="13.6617945"><ele>439.33333333333337</ele><time>2026-04-18T07:29:09.301Z</time></trkpt><trkpt lat="42.764505" lon="13.6618858"><ele>436.66666666666663</ele><time>2026-04-18T07:29:10.281Z</time></trkpt><trkpt lat="42.7646511" lon="13.6619561"><ele>434.0</ele><time>2026-04-18T07:29:11.291Z</time></trkpt><trkpt lat="42.7648063" lon="13.6619869"><ele>434.0</ele><time>2026-04-18T07:29:12.327Z</time></trkpt><trkpt lat="42.7649516" lon="13.6619645"><ele>434.0</ele><time>2026-04-18T07:29:13.308Z</time></trkpt><trkpt lat="42.7650823" lon="13.6619159"><ele>434.0</ele><time>2026-04-18T07:29:14.242Z</time></trkpt><trkpt lat="42.7652314" lon="13.6618423"><ele>434.0</ele><time>2026-04-18T07:29:15.289Z</time></trkpt><trkpt lat="42.7653682" lon="13.6617671"><ele>431.0</ele><time>2026-04-18T07:29:16.297Z</time></trkpt><trkpt lat="42.7654989" lon="13.6616813"><ele>428.0</ele><time>2026-04-18T07:29:17.282Z</time></trkpt><trkpt lat="42.7656156" lon="13.6615649"><ele>425.0</ele><time>2026-04-18T07:29:18.279Z</time></trkpt><trkpt lat="42.7657134" lon="13.6614151"><ele>422.0</ele><time>2026-04-18T07:29:19.277Z</time></trkpt><trkpt lat="42.7657878" lon="13.6612461"><ele>420.3333333333333</ele><time>2026-04-18T07:29:20.279Z</time></trkpt><trkpt lat="42.7658683" lon="13.6610799"><ele>418.66666666666663</ele><time>2026-04-18T07:29:21.302Z</time></trkpt><trkpt lat="42.7659954" lon="13.6609361"><ele>417.0</ele><time>2026-04-18T07:29:22.445Z</time></trkpt><trkpt lat="42.7662555" lon="13.6607722"><ele>417.0</ele><time>2026-04-18T07:29:24.291Z</time></trkpt><trkpt lat="42.7664102" lon="13.6607046"><ele>417.0</ele><time>2026-04-18T07:29:25.276Z</time></trkpt><trkpt lat="42.7665552" lon="13.6606425"><ele>417.0</ele><time>2026-04-18T07:29:26.251Z</time></trkpt><trkpt lat="42.7667102" lon="13.6605874"><ele>417.0</ele><time>2026-04-18T07:29:27.28Z</time></trkpt><trkpt lat="42.7668606" lon="13.660569"><ele>417.0</ele><time>2026-04-18T07:29:28.292Z</time></trkpt><trkpt lat="42.7670079" lon="13.6605899"><ele>417.0</ele><time>2026-04-18T07:29:29.287Z</time></trkpt><trkpt lat="42.7671651" lon="13.6606305"><ele>414.5</ele><time>2026-04-18T07:29:30.319Z</time></trkpt><trkpt lat="42.7673078" lon="13.6606738"><ele>412.0</ele><time>2026-04-18T07:29:31.29Z</time></trkpt><trkpt lat="42.7674567" lon="13.6607113"><ele>409.5</ele><time>2026-04-18T07:29:32.341Z</time></trkpt><trkpt lat="42.7675901" lon="13.6607442"><ele>407.0</ele><time>2026-04-18T07:29:33.296Z</time></trkpt><trkpt lat="42.7677273" lon="13.6607771"><ele>407.0</ele><time>2026-04-18T07:29:34.296Z</time></trkpt><trkpt lat="42.7678554" lon="13.660818"><ele>407.0</ele><time>2026-04-18T07:29:35.289Z</time></trkpt><trkpt lat="42.767965" lon="13.6608516"><ele>407.0</ele><time>2026-04-18T07:29:36.295Z</time></trkpt><trkpt lat="42.7680606" lon="13.6608702"><ele>407.0</ele><time>2026-04-18T07:29:37.308Z</time></trkpt><trkpt lat="42.7681472" lon="13.6608501"><ele>407.0</ele><time>2026-04-18T07:29:38.284Z</time></trkpt><trkpt lat="42.768218" lon="13.6607812"><ele>407.0</ele><time>2026-04-18T07:29:39.287Z</time></trkpt><trkpt lat="42.7682529" lon="13.6606805"><ele>407.0</ele><time>2026-04-18T07:29:40.283Z</time></trkpt><trkpt lat="42.7682442" lon="13.6605634"><ele>407.0</ele><time>2026-04-18T07:29:41.304Z</time></trkpt><trkpt lat="42.7681942" lon="13.6604673"><ele>407.0</ele><time>2026-04-18T07:29:42.301Z</time></trkpt><trkpt lat="42.7681053" lon="13.6604115"><ele>407.0</ele><time>2026-04-18T07:29:43.329Z</time></trkpt><trkpt lat="42.7680014" lon="13.6603992"><ele>407.0</ele><time>2026-04-18T07:29:44.287Z</time></trkpt><trkpt lat="42.7678773" lon="13.6604095"><ele>407.0</ele><time>2026-04-18T07:29:45.308Z</time></trkpt><trkpt lat="42.7677503" lon="13.660425"><ele>407.0</ele><time>2026-04-18T07:29:46.275Z</time></trkpt><trkpt lat="42.7676103" lon="13.6604424"><ele>407.0</ele><time>2026-04-18T07:29:47.27Z</time></trkpt><trkpt lat="42.7674461" lon="13.660457"><ele>407.0</ele><time>2026-04-18T07:29:48.386Z</time></trkpt><trkpt lat="42.7672201" lon="13.6604335"><ele>407.0</ele><time>2026-04-18T07:29:50.128Z</time></trkpt><trkpt lat="42.7669695" lon="13.6603224"><ele>405.25</ele><time>2026-04-18T07:29:51.988Z</time></trkpt><trkpt lat="42.7668811" lon="13.6602148"><ele>403.5</ele><time>2026-04-18T07:29:52.987Z</time></trkpt><trkpt lat="42.7667906" lon="13.6600684"><ele>401.75</ele><time>2026-04-18T07:29:53.987Z</time></trkpt><trkpt lat="42.7666877" lon="13.6598814"><ele>400.0</ele><time>2026-04-18T07:29:55.28Z</time></trkpt><trkpt lat="42.7665942" lon="13.6597001"><ele>398.6666666666667</ele><time>2026-04-18T07:29:56.247Z</time></trkpt><trkpt lat="42.766499" lon="13.6595204"><ele>397.33333333333337</ele><time>2026-04-18T07:29:57.253Z</time></trkpt><trkpt lat="42.7664117" lon="13.659343"><ele>396.0</ele><time>2026-04-18T07:29:58.26Z</time></trkpt><trkpt lat="42.7663167" lon="13.6591632"><ele>396.0</ele><time>2026-04-18T07:29:59.376Z</time></trkpt><trkpt lat="42.7661704" lon="13.6588793"><ele>396.0</ele><time>2026-04-18T07:30:01.262Z</time></trkpt><trkpt lat="42.7661066" lon="13.6587382"><ele>396.0</ele><time>2026-04-18T07:30:02.275Z</time></trkpt><trkpt lat="42.7660593" lon="13.6585988"><ele>395.0</ele><time>2026-04-18T07:30:03.263Z</time></trkpt><trkpt lat="42.7660411" lon="13.6584531"><ele>394.0</ele><time>2026-04-18T07:30:04.253Z</time></trkpt><trkpt lat="42.7660279" lon="13.6583061"><ele>393.0</ele><time>2026-04-18T07:30:05.253Z</time></trkpt><trkpt lat="42.7660493" lon="13.6581729"><ele>392.0</ele><time>2026-04-18T07:30:06.357Z</time></trkpt><trkpt lat="42.7661748" lon="13.6581322"><ele>391.0</ele><time>2026-04-18T07:30:07.268Z</time></trkpt><trkpt lat="42.7663385" lon="13.658082"><ele>391.0</ele><time>2026-04-18T07:30:08.3Z</time></trkpt><trkpt lat="42.7664799" lon="13.658005"><ele>391.0</ele><time>2026-04-18T07:30:09.272Z</time></trkpt><trkpt lat="42.7666275" lon="13.6579185"><ele>391.0</ele><time>2026-04-18T07:30:10.279Z</time></trkpt><trkpt lat="42.7667795" lon="13.6578444"><ele>396.75</ele><time>2026-04-18T07:30:11.275Z</time></trkpt><trkpt lat="42.7669318" lon="13.6577564"><ele>402.5</ele><time>2026-04-18T07:30:12.349Z</time></trkpt><trkpt lat="42.7670601" lon="13.6577134"><ele>408.25</ele><time>2026-04-18T07:30:13.267Z</time></trkpt><trkpt lat="42.7672013" lon="13.6577051"><ele>414.0</ele><time>2026-04-18T07:30:14.256Z</time></trkpt><trkpt lat="42.7673465" lon="13.6577482"><ele>410.33333333333337</ele><time>2026-04-18T07:30:15.285Z</time></trkpt><trkpt lat="42.7674932" lon="13.657814"><ele>406.6666666666667</ele><time>2026-04-18T07:30:16.294Z</time></trkpt><trkpt lat="42.767649" lon="13.6578727"><ele>403.0</ele><time>2026-04-18T07:30:17.294Z</time></trkpt><trkpt lat="42.7678123" lon="13.6579356"><ele>403.0</ele><time>2026-04-18T07:30:18.297Z</time></trkpt><trkpt lat="42.7679679" lon="13.6580004"><ele>403.0</ele><time>2026-04-18T07:30:19.26Z</time></trkpt><trkpt lat="42.7681103" lon="13.658059"><ele>403.0</ele><time>2026-04-18T07:30:20.275Z</time></trkpt><trkpt lat="42.768243" lon="13.6581077"><ele>403.0</ele><time>2026-04-18T07:30:21.275Z</time></trkpt><trkpt lat="42.7683742" lon="13.6581108"><ele>403.0</ele><time>2026-04-18T07:30:22.284Z</time></trkpt><trkpt lat="42.7685127" lon="13.6580523"><ele>403.0</ele><time>2026-04-18T07:30:23.317Z</time></trkpt><trkpt lat="42.7686402" lon="13.6579774"><ele>403.0</ele><time>2026-04-18T07:30:24.253Z</time></trkpt><trkpt lat="42.7687803" lon="13.6578974"><ele>403.0</ele><time>2026-04-18T07:30:25.3Z</time></trkpt><trkpt lat="42.7688959" lon="13.6578393"><ele>404.0</ele><time>2026-04-18T07:30:26.266Z</time></trkpt><trkpt lat="42.7690038" lon="13.6577823"><ele>405.0</ele><time>2026-04-18T07:30:27.284Z</time></trkpt><trkpt lat="42.769093" lon="13.6577098"><ele>406.0</ele><time>2026-04-18T07:30:28.265Z</time></trkpt><trkpt lat="42.7691561" lon="13.6576043"><ele>407.0</ele><time>2026-04-18T07:30:29.283Z</time></trkpt><trkpt lat="42.7691795" lon="13.6574731"><ele>408.0</ele><time>2026-04-18T07:30:30.294Z</time></trkpt><trkpt lat="42.7691579" lon="13.6573302"><ele>408.0</ele><time>2026-04-18T07:30:31.267Z</time></trkpt><trkpt lat="42.7690988" lon="13.657174"><ele>408.0</ele><time>2026-04-18T07:30:32.294Z</time></trkpt><trkpt lat="42.7690218" lon="13.6570114"><ele>408.0</ele><time>2026-04-18T07:30:33.282Z</time></trkpt><trkpt lat="42.7689374" lon="13.6568453"><ele>408.0</ele><time>2026-04-18T07:30:34.289Z</time></trkpt><trkpt lat="42.7688448" lon="13.6566638"><ele>410.66666666666663</ele><time>2026-04-18T07:30:35.257Z</time></trkpt><trkpt lat="42.768742" lon="13.656454"><ele>413.3333333333333</ele><time>2026-04-18T07:30:36.284Z</time></trkpt><trkpt lat="42.7686462" lon="13.6562531"><ele>416.0</ele><time>2026-04-18T07:30:37.287Z</time></trkpt><trkpt lat="42.7685354" lon="13.6560523"><ele>418.66666666666663</ele><time>2026-04-18T07:30:38.298Z</time></trkpt><trkpt lat="42.7684039" lon="13.6558841"><ele>421.33333333333337</ele><time>2026-04-18T07:30:39.302Z</time></trkpt><trkpt lat="42.7682556" lon="13.6557503"><ele>424.0</ele><time>2026-04-18T07:30:40.271Z</time></trkpt><trkpt lat="42.7681014" lon="13.6556154"><ele>424.0</ele><time>2026-04-18T07:30:41.308Z</time></trkpt><trkpt lat="42.7679836" lon="13.6554753"><ele>424.0</ele><time>2026-04-18T07:30:42.268Z</time></trkpt><trkpt lat="42.7678873" lon="13.6552989"><ele>424.0</ele><time>2026-04-18T07:30:43.304Z</time></trkpt><trkpt lat="42.7678054" lon="13.6551314"><ele>425.6666666666667</ele><time>2026-04-18T07:30:44.276Z</time></trkpt><trkpt lat="42.7677023" lon="13.6549665"><ele>427.33333333333337</ele><time>2026-04-18T07:30:45.328Z</time></trkpt><trkpt lat="42.7675797" lon="13.6548498"><ele>429.0</ele><time>2026-04-18T07:30:46.331Z</time></trkpt><trkpt lat="42.7674378" lon="13.6547914"><ele>430.0</ele><time>2026-04-18T07:30:47.306Z</time></trkpt><trkpt lat="42.7672667" lon="13.6547695"><ele>431.0</ele><time>2026-04-18T07:30:48.363Z</time></trkpt><trkpt lat="42.7671189" lon="13.6547411"><ele>432.0</ele><time>2026-04-18T07:30:49.293Z</time></trkpt><trkpt lat="42.7669765" lon="13.6546998"><ele>433.0</ele><time>2026-04-18T07:30:50.307Z</time></trkpt><trkpt lat="42.7668458" lon="13.6546415"><ele>434.0</ele><time>2026-04-18T07:30:51.287Z</time></trkpt><trkpt lat="42.7667215" lon="13.6545467"><ele>435.0</ele><time>2026-04-18T07:30:52.284Z</time></trkpt><trkpt lat="42.766612" lon="13.6544376"><ele>436.0</ele><time>2026-04-18T07:30:53.292Z</time></trkpt><trkpt lat="42.7665187" lon="13.6543416"><ele>436.8</ele><time>2026-04-18T07:30:54.276Z</time></trkpt><trkpt lat="42.7664358" lon="13.6542387"><ele>437.6</ele><time>2026-04-18T07:30:55.29Z</time></trkpt><trkpt lat="42.7663697" lon="13.6541183"><ele>438.4</ele><time>2026-04-18T07:30:56.336Z</time></trkpt><trkpt lat="42.7663231" lon="13.6540069"><ele>439.2</ele><time>2026-04-18T07:30:57.316Z</time></trkpt><trkpt lat="42.7662866" lon="13.653878"><ele>440.0</ele><time>2026-04-18T07:30:58.271Z</time></trkpt><trkpt lat="42.7662773" lon="13.6537394"><ele>440.8</ele><time>2026-04-18T07:30:59.276Z</time></trkpt><trkpt lat="42.7663076" lon="13.6536144"><ele>441.6</ele><time>2026-04-18T07:31:00.285Z</time></trkpt><trkpt lat="42.7663343" lon="13.6535182"><ele>442.4</ele><time>2026-04-18T07:31:01.314Z</time></trkpt><trkpt lat="42.7663919" lon="13.6534238"><ele>443.2</ele><time>2026-04-18T07:31:02.272Z</time></trkpt><trkpt lat="42.7665053" lon="13.6533571"><ele>444.0</ele><time>2026-04-18T07:31:03.301Z</time></trkpt><trkpt lat="42.7666536" lon="13.6533267"><ele>442.5</ele><time>2026-04-18T07:31:04.267Z</time></trkpt><trkpt lat="42.7669025" lon="13.6533336"><ele>441.0</ele><time>2026-04-18T07:31:05.283Z</time></trkpt><trkpt lat="42.7671335" lon="13.653338"><ele>441.0</ele><time>2026-04-18T07:31:06.27Z</time></trkpt><trkpt lat="42.7673651" lon="13.6533281"><ele>441.0</ele><time>2026-04-18T07:31:07.267Z</time></trkpt><trkpt lat="42.7675995" lon="13.6533129"><ele>439.66666666666663</ele><time>2026-04-18T07:31:08.292Z</time></trkpt><trkpt lat="42.7678144" lon="13.653278"><ele>438.3333333333333</ele><time>2026-04-18T07:31:09.303Z</time></trkpt><trkpt lat="42.7680312" lon="13.6532283"><ele>437.0</ele><time>2026-04-18T07:31:10.298Z</time></trkpt><trkpt lat="42.7682546" lon="13.6531521"><ele>437.0</ele><time>2026-04-18T07:31:11.31Z</time></trkpt><trkpt lat="42.7684696" lon="13.6530693"><ele>437.0</ele><time>2026-04-18T07:31:12.288Z</time></trkpt><trkpt lat="42.7686837" lon="13.6529928"><ele>437.0</ele><time>2026-04-18T07:31:13.304Z</time></trkpt><trkpt lat="42.7688861" lon="13.6529253"><ele>437.0</ele><time>2026-04-18T07:31:14.309Z</time></trkpt><trkpt lat="42.769077" lon="13.6528617"><ele>437.0</ele><time>2026-04-18T07:31:15.306Z</time></trkpt><trkpt lat="42.7692524" lon="13.6527955"><ele>437.0</ele><time>2026-04-18T07:31:16.272Z</time></trkpt><trkpt lat="42.7694269" lon="13.6527085"><ele>437.0</ele><time>2026-04-18T07:31:17.284Z</time></trkpt><trkpt lat="42.7695921" lon="13.6525981"><ele>437.0</ele><time>2026-04-18T07:31:18.277Z</time></trkpt><trkpt lat="42.7697541" lon="13.6524777"><ele>437.0</ele><time>2026-04-18T07:31:19.302Z</time></trkpt><trkpt lat="42.7699093" lon="13.6523602"><ele>437.0</ele><time>2026-04-18T07:31:20.305Z</time></trkpt><trkpt lat="42.7700587" lon="13.6522497"><ele>437.0</ele><time>2026-04-18T07:31:21.291Z</time></trkpt><trkpt lat="42.7702169" lon="13.6521341"><ele>437.0</ele><time>2026-04-18T07:31:22.338Z</time></trkpt><trkpt lat="42.7703557" lon="13.6520237"><ele>435.3333333333333</ele><time>2026-04-18T07:31:23.296Z</time></trkpt><trkpt lat="42.7704933" lon="13.6519112"><ele>433.66666666666663</ele><time>2026-04-18T07:31:24.282Z</time></trkpt><trkpt lat="42.7706253" lon="13.6517994"><ele>432.0</ele><time>2026-04-18T07:31:25.286Z</time></trkpt><trkpt lat="42.7707409" lon="13.6516974"><ele>432.0</ele><time>2026-04-18T07:31:26.283Z</time></trkpt><trkpt lat="42.7708447" lon="13.651608"><ele>432.0</ele><time>2026-04-18T07:31:27.295Z</time></trkpt><trkpt lat="42.7709499" lon="13.6515413"><ele>432.0</ele><time>2026-04-18T07:31:28.277Z</time></trkpt><trkpt lat="42.77107" lon="13.6515004"><ele>432.0</ele><time>2026-04-18T07:31:29.326Z</time></trkpt><trkpt lat="42.7711903" lon="13.6514965"><ele>432.0</ele><time>2026-04-18T07:31:30.285Z</time></trkpt><trkpt lat="42.7713127" lon="13.6515458"><ele>432.0</ele><time>2026-04-18T07:31:31.28Z</time></trkpt><trkpt lat="42.7714461" lon="13.6515793"><ele>432.0</ele><time>2026-04-18T07:31:32.289Z</time></trkpt><trkpt lat="42.7715857" lon="13.6515849"><ele>432.0</ele><time>2026-04-18T07:31:33.275Z</time></trkpt><trkpt lat="42.771741" lon="13.6515741"><ele>433.66666666666663</ele><time>2026-04-18T07:31:34.297Z</time></trkpt><trkpt lat="42.7719017" lon="13.65156"><ele>435.3333333333333</ele><time>2026-04-18T07:31:35.323Z</time></trkpt><trkpt lat="42.7720542" lon="13.6515636"><ele>437.0</ele><time>2026-04-18T07:31:36.293Z</time></trkpt><trkpt lat="42.7722154" lon="13.6515893"><ele>437.0</ele><time>2026-04-18T07:31:37.316Z</time></trkpt><trkpt lat="42.7723617" lon="13.6516475"><ele>437.0</ele><time>2026-04-18T07:31:38.292Z</time></trkpt><trkpt lat="42.7724707" lon="13.6518047"><ele>437.0</ele><time>2026-04-18T07:31:39.288Z</time></trkpt><trkpt lat="42.7725745" lon="13.6519307"><ele>435.5</ele><time>2026-04-18T07:31:40.247Z</time></trkpt><trkpt lat="42.7726921" lon="13.6520505"><ele>434.0</ele><time>2026-04-18T07:31:41.285Z</time></trkpt><trkpt lat="42.7728174" lon="13.6521252"><ele>432.5</ele><time>2026-04-18T07:31:42.251Z</time></trkpt><trkpt lat="42.7729571" lon="13.6521719"><ele>431.0</ele><time>2026-04-18T07:31:43.265Z</time></trkpt><trkpt lat="42.773108" lon="13.6521832"><ele>431.0</ele><time>2026-04-18T07:31:44.306Z</time></trkpt><trkpt lat="42.7732609" lon="13.6521706"><ele>431.0</ele><time>2026-04-18T07:31:45.288Z</time></trkpt><trkpt lat="42.7734414" lon="13.6521584"><ele>431.0</ele><time>2026-04-18T07:31:46.415Z</time></trkpt><trkpt lat="42.7737511" lon="13.6521635"><ele>431.0</ele><time>2026-04-18T07:31:48.278Z</time></trkpt><trkpt lat="42.7739088" lon="13.6521658"><ele>431.0</ele><time>2026-04-18T07:31:49.293Z</time></trkpt><trkpt lat="42.774064" lon="13.6521417"><ele>431.0</ele><time>2026-04-18T07:31:50.294Z</time></trkpt><trkpt lat="42.7742145" lon="13.6520788"><ele>432.0</ele><time>2026-04-18T07:31:51.288Z</time></trkpt><trkpt lat="42.7743745" lon="13.6519865"><ele>433.0</ele><time>2026-04-18T07:31:52.328Z</time></trkpt><trkpt lat="42.7745193" lon="13.6518827"><ele>434.0</ele><time>2026-04-18T07:31:53.288Z</time></trkpt><trkpt lat="42.7746706" lon="13.6517783"><ele>434.66666666666663</ele><time>2026-04-18T07:31:54.276Z</time></trkpt><trkpt lat="42.7748302" lon="13.6516889"><ele>435.33333333333337</ele><time>2026-04-18T07:31:55.243Z</time></trkpt><trkpt lat="42.7749977" lon="13.6516229"><ele>436.0</ele><time>2026-04-18T07:31:56.279Z</time></trkpt><trkpt lat="42.7751688" lon="13.651574"><ele>427.6666666666667</ele><time>2026-04-18T07:31:57.299Z</time></trkpt><trkpt lat="42.7753395" lon="13.6515256"><ele>419.33333333333337</ele><time>2026-04-18T07:31:58.292Z</time></trkpt><trkpt lat="42.7755181" lon="13.6514833"><ele>411.0</ele><time>2026-04-18T07:31:59.285Z</time></trkpt><trkpt lat="42.775695" lon="13.6514522"><ele>411.0</ele><time>2026-04-18T07:32:00.285Z</time></trkpt><trkpt lat="42.7758756" lon="13.6514217"><ele>411.0</ele><time>2026-04-18T07:32:01.297Z</time></trkpt><trkpt lat="42.7760501" lon="13.6513857"><ele>411.0</ele><time>2026-04-18T07:32:02.288Z</time></trkpt><trkpt lat="42.7762257" lon="13.6513431"><ele>414.0</ele><time>2026-04-18T07:32:03.304Z</time></trkpt><trkpt lat="42.7763908" lon="13.6513037"><ele>417.0</ele><time>2026-04-18T07:32:04.277Z</time></trkpt><trkpt lat="42.7765691" lon="13.6512593"><ele>420.0</ele><time>2026-04-18T07:32:05.3Z</time></trkpt><trkpt lat="42.7767462" lon="13.6512052"><ele>422.66666666666663</ele><time>2026-04-18T07:32:06.284Z</time></trkpt><trkpt lat="42.7769363" lon="13.6511366"><ele>425.3333333333333</ele><time>2026-04-18T07:32:07.337Z</time></trkpt><trkpt lat="42.7771058" lon="13.6510585"><ele>428.0</ele><time>2026-04-18T07:32:08.281Z</time></trkpt><trkpt lat="42.7772939" lon="13.6509558"><ele>429.0</ele><time>2026-04-18T07:32:09.318Z</time></trkpt><trkpt lat="42.7774844" lon="13.6508424"><ele>430.0</ele><time>2026-04-18T07:32:10.342Z</time></trkpt><trkpt lat="42.7776698" lon="13.6507316"><ele>431.0</ele><time>2026-04-18T07:32:11.318Z</time></trkpt><trkpt lat="42.7778685" lon="13.6506136"><ele>430.0</ele><time>2026-04-18T07:32:12.332Z</time></trkpt><trkpt lat="42.7780618" lon="13.6504946"><ele>429.0</ele><time>2026-04-18T07:32:13.326Z</time></trkpt><trkpt lat="42.77825" lon="13.6503784"><ele>428.0</ele><time>2026-04-18T07:32:14.287Z</time></trkpt><trkpt lat="42.7784528" lon="13.6502582"><ele>425.0</ele><time>2026-04-18T07:32:15.322Z</time></trkpt><trkpt lat="42.7786447" lon="13.6501398"><ele>422.0</ele><time>2026-04-18T07:32:16.321Z</time></trkpt><trkpt lat="42.7788266" lon="13.6500257"><ele>419.0</ele><time>2026-04-18T07:32:17.287Z</time></trkpt><trkpt lat="42.7790123" lon="13.6499049"><ele>419.0</ele><time>2026-04-18T07:32:18.295Z</time></trkpt><trkpt lat="42.7791927" lon="13.6497895"><ele>419.0</ele><time>2026-04-18T07:32:19.282Z</time></trkpt><trkpt lat="42.7793729" lon="13.6496757"><ele>419.0</ele><time>2026-04-18T07:32:20.288Z</time></trkpt><trkpt lat="42.779559" lon="13.6495641"><ele>418.0</ele><time>2026-04-18T07:32:21.324Z</time></trkpt><trkpt lat="42.7797439" lon="13.6494668"><ele>417.0</ele><time>2026-04-18T07:32:22.345Z</time></trkpt><trkpt lat="42.7799229" lon="13.6493933"><ele>416.0</ele><time>2026-04-18T07:32:23.321Z</time></trkpt><trkpt lat="42.7801081" lon="13.6493393"><ele>416.0</ele><time>2026-04-18T07:32:24.316Z</time></trkpt><trkpt lat="42.7802883" lon="13.6493018"><ele>416.0</ele><time>2026-04-18T07:32:25.289Z</time></trkpt><trkpt lat="42.7804798" lon="13.6492778"><ele>416.0</ele><time>2026-04-18T07:32:26.329Z</time></trkpt><trkpt lat="42.7806572" lon="13.6492737"><ele>416.0</ele><time>2026-04-18T07:32:27.3Z</time></trkpt><trkpt lat="42.7808435" lon="13.6492884"><ele>416.0</ele><time>2026-04-18T07:32:28.315Z</time></trkpt><trkpt lat="42.7810259" lon="13.6493097"><ele>416.0</ele><time>2026-04-18T07:32:29.304Z</time></trkpt><trkpt lat="42.781208" lon="13.6493345"><ele>413.3333333333333</ele><time>2026-04-18T07:32:30.287Z</time></trkpt><trkpt lat="42.7814055" lon="13.6493543"><ele>410.66666666666663</ele><time>2026-04-18T07:32:31.333Z</time></trkpt><trkpt lat="42.7815988" lon="13.6493697"><ele>408.0</ele><time>2026-04-18T07:32:32.336Z</time></trkpt><trkpt lat="42.7817889" lon="13.6493869"><ele>407.0</ele><time>2026-04-18T07:32:33.3Z</time></trkpt><trkpt lat="42.7820056" lon="13.649408"><ele>406.0</ele><time>2026-04-18T07:32:34.365Z</time></trkpt><trkpt lat="42.7822024" lon="13.6494126"><ele>405.0</ele><time>2026-04-18T07:32:35.305Z</time></trkpt><trkpt lat="42.7824321" lon="13.6493973"><ele>405.0</ele><time>2026-04-18T07:32:36.364Z</time></trkpt><trkpt lat="42.7826443" lon="13.6493715"><ele>405.0</ele><time>2026-04-18T07:32:37.317Z</time></trkpt><trkpt lat="42.7828628" lon="13.6493446"><ele>405.0</ele><time>2026-04-18T07:32:38.284Z</time></trkpt><trkpt lat="42.7830865" lon="13.6493111"><ele>403.66666666666663</ele><time>2026-04-18T07:32:39.304Z</time></trkpt><trkpt lat="42.7832981" lon="13.64928"><ele>402.3333333333333</ele><time>2026-04-18T07:32:40.3Z</time></trkpt><trkpt lat="42.7835107" lon="13.6492463"><ele>401.0</ele><time>2026-04-18T07:32:41.323Z</time></trkpt><trkpt lat="42.7837008" lon="13.6492081"><ele>401.0</ele><time>2026-04-18T07:32:42.29Z</time></trkpt><trkpt lat="42.7839014" lon="13.6491728"><ele>401.0</ele><time>2026-04-18T07:32:43.312Z</time></trkpt><trkpt lat="42.7840848" lon="13.6491412"><ele>401.0</ele><time>2026-04-18T07:32:44.289Z</time></trkpt><trkpt lat="42.7842712" lon="13.6491023"><ele>406.0</ele><time>2026-04-18T07:32:45.281Z</time></trkpt><trkpt lat="42.784461" lon="13.6490513"><ele>411.0</ele><time>2026-04-18T07:32:46.285Z</time></trkpt><trkpt lat="42.784643" lon="13.6489938"><ele>416.0</ele><time>2026-04-18T07:32:47.261Z</time></trkpt><trkpt lat="42.7848329" lon="13.6489255"><ele>416.0</ele><time>2026-04-18T07:32:48.291Z</time></trkpt><trkpt lat="42.785012" lon="13.6488584"><ele>416.0</ele><time>2026-04-18T07:32:49.27Z</time></trkpt><trkpt lat="42.7852063" lon="13.6487701"><ele>416.0</ele><time>2026-04-18T07:32:50.368Z</time></trkpt><trkpt lat="42.785363" lon="13.6486857"><ele>415.3333333333333</ele><time>2026-04-18T07:32:51.273Z</time></trkpt><trkpt lat="42.7855375" lon="13.6485842"><ele>414.66666666666663</ele><time>2026-04-18T07:32:52.292Z</time></trkpt><trkpt lat="42.7857085" lon="13.6484828"><ele>414.0</ele><time>2026-04-18T07:32:53.283Z</time></trkpt><trkpt lat="42.7858704" lon="13.6483925"><ele>415.33333333333337</ele><time>2026-04-18T07:32:54.27Z</time></trkpt><trkpt lat="42.7860322" lon="13.6483181"><ele>416.6666666666667</ele><time>2026-04-18T07:32:55.277Z</time></trkpt><trkpt lat="42.7861929" lon="13.6482671"><ele>418.0</ele><time>2026-04-18T07:32:56.253Z</time></trkpt><trkpt lat="42.7863701" lon="13.6482289"><ele>418.0</ele><time>2026-04-18T07:32:57.323Z</time></trkpt><trkpt lat="42.7865276" lon="13.6481951"><ele>418.0</ele><time>2026-04-18T07:32:58.269Z</time></trkpt><trkpt lat="42.7866913" lon="13.6481561"><ele>418.0</ele><time>2026-04-18T07:32:59.277Z</time></trkpt><trkpt lat="42.7868538" lon="13.6481152"><ele>418.33333333333337</ele><time>2026-04-18T07:33:00.271Z</time></trkpt><trkpt lat="42.7870174" lon="13.6480766"><ele>418.66666666666663</ele><time>2026-04-18T07:33:01.292Z</time></trkpt><trkpt lat="42.7871772" lon="13.648044"><ele>419.0</ele><time>2026-04-18T07:33:02.291Z</time></trkpt><trkpt lat="42.7873321" lon="13.648006"><ele>419.0</ele><time>2026-04-18T07:33:03.265Z</time></trkpt><trkpt lat="42.787501" lon="13.6479496"><ele>419.0</ele><time>2026-04-18T07:33:04.331Z</time></trkpt><trkpt lat="42.7876512" lon="13.6478863"><ele>419.0</ele><time>2026-04-18T07:33:05.281Z</time></trkpt><trkpt lat="42.7878109" lon="13.6478115"><ele>419.0</ele><time>2026-04-18T07:33:06.301Z</time></trkpt><trkpt lat="42.7879645" lon="13.6477359"><ele>419.0</ele><time>2026-04-18T07:33:07.283Z</time></trkpt><trkpt lat="42.7881225" lon="13.6476563"><ele>419.0</ele><time>2026-04-18T07:33:08.313Z</time></trkpt><trkpt lat="42.7882614" lon="13.6475839"><ele>419.0</ele><time>2026-04-18T07:33:09.288Z</time></trkpt><trkpt lat="42.7883954" lon="13.6475131"><ele>419.0</ele><time>2026-04-18T07:33:10.288Z</time></trkpt><trkpt lat="42.7885293" lon="13.6474446"><ele>419.0</ele><time>2026-04-18T07:33:11.331Z</time></trkpt><trkpt lat="42.7886512" lon="13.6473811"><ele>419.0</ele><time>2026-04-18T07:33:12.305Z</time></trkpt><trkpt lat="42.788774" lon="13.6473154"><ele>418.25</ele><time>2026-04-18T07:33:13.318Z</time></trkpt><trkpt lat="42.7889013" lon="13.647246"><ele>417.5</ele><time>2026-04-18T07:33:14.328Z</time></trkpt><trkpt lat="42.7890491" lon="13.6471672"><ele>416.75</ele><time>2026-04-18T07:33:15.455Z</time></trkpt><trkpt lat="42.7891746" lon="13.6471045"><ele>416.0</ele><time>2026-04-18T07:33:16.357Z</time></trkpt><trkpt lat="42.7893091" lon="13.6470382"><ele>415.66666666666663</ele><time>2026-04-18T07:33:17.301Z</time></trkpt><trkpt lat="42.7894593" lon="13.646963"><ele>415.33333333333337</ele><time>2026-04-18T07:33:18.319Z</time></trkpt><trkpt lat="42.7896156" lon="13.646884"><ele>415.0</ele><time>2026-04-18T07:33:19.336Z</time></trkpt><trkpt lat="42.7897714" lon="13.6468037"><ele>416.6666666666667</ele><time>2026-04-18T07:33:20.314Z</time></trkpt><trkpt lat="42.7899329" lon="13.6467212"><ele>418.33333333333337</ele><time>2026-04-18T07:33:21.304Z</time></trkpt><trkpt lat="42.7900996" lon="13.6466377"><ele>420.0</ele><time>2026-04-18T07:33:22.299Z</time></trkpt><trkpt lat="42.790277" lon="13.6465493"><ele>420.0</ele><time>2026-04-18T07:33:23.323Z</time></trkpt><trkpt lat="42.7904429" lon="13.6464606"><ele>420.0</ele><time>2026-04-18T07:33:24.283Z</time></trkpt><trkpt lat="42.7906219" lon="13.6463584"><ele>420.0</ele><time>2026-04-18T07:33:25.323Z</time></trkpt><trkpt lat="42.7907917" lon="13.6462586"><ele>420.0</ele><time>2026-04-18T07:33:26.293Z</time></trkpt><trkpt lat="42.7909631" lon="13.6461549"><ele>420.0</ele><time>2026-04-18T07:33:27.277Z</time></trkpt><trkpt lat="42.791139" lon="13.6460415"><ele>420.0</ele><time>2026-04-18T07:33:28.293Z</time></trkpt><trkpt lat="42.7913084" lon="13.6459296"><ele>420.33333333333337</ele><time>2026-04-18T07:33:29.289Z</time></trkpt><trkpt lat="42.7914857" lon="13.645808"><ele>420.6666666666667</ele><time>2026-04-18T07:33:30.356Z</time></trkpt><trkpt lat="42.7916477" lon="13.6457062"><ele>421.0</ele><time>2026-04-18T07:33:31.336Z</time></trkpt><trkpt lat="42.7918096" lon="13.6456151"><ele>420.6666666666667</ele><time>2026-04-18T07:33:32.337Z</time></trkpt><trkpt lat="42.7919702" lon="13.6455296"><ele>420.33333333333337</ele><time>2026-04-18T07:33:33.321Z</time></trkpt><trkpt lat="42.7921254" lon="13.6454525"><ele>420.0</ele><time>2026-04-18T07:33:34.297Z</time></trkpt><trkpt lat="42.7922788" lon="13.6453802"><ele>420.0</ele><time>2026-04-18T07:33:35.301Z</time></trkpt><trkpt lat="42.792438" lon="13.6453056"><ele>420.0</ele><time>2026-04-18T07:33:36.389Z</time></trkpt><trkpt lat="42.7925557" lon="13.6452452"><ele>420.0</ele><time>2026-04-18T07:33:37.305Z</time></trkpt><trkpt lat="42.7926836" lon="13.6451828"><ele>420.0</ele><time>2026-04-18T07:33:38.294Z</time></trkpt><trkpt lat="42.792816" lon="13.6451248"><ele>420.25</ele><time>2026-04-18T07:33:39.291Z</time></trkpt><trkpt lat="42.7929416" lon="13.6450779"><ele>420.5</ele><time>2026-04-18T07:33:40.276Z</time></trkpt><trkpt lat="42.7930606" lon="13.6450228"><ele>420.75</ele><time>2026-04-18T07:33:41.294Z</time></trkpt><trkpt lat="42.7931728" lon="13.6449657"><ele>421.0</ele><time>2026-04-18T07:33:42.305Z</time></trkpt><trkpt lat="42.7932828" lon="13.6449132"><ele>421.0</ele><time>2026-04-18T07:33:43.302Z</time></trkpt><trkpt lat="42.7933952" lon="13.6448711"><ele>421.0</ele><time>2026-04-18T07:33:44.257Z</time></trkpt><trkpt lat="42.7935079" lon="13.64482"><ele>421.0</ele><time>2026-04-18T07:33:45.28Z</time></trkpt><trkpt lat="42.7936231" lon="13.6447671"><ele>421.0</ele><time>2026-04-18T07:33:46.302Z</time></trkpt><trkpt lat="42.7937284" lon="13.6447166"><ele>420.75</ele><time>2026-04-18T07:33:47.299Z</time></trkpt><trkpt lat="42.7938319" lon="13.6446716"><ele>420.5</ele><time>2026-04-18T07:33:48.277Z</time></trkpt><trkpt lat="42.7939487" lon="13.6446167"><ele>420.25</ele><time>2026-04-18T07:33:49.396Z</time></trkpt><trkpt lat="42.7941302" lon="13.644498"><ele>420.0</ele><time>2026-04-18T07:33:51.316Z</time></trkpt><trkpt lat="42.7942074" lon="13.6444206"><ele>420.0</ele><time>2026-04-18T07:33:52.277Z</time></trkpt><trkpt lat="42.7942806" lon="13.6443345"><ele>420.0</ele><time>2026-04-18T07:33:53.305Z</time></trkpt><trkpt lat="42.7943421" lon="13.6442485"><ele>420.0</ele><time>2026-04-18T07:33:54.291Z</time></trkpt><trkpt lat="42.7944059" lon="13.6441585"><ele>420.0</ele><time>2026-04-18T07:33:55.316Z</time></trkpt><trkpt lat="42.7944653" lon="13.6440816"><ele>420.0</ele><time>2026-04-18T07:33:56.325Z</time></trkpt><trkpt lat="42.7945171" lon="13.6440168"><ele>420.0</ele><time>2026-04-18T07:33:57.308Z</time></trkpt><trkpt lat="42.7945641" lon="13.6439511"><ele>419.6666666666667</ele><time>2026-04-18T07:33:58.306Z</time></trkpt><trkpt lat="42.7946149" lon="13.6438933"><ele>419.33333333333337</ele><time>2026-04-18T07:33:59.326Z</time></trkpt><trkpt lat="42.794691" lon="13.6437952"><ele>419.0</ele><time>2026-04-18T07:34:01.308Z</time></trkpt><trkpt lat="42.7947562" lon="13.6437045"><ele>418.6666666666667</ele><time>2026-04-18T07:34:03.289Z</time></trkpt><trkpt lat="42.7948338" lon="13.6436087"><ele>418.33333333333337</ele><time>2026-04-18T07:34:05.291Z</time></trkpt><trkpt lat="42.7948805" lon="13.6435464"><ele>418.0</ele><time>2026-04-18T07:34:06.376Z</time></trkpt><trkpt lat="42.7949765" lon="13.6434151"><ele>418.00000000000006</ele><time>2026-04-18T07:34:08.285Z</time></trkpt><trkpt lat="42.7950321" lon="13.643339"><ele>418.0</ele><time>2026-04-18T07:34:09.28Z</time></trkpt><trkpt lat="42.7950914" lon="13.6432582"><ele>418.0</ele><time>2026-04-18T07:34:10.288Z</time></trkpt><trkpt lat="42.7951486" lon="13.6431791"><ele>418.0</ele><time>2026-04-18T07:34:11.268Z</time></trkpt><trkpt lat="42.7952061" lon="13.6430978"><ele>418.00000000000006</ele><time>2026-04-18T07:34:12.27Z</time></trkpt><trkpt lat="42.795271" lon="13.6430122"><ele>418.0</ele><time>2026-04-18T07:34:13.352Z</time></trkpt><trkpt lat="42.795388" lon="13.6428642"><ele>417.4</ele><time>2026-04-18T07:34:15.252Z</time></trkpt><trkpt lat="42.7954503" lon="13.6427835"><ele>416.79999999999995</ele><time>2026-04-18T07:34:16.305Z</time></trkpt><trkpt lat="42.7955139" lon="13.6426975"><ele>416.2</ele><time>2026-04-18T07:34:17.388Z</time></trkpt><trkpt lat="42.7955696" lon="13.6426172"><ele>415.6</ele><time>2026-04-18T07:34:18.305Z</time></trkpt><trkpt lat="42.7956362" lon="13.6425271"><ele>415.0</ele><time>2026-04-18T07:34:19.282Z</time></trkpt><trkpt lat="42.795706" lon="13.6424299"><ele>415.0</ele><time>2026-04-18T07:34:20.308Z</time></trkpt><trkpt lat="42.7957686" lon="13.642337"><ele>415.0</ele><time>2026-04-18T07:34:21.274Z</time></trkpt><trkpt lat="42.7958285" lon="13.6422346"><ele>415.0</ele><time>2026-04-18T07:34:22.307Z</time></trkpt><trkpt lat="42.7958704" lon="13.6421272"><ele>415.0</ele><time>2026-04-18T07:34:23.284Z</time></trkpt><trkpt lat="42.7958989" lon="13.6420075"><ele>415.0</ele><time>2026-04-18T07:34:24.297Z</time></trkpt><trkpt lat="42.795915" lon="13.641889"><ele>415.6</ele><time>2026-04-18T07:34:25.269Z</time></trkpt><trkpt lat="42.7959191" lon="13.6417636"><ele>416.2</ele><time>2026-04-18T07:34:26.271Z</time></trkpt><trkpt lat="42.7959133" lon="13.6416363"><ele>416.79999999999995</ele><time>2026-04-18T07:34:27.262Z</time></trkpt><trkpt lat="42.7958955" lon="13.641493"><ele>417.4</ele><time>2026-04-18T07:34:28.282Z</time></trkpt><trkpt lat="42.795869" lon="13.6413404"><ele>418.0</ele><time>2026-04-18T07:34:29.274Z</time></trkpt><trkpt lat="42.7958375" lon="13.64118"><ele>417.75</ele><time>2026-04-18T07:34:30.256Z</time></trkpt><trkpt lat="42.7958013" lon="13.6409978"><ele>417.5</ele><time>2026-04-18T07:34:31.307Z</time></trkpt><trkpt lat="42.7957684" lon="13.6408446"><ele>417.25</ele><time>2026-04-18T07:34:32.255Z</time></trkpt><trkpt lat="42.795731" lon="13.6406668"><ele>417.0</ele><time>2026-04-18T07:34:33.302Z</time></trkpt><trkpt lat="42.7957" lon="13.640499"><ele>417.0</ele><time>2026-04-18T07:34:34.287Z</time></trkpt><trkpt lat="42.7956607" lon="13.6403343"><ele>417.0</ele><time>2026-04-18T07:34:35.292Z</time></trkpt><trkpt lat="42.7956396" lon="13.6401811"><ele>417.0</ele><time>2026-04-18T07:34:36.313Z</time></trkpt><trkpt lat="42.7956296" lon="13.6400429"><ele>417.0</ele><time>2026-04-18T07:34:37.273Z</time></trkpt><trkpt lat="42.7956418" lon="13.6398899"><ele>416.6</ele><time>2026-04-18T07:34:38.306Z</time></trkpt><trkpt lat="42.7956793" lon="13.6397452"><ele>416.20000000000005</ele><time>2026-04-18T07:34:39.304Z</time></trkpt><trkpt lat="42.7957447" lon="13.6396249"><ele>415.8</ele><time>2026-04-18T07:34:40.274Z</time></trkpt><trkpt lat="42.7958365" lon="13.6395277"><ele>415.4</ele><time>2026-04-18T07:34:41.362Z</time></trkpt><trkpt lat="42.7959258" lon="13.6394691"><ele>415.0</ele><time>2026-04-18T07:34:42.342Z</time></trkpt><trkpt lat="42.7960109" lon="13.639419"><ele>416.0</ele><time>2026-04-18T07:34:43.303Z</time></trkpt><trkpt lat="42.7960935" lon="13.639373"><ele>417.0</ele><time>2026-04-18T07:34:44.351Z</time></trkpt><trkpt lat="42.7961768" lon="13.6393468"><ele>418.0</ele><time>2026-04-18T07:34:45.418Z</time></trkpt><trkpt lat="42.7963115" lon="13.6393994"><ele>419.0</ele><time>2026-04-18T07:34:47.356Z</time></trkpt><trkpt lat="42.7963587" lon="13.639472"><ele>420.0</ele><time>2026-04-18T07:34:48.285Z</time></trkpt><trkpt lat="42.7964128" lon="13.6396043"><ele>420.0</ele><time>2026-04-18T07:34:49.309Z</time></trkpt><trkpt lat="42.7964727" lon="13.6397354"><ele>420.0</ele><time>2026-04-18T07:34:50.3Z</time></trkpt><trkpt lat="42.7965276" lon="13.6398644"><ele>420.0</ele><time>2026-04-18T07:34:51.334Z</time></trkpt><trkpt lat="42.7965793" lon="13.6399827"><ele>420.0</ele><time>2026-04-18T07:34:52.302Z</time></trkpt><trkpt lat="42.7966511" lon="13.6401102"><ele>420.0</ele><time>2026-04-18T07:34:53.322Z</time></trkpt><trkpt lat="42.7967362" lon="13.640225"><ele>420.25</ele><time>2026-04-18T07:34:54.288Z</time></trkpt><trkpt lat="42.7968393" lon="13.6403374"><ele>420.5</ele><time>2026-04-18T07:34:55.309Z</time></trkpt><trkpt lat="42.7969526" lon="13.6404474"><ele>420.75</ele><time>2026-04-18T07:34:56.304Z</time></trkpt><trkpt lat="42.7970715" lon="13.6405609"><ele>421.0</ele><time>2026-04-18T07:34:57.31Z</time></trkpt><trkpt lat="42.7971834" lon="13.64067"><ele>421.0</ele><time>2026-04-18T07:34:58.309Z</time></trkpt><trkpt lat="42.7972887" lon="13.6407772"><ele>421.0</ele><time>2026-04-18T07:34:59.302Z</time></trkpt><trkpt lat="42.7973884" lon="13.6408805"><ele>421.0</ele><time>2026-04-18T07:35:00.282Z</time></trkpt><trkpt lat="42.7974815" lon="13.6409865"><ele>421.0</ele><time>2026-04-18T07:35:01.305Z</time></trkpt><trkpt lat="42.7975626" lon="13.641093"><ele>420.0</ele><time>2026-04-18T07:35:02.295Z</time></trkpt><trkpt lat="42.7976363" lon="13.641207"><ele>419.0</ele><time>2026-04-18T07:35:03.299Z</time></trkpt><trkpt lat="42.7976993" lon="13.6413253"><ele>418.0</ele><time>2026-04-18T07:35:04.288Z</time></trkpt><trkpt lat="42.7977527" lon="13.6414535"><ele>417.0</ele><time>2026-04-18T07:35:05.298Z</time></trkpt><trkpt lat="42.7977931" lon="13.6415737"><ele>416.0</ele><time>2026-04-18T07:35:06.296Z</time></trkpt><trkpt lat="42.7978267" lon="13.6416808"><ele>416.0</ele><time>2026-04-18T07:35:07.281Z</time></trkpt><trkpt lat="42.7978718" lon="13.6417813"><ele>416.0</ele><time>2026-04-18T07:35:08.304Z</time></trkpt><trkpt lat="42.7979241" lon="13.641865"><ele>416.0</ele><time>2026-04-18T07:35:09.287Z</time></trkpt><trkpt lat="42.7980058" lon="13.6419461"><ele>416.0</ele><time>2026-04-18T07:35:10.291Z</time></trkpt><trkpt lat="42.7981085" lon="13.6420064"><ele>416.0</ele><time>2026-04-18T07:35:11.3Z</time></trkpt><trkpt lat="42.7982385" lon="13.642051"><ele>414.5</ele><time>2026-04-18T07:35:12.348Z</time></trkpt><trkpt lat="42.7983705" lon="13.6420848"><ele>413.0</ele><time>2026-04-18T07:35:13.318Z</time></trkpt><trkpt lat="42.7985077" lon="13.6421216"><ele>411.5</ele><time>2026-04-18T07:35:14.347Z</time></trkpt><trkpt lat="42.7986302" lon="13.6421548"><ele>410.0</ele><time>2026-04-18T07:35:15.317Z</time></trkpt><trkpt lat="42.7987589" lon="13.6421916"><ele>410.0</ele><time>2026-04-18T07:35:16.348Z</time></trkpt><trkpt lat="42.7988722" lon="13.642225"><ele>410.0</ele><time>2026-04-18T07:35:17.285Z</time></trkpt><trkpt lat="42.7989941" lon="13.6422582"><ele>410.0</ele><time>2026-04-18T07:35:18.308Z</time></trkpt><trkpt lat="42.7991164" lon="13.6422952"><ele>410.0</ele><time>2026-04-18T07:35:19.303Z</time></trkpt><trkpt lat="42.7992543" lon="13.6423518"><ele>409.66666666666663</ele><time>2026-04-18T07:35:20.325Z</time></trkpt><trkpt lat="42.7993935" lon="13.6424337"><ele>409.33333333333337</ele><time>2026-04-18T07:35:21.336Z</time></trkpt><trkpt lat="42.7995604" lon="13.6425491"><ele>409.0</ele><time>2026-04-18T07:35:22.321Z</time></trkpt><trkpt lat="42.7997475" lon="13.6427001"><ele>407.5</ele><time>2026-04-18T07:35:23.297Z</time></trkpt><trkpt lat="42.7999604" lon="13.6429023"><ele>406.0</ele><time>2026-04-18T07:35:24.325Z</time></trkpt><trkpt lat="42.8001634" lon="13.6431301"><ele>405.0</ele><time>2026-04-18T07:35:25.286Z</time></trkpt><trkpt lat="42.8003779" lon="13.6434205"><ele>404.0</ele><time>2026-04-18T07:35:26.345Z</time></trkpt><trkpt lat="42.8005478" lon="13.6436654"><ele>403.0</ele><time>2026-04-18T07:35:27.29Z</time></trkpt><trkpt lat="42.8007237" lon="13.6439198"><ele>402.0</ele><time>2026-04-18T07:35:28.315Z</time></trkpt><trkpt lat="42.8008911" lon="13.6441509"><ele>401.66666666666663</ele><time>2026-04-18T07:35:29.307Z</time></trkpt><trkpt lat="42.801055" lon="13.6443736"><ele>401.3333333333333</ele><time>2026-04-18T07:35:30.325Z</time></trkpt><trkpt lat="42.8012051" lon="13.6445766"><ele>401.0</ele><time>2026-04-18T07:35:31.287Z</time></trkpt><trkpt lat="42.801363" lon="13.6447853"><ele>400.3333333333333</ele><time>2026-04-18T07:35:32.35Z</time></trkpt><trkpt lat="42.801515" lon="13.6449897"><ele>399.66666666666663</ele><time>2026-04-18T07:35:33.409Z</time></trkpt><trkpt lat="42.8016449" lon="13.6451605"><ele>399.0</ele><time>2026-04-18T07:35:34.313Z</time></trkpt><trkpt lat="42.801786" lon="13.6453529"><ele>398.0</ele><time>2026-04-18T07:35:35.319Z</time></trkpt><trkpt lat="42.8019183" lon="13.6455363"><ele>397.0</ele><time>2026-04-18T07:35:36.301Z</time></trkpt><trkpt lat="42.8020534" lon="13.6457209"><ele>396.0</ele><time>2026-04-18T07:35:37.299Z</time></trkpt><trkpt lat="42.8021938" lon="13.6459129"><ele>396.0</ele><time>2026-04-18T07:35:38.345Z</time></trkpt><trkpt lat="42.8023217" lon="13.6460916"><ele>396.0</ele><time>2026-04-18T07:35:39.316Z</time></trkpt><trkpt lat="42.8024507" lon="13.6462723"><ele>396.0</ele><time>2026-04-18T07:35:40.31Z</time></trkpt><trkpt lat="42.8025945" lon="13.6464671"><ele>396.66666666666663</ele><time>2026-04-18T07:35:41.419Z</time></trkpt><trkpt lat="42.8027132" lon="13.646626"><ele>397.3333333333333</ele><time>2026-04-18T07:35:42.33Z</time></trkpt><trkpt lat="42.8028436" lon="13.6468022"><ele>398.0</ele><time>2026-04-18T07:35:43.34Z</time></trkpt><trkpt lat="42.8029772" lon="13.6469853"><ele>398.0</ele><time>2026-04-18T07:35:44.364Z</time></trkpt><trkpt lat="42.8031004" lon="13.6471563"><ele>398.0</ele><time>2026-04-18T07:35:45.322Z</time></trkpt><trkpt lat="42.8032264" lon="13.6473278"><ele>398.0</ele><time>2026-04-18T07:35:46.305Z</time></trkpt><trkpt lat="42.8033532" lon="13.6474991"><ele>398.0</ele><time>2026-04-18T07:35:47.303Z</time></trkpt><trkpt lat="42.8034967" lon="13.6476909"><ele>398.0</ele><time>2026-04-18T07:35:48.437Z</time></trkpt><trkpt lat="42.8037261" lon="13.6480242"><ele>398.66666666666663</ele><time>2026-04-18T07:35:50.346Z</time></trkpt><trkpt lat="42.8038358" lon="13.6482205"><ele>399.33333333333337</ele><time>2026-04-18T07:35:51.35Z</time></trkpt><trkpt lat="42.8039288" lon="13.6484279"><ele>400.0</ele><time>2026-04-18T07:35:52.344Z</time></trkpt><trkpt lat="42.80402" lon="13.6486216"><ele>398.33333333333337</ele><time>2026-04-18T07:35:53.295Z</time></trkpt><trkpt lat="42.804119" lon="13.648824"><ele>396.66666666666663</ele><time>2026-04-18T07:35:54.304Z</time></trkpt><trkpt lat="42.8042187" lon="13.6490279"><ele>395.0</ele><time>2026-04-18T07:35:55.334Z</time></trkpt><trkpt lat="42.804334" lon="13.6492253"><ele>395.0</ele><time>2026-04-18T07:35:56.384Z</time></trkpt><trkpt lat="42.8044495" lon="13.6493772"><ele>395.0</ele><time>2026-04-18T07:35:57.296Z</time></trkpt><trkpt lat="42.8046005" lon="13.6495314"><ele>395.0</ele><time>2026-04-18T07:35:58.361Z</time></trkpt><trkpt lat="42.8047374" lon="13.6496572"><ele>393.0</ele><time>2026-04-18T07:35:59.316Z</time></trkpt><trkpt lat="42.8048753" lon="13.649786"><ele>391.0</ele><time>2026-04-18T07:36:00.284Z</time></trkpt><trkpt lat="42.8050175" lon="13.6499287"><ele>389.0</ele><time>2026-04-18T07:36:01.301Z</time></trkpt><trkpt lat="42.8051486" lon="13.6500837"><ele>388.66666666666663</ele><time>2026-04-18T07:36:02.308Z</time></trkpt><trkpt lat="42.8052694" lon="13.6502662"><ele>388.33333333333337</ele><time>2026-04-18T07:36:03.318Z</time></trkpt><trkpt lat="42.8053626" lon="13.6504724"><ele>388.0</ele><time>2026-04-18T07:36:04.299Z</time></trkpt><trkpt lat="42.8054274" lon="13.6507339"><ele>388.0</ele><time>2026-04-18T07:36:05.394Z</time></trkpt><trkpt lat="42.8054538" lon="13.6509617"><ele>388.0</ele><time>2026-04-18T07:36:06.349Z</time></trkpt><trkpt lat="42.805467" lon="13.6511975"><ele>388.0</ele><time>2026-04-18T07:36:07.315Z</time></trkpt><trkpt lat="42.8054738" lon="13.6514437"><ele>387.6666666666667</ele><time>2026-04-18T07:36:08.336Z</time></trkpt><trkpt lat="42.8054706" lon="13.6516867"><ele>387.33333333333337</ele><time>2026-04-18T07:36:09.348Z</time></trkpt><trkpt lat="42.8054507" lon="13.6519254"><ele>387.0</ele><time>2026-04-18T07:36:10.346Z</time></trkpt><trkpt lat="42.8054239" lon="13.6521558"><ele>386.66666666666663</ele><time>2026-04-18T07:36:11.307Z</time></trkpt><trkpt lat="42.8053913" lon="13.6523892"><ele>386.3333333333333</ele><time>2026-04-18T07:36:12.335Z</time></trkpt><trkpt lat="42.8053581" lon="13.6526034"><ele>386.0</ele><time>2026-04-18T07:36:13.308Z</time></trkpt><trkpt lat="42.8053259" lon="13.6528195"><ele>385.0</ele><time>2026-04-18T07:36:14.39Z</time></trkpt><trkpt lat="42.8053014" lon="13.6529926"><ele>384.0</ele><time>2026-04-18T07:36:15.336Z</time></trkpt><trkpt lat="42.8052768" lon="13.6531572"><ele>383.0</ele><time>2026-04-18T07:36:16.304Z</time></trkpt><trkpt lat="42.8052663" lon="13.6533224"><ele>382.0</ele><time>2026-04-18T07:36:17.307Z</time></trkpt><trkpt lat="42.8052942" lon="13.6534702"><ele>382.0</ele><time>2026-04-18T07:36:18.337Z</time></trkpt><trkpt lat="42.805349" lon="13.6535716"><ele>382.0</ele><time>2026-04-18T07:36:19.309Z</time></trkpt><trkpt lat="42.8054557" lon="13.6536149"><ele>382.0</ele><time>2026-04-18T07:36:20.368Z</time></trkpt><trkpt lat="42.8055721" lon="13.6535904"><ele>382.0</ele><time>2026-04-18T07:36:21.321Z</time></trkpt><trkpt lat="42.805696" lon="13.6535366"><ele>382.0</ele><time>2026-04-18T07:36:22.301Z</time></trkpt><trkpt lat="42.8058425" lon="13.6534623"><ele>382.0</ele><time>2026-04-18T07:36:23.327Z</time></trkpt><trkpt lat="42.8059944" lon="13.6533835"><ele>382.0</ele><time>2026-04-18T07:36:24.291Z</time></trkpt><trkpt lat="42.8061568" lon="13.6532952"><ele>378.3333333333333</ele><time>2026-04-18T07:36:25.306Z</time></trkpt><trkpt lat="42.8063035" lon="13.6531915"><ele>374.6666666666667</ele><time>2026-04-18T07:36:26.296Z</time></trkpt><trkpt lat="42.8064406" lon="13.6530693"><ele>371.0</ele><time>2026-04-18T07:36:27.339Z</time></trkpt><trkpt lat="42.8065979" lon="13.6529327"><ele>365.6666666666667</ele><time>2026-04-18T07:36:28.504Z</time></trkpt><trkpt lat="42.8068616" lon="13.6528831"><ele>360.3333333333333</ele><time>2026-04-18T07:36:30.334Z</time></trkpt><trkpt lat="42.8069964" lon="13.6528821"><ele>355.0</ele><time>2026-04-18T07:36:31.302Z</time></trkpt><trkpt lat="42.8071101" lon="13.6528618"><ele>355.0</ele><time>2026-04-18T07:36:32.295Z</time></trkpt><trkpt lat="42.8072079" lon="13.6528148"><ele>355.0</ele><time>2026-04-18T07:36:33.299Z</time></trkpt><trkpt lat="42.8072844" lon="13.652714"><ele>355.0</ele><time>2026-04-18T07:36:34.319Z</time></trkpt><trkpt lat="42.8073302" lon="13.6525766"><ele>355.0</ele><time>2026-04-18T07:36:35.312Z</time></trkpt><trkpt lat="42.8073265" lon="13.6524138"><ele>355.0</ele><time>2026-04-18T07:36:36.352Z</time></trkpt><trkpt lat="42.807283" lon="13.6522282"><ele>357.0</ele><time>2026-04-18T07:36:37.351Z</time></trkpt><trkpt lat="42.8072403" lon="13.6520297"><ele>359.0</ele><time>2026-04-18T07:36:38.339Z</time></trkpt><trkpt lat="42.807195" lon="13.6518106"><ele>361.0</ele><time>2026-04-18T07:36:39.358Z</time></trkpt><trkpt lat="42.8071515" lon="13.6516002"><ele>361.0</ele><time>2026-04-18T07:36:40.333Z</time></trkpt><trkpt lat="42.8071062" lon="13.6513931"><ele>361.0</ele><time>2026-04-18T07:36:41.338Z</time></trkpt><trkpt lat="42.8070619" lon="13.6511957"><ele>361.0</ele><time>2026-04-18T07:36:42.339Z</time></trkpt><trkpt lat="42.8070271" lon="13.6510096"><ele>359.75</ele><time>2026-04-18T07:36:43.321Z</time></trkpt><trkpt lat="42.8069934" lon="13.6508318"><ele>358.5</ele><time>2026-04-18T07:36:44.293Z</time></trkpt><trkpt lat="42.80695" lon="13.650663"><ele>357.25</ele><time>2026-04-18T07:36:45.302Z</time></trkpt><trkpt lat="42.8068879" lon="13.6505182"><ele>356.0</ele><time>2026-04-18T07:36:46.347Z</time></trkpt><trkpt lat="42.8067932" lon="13.6504096"><ele>359.0</ele><time>2026-04-18T07:36:47.351Z</time></trkpt><trkpt lat="42.8067007" lon="13.6503095"><ele>362.0</ele><time>2026-04-18T07:36:48.314Z</time></trkpt><trkpt lat="42.8066192" lon="13.6502234"><ele>365.0</ele><time>2026-04-18T07:36:49.327Z</time></trkpt><trkpt lat="42.8065582" lon="13.6501273"><ele>368.0</ele><time>2026-04-18T07:36:50.357Z</time></trkpt><trkpt lat="42.8065372" lon="13.6500138"><ele>371.0</ele><time>2026-04-18T07:36:51.308Z</time></trkpt><trkpt lat="42.8065567" lon="13.6498963"><ele>371.0</ele><time>2026-04-18T07:36:52.305Z</time></trkpt><trkpt lat="42.8066161" lon="13.649802"><ele>371.0</ele><time>2026-04-18T07:36:53.291Z</time></trkpt><trkpt lat="42.8067138" lon="13.6497464"><ele>371.0</ele><time>2026-04-18T07:36:54.344Z</time></trkpt><trkpt lat="42.8068128" lon="13.6496886"><ele>371.0</ele><time>2026-04-18T07:36:55.295Z</time></trkpt><trkpt lat="42.8069103" lon="13.6495788"><ele>371.0</ele><time>2026-04-18T07:36:56.326Z</time></trkpt><trkpt lat="42.8069658" lon="13.6494346"><ele>366.5</ele><time>2026-04-18T07:36:57.318Z</time></trkpt><trkpt lat="42.8069794" lon="13.6492554"><ele>362.0</ele><time>2026-04-18T07:36:58.334Z</time></trkpt><trkpt lat="42.8069713" lon="13.649064"><ele>357.5</ele><time>2026-04-18T07:36:59.311Z</time></trkpt><trkpt lat="42.8069722" lon="13.6488866"><ele>353.0</ele><time>2026-04-18T07:37:00.292Z</time></trkpt><trkpt lat="42.8069726" lon="13.6487118"><ele>355.0</ele><time>2026-04-18T07:37:01.322Z</time></trkpt><trkpt lat="42.8069755" lon="13.6485579"><ele>357.0</ele><time>2026-04-18T07:37:02.289Z</time></trkpt><trkpt lat="42.8069841" lon="13.6484241"><ele>359.0</ele><time>2026-04-18T07:37:03.305Z</time></trkpt><trkpt lat="42.8070192" lon="13.6483015"><ele>361.0</ele><time>2026-04-18T07:37:04.335Z</time></trkpt><trkpt lat="42.8070836" lon="13.6482196"><ele>363.0</ele><time>2026-04-18T07:37:05.318Z</time></trkpt><trkpt lat="42.8071721" lon="13.6482021"><ele>363.0</ele><time>2026-04-18T07:37:06.302Z</time></trkpt><trkpt lat="42.8072659" lon="13.6482348"><ele>363.0</ele><time>2026-04-18T07:37:07.291Z</time></trkpt><trkpt lat="42.8073487" lon="13.6483101"><ele>363.0</ele><time>2026-04-18T07:37:08.275Z</time></trkpt><trkpt lat="42.8074353" lon="13.64842"><ele>363.0</ele><time>2026-04-18T07:37:09.282Z</time></trkpt><trkpt lat="42.8075334" lon="13.6485445"><ele>363.0</ele><time>2026-04-18T07:37:10.303Z</time></trkpt><trkpt lat="42.8076471" lon="13.6486741"><ele>361.6666666666667</ele><time>2026-04-18T07:37:11.289Z</time></trkpt><trkpt lat="42.8077763" lon="13.6488214"><ele>360.33333333333337</ele><time>2026-04-18T07:37:12.331Z</time></trkpt><trkpt lat="42.8079001" lon="13.6489656"><ele>359.0</ele><time>2026-04-18T07:37:13.305Z</time></trkpt><trkpt lat="42.8080282" lon="13.6491152"><ele>359.0</ele><time>2026-04-18T07:37:14.346Z</time></trkpt><trkpt lat="42.8081476" lon="13.6492596"><ele>359.0</ele><time>2026-04-18T07:37:15.345Z</time></trkpt><trkpt lat="42.8082647" lon="13.6493907"><ele>359.0</ele><time>2026-04-18T07:37:16.296Z</time></trkpt><trkpt lat="42.8083867" lon="13.6495284"><ele>354.0</ele><time>2026-04-18T07:37:17.315Z</time></trkpt><trkpt lat="42.8085007" lon="13.6496665"><ele>349.0</ele><time>2026-04-18T07:37:18.3Z</time></trkpt><trkpt lat="42.8086151" lon="13.6498061"><ele>344.0</ele><time>2026-04-18T07:37:19.308Z</time></trkpt><trkpt lat="42.808734" lon="13.6499354"><ele>344.0</ele><time>2026-04-18T07:37:20.337Z</time></trkpt><trkpt lat="42.8088584" lon="13.650027"><ele>344.0</ele><time>2026-04-18T07:37:21.313Z</time></trkpt><trkpt lat="42.8090029" lon="13.6500822"><ele>344.0</ele><time>2026-04-18T07:37:22.335Z</time></trkpt><trkpt lat="42.8091569" lon="13.6500764"><ele>344.0</ele><time>2026-04-18T07:37:23.345Z</time></trkpt><trkpt lat="42.8093062" lon="13.6500399"><ele>341.5</ele><time>2026-04-18T07:37:24.303Z</time></trkpt><trkpt lat="42.8094536" lon="13.6499799"><ele>339.0</ele><time>2026-04-18T07:37:25.359Z</time></trkpt><trkpt lat="42.8095584" lon="13.649915"><ele>336.5</ele><time>2026-04-18T07:37:26.305Z</time></trkpt><trkpt lat="42.8096512" lon="13.6498258"><ele>334.0</ele><time>2026-04-18T07:37:27.329Z</time></trkpt><trkpt lat="42.809717" lon="13.6497091"><ele>334.0</ele><time>2026-04-18T07:37:28.301Z</time></trkpt><trkpt lat="42.8097667" lon="13.6495757"><ele>334.0</ele><time>2026-04-18T07:37:29.3Z</time></trkpt><trkpt lat="42.8097757" lon="13.6494326"><ele>334.0</ele><time>2026-04-18T07:37:30.365Z</time></trkpt><trkpt lat="42.8097566" lon="13.649299"><ele>334.0</ele><time>2026-04-18T07:37:31.308Z</time></trkpt><trkpt lat="42.8097002" lon="13.6491566"><ele>334.0</ele><time>2026-04-18T07:37:32.364Z</time></trkpt><trkpt lat="42.8095771" lon="13.6490184"><ele>334.75</ele><time>2026-04-18T07:37:33.295Z</time></trkpt><trkpt lat="42.8094689" lon="13.6488876"><ele>335.5</ele><time>2026-04-18T07:37:34.303Z</time></trkpt><trkpt lat="42.809392" lon="13.6487455"><ele>336.25</ele><time>2026-04-18T07:37:35.357Z</time></trkpt><trkpt lat="42.8093496" lon="13.6486069"><ele>337.0</ele><time>2026-04-18T07:37:36.32Z</time></trkpt><trkpt lat="42.8093303" lon="13.6484373"><ele>337.0</ele><time>2026-04-18T07:37:37.301Z</time></trkpt><trkpt lat="42.8093689" lon="13.6482801"><ele>337.0</ele><time>2026-04-18T07:37:38.303Z</time></trkpt><trkpt lat="42.8094126" lon="13.6481364"><ele>337.0</ele><time>2026-04-18T07:37:39.338Z</time></trkpt><trkpt lat="42.8094699" lon="13.6480241"><ele>337.0</ele><time>2026-04-18T07:37:40.451Z</time></trkpt><trkpt lat="42.809616" lon="13.648002"><ele>337.0</ele><time>2026-04-18T07:37:42.312Z</time></trkpt><trkpt lat="42.8098127" lon="13.6480812"><ele>337.0</ele><time>2026-04-18T07:37:43.312Z</time></trkpt><trkpt lat="42.8099905" lon="13.6481786"><ele>337.0</ele><time>2026-04-18T07:37:44.347Z</time></trkpt><trkpt lat="42.8100534" lon="13.6483106"><ele>337.0</ele><time>2026-04-18T07:37:45.299Z</time></trkpt><trkpt lat="42.8101255" lon="13.6484068"><ele>337.0</ele><time>2026-04-18T07:37:46.307Z</time></trkpt><trkpt lat="42.8101908" lon="13.6484713"><ele>337.0</ele><time>2026-04-18T07:37:47.294Z</time></trkpt><trkpt lat="42.8102802" lon="13.6485455"><ele>337.0</ele><time>2026-04-18T07:37:49.283Z</time></trkpt><trkpt lat="42.810362" lon="13.6485826"><ele>337.0</ele><time>2026-04-18T07:38:06.399Z</time></trkpt><trkpt lat="42.8104892" lon="13.6486155"><ele>337.8</ele><time>2026-04-18T07:38:08.473Z</time></trkpt><trkpt lat="42.8106295" lon="13.6485752"><ele>338.6</ele><time>2026-04-18T07:38:10.302Z</time></trkpt><trkpt lat="42.8107088" lon="13.6485254"><ele>339.40000000000003</ele><time>2026-04-18T07:38:11.309Z</time></trkpt><trkpt lat="42.8107918" lon="13.6484813"><ele>340.20000000000005</ele><time>2026-04-18T07:38:12.304Z</time></trkpt><trkpt lat="42.8108754" lon="13.6484593"><ele>341.0</ele><time>2026-04-18T07:38:13.283Z</time></trkpt><trkpt lat="42.8109612" lon="13.6484671"><ele>340.4</ele><time>2026-04-18T07:38:14.309Z</time></trkpt><trkpt lat="42.8110438" lon="13.6484976"><ele>339.8</ele><time>2026-04-18T07:38:15.276Z</time></trkpt><trkpt lat="42.811129" lon="13.6485488"><ele>339.2</ele><time>2026-04-18T07:38:16.264Z</time></trkpt><trkpt lat="42.8112206" lon="13.6486316"><ele>338.59999999999997</ele><time>2026-04-18T07:38:17.275Z</time></trkpt><trkpt lat="42.8113171" lon="13.6487381"><ele>338.0</ele><time>2026-04-18T07:38:18.3Z</time></trkpt><trkpt lat="42.811407" lon="13.6488354"><ele>337.0</ele><time>2026-04-18T07:38:19.308Z</time></trkpt><trkpt lat="42.8114958" lon="13.6489243"><ele>336.0</ele><time>2026-04-18T07:38:20.319Z</time></trkpt><trkpt lat="42.8115885" lon="13.6489898"><ele>335.0</ele><time>2026-04-18T07:38:21.29Z</time></trkpt><trkpt lat="42.8116888" lon="13.6490496"><ele>334.0</ele><time>2026-04-18T07:38:22.295Z</time></trkpt><trkpt lat="42.8117905" lon="13.6490911"><ele>333.0</ele><time>2026-04-18T07:38:23.288Z</time></trkpt><trkpt lat="42.8119031" lon="13.6491209"><ele>333.0</ele><time>2026-04-18T07:38:24.294Z</time></trkpt><trkpt lat="42.8120174" lon="13.6491483"><ele>333.0</ele><time>2026-04-18T07:38:25.291Z</time></trkpt><trkpt lat="42.812126" lon="13.6491681"><ele>333.0</ele><time>2026-04-18T07:38:26.286Z</time></trkpt><trkpt lat="42.8122389" lon="13.6491897"><ele>333.0</ele><time>2026-04-18T07:38:27.282Z</time></trkpt><trkpt lat="42.8123526" lon="13.6492066"><ele>333.0</ele><time>2026-04-18T07:38:28.278Z</time></trkpt><trkpt lat="42.8124604" lon="13.6492251"><ele>333.0</ele><time>2026-04-18T07:38:29.297Z</time></trkpt><trkpt lat="42.812561" lon="13.6492418"><ele>333.0</ele><time>2026-04-18T07:38:30.294Z</time></trkpt><trkpt lat="42.8126633" lon="13.6492591"><ele>333.0</ele><time>2026-04-18T07:38:31.273Z</time></trkpt><trkpt lat="42.812773" lon="13.6492744"><ele>333.0</ele><time>2026-04-18T07:38:32.285Z</time></trkpt><trkpt lat="42.8128815" lon="13.6492935"><ele>332.4</ele><time>2026-04-18T07:38:33.302Z</time></trkpt><trkpt lat="42.812983" lon="13.649306"><ele>331.79999999999995</ele><time>2026-04-18T07:38:34.287Z</time></trkpt><trkpt lat="42.8130967" lon="13.6493022"><ele>331.2</ele><time>2026-04-18T07:38:35.352Z</time></trkpt><trkpt lat="42.8131998" lon="13.6492753"><ele>330.6</ele><time>2026-04-18T07:38:36.327Z</time></trkpt><trkpt lat="42.8132986" lon="13.6492087"><ele>330.0</ele><time>2026-04-18T07:38:37.312Z</time></trkpt><trkpt lat="42.8133935" lon="13.6490935"><ele>330.0</ele><time>2026-04-18T07:38:38.425Z</time></trkpt><trkpt lat="42.8134457" lon="13.648967"><ele>330.0</ele><time>2026-04-18T07:38:39.353Z</time></trkpt><trkpt lat="42.8134759" lon="13.6488081"><ele>330.0</ele><time>2026-04-18T07:38:40.363Z</time></trkpt><trkpt lat="42.8135006" lon="13.6486597"><ele>330.0</ele><time>2026-04-18T07:38:41.314Z</time></trkpt><trkpt lat="42.8135288" lon="13.6485043"><ele>330.4</ele><time>2026-04-18T07:38:42.3Z</time></trkpt><trkpt lat="42.813557" lon="13.6483395"><ele>330.8</ele><time>2026-04-18T07:38:43.371Z</time></trkpt><trkpt lat="42.8135815" lon="13.6481966"><ele>331.20000000000005</ele><time>2026-04-18T07:38:44.337Z</time></trkpt><trkpt lat="42.813606" lon="13.6480543"><ele>331.6</ele><time>2026-04-18T07:38:45.339Z</time></trkpt><trkpt lat="42.8136274" lon="13.6479166"><ele>332.0</ele><time>2026-04-18T07:38:46.338Z</time></trkpt><trkpt lat="42.8136471" lon="13.6477858"><ele>332.40000000000003</ele><time>2026-04-18T07:38:47.328Z</time></trkpt><trkpt lat="42.8136642" lon="13.6476489"><ele>332.8</ele><time>2026-04-18T07:38:48.406Z</time></trkpt><trkpt lat="42.8136782" lon="13.6475382"><ele>333.2</ele><time>2026-04-18T07:38:49.307Z</time></trkpt><trkpt lat="42.8136948" lon="13.6474122"><ele>333.6</ele><time>2026-04-18T07:38:50.344Z</time></trkpt><trkpt lat="42.8137118" lon="13.6472807"><ele>334.0</ele><time>2026-04-18T07:38:51.384Z</time></trkpt><trkpt lat="42.8137301" lon="13.6471663"><ele>334.0</ele><time>2026-04-18T07:38:52.305Z</time></trkpt><trkpt lat="42.8137552" lon="13.647046"><ele>334.0</ele><time>2026-04-18T07:38:53.325Z</time></trkpt><trkpt lat="42.8137949" lon="13.6469468"><ele>334.0</ele><time>2026-04-18T07:38:54.308Z</time></trkpt><trkpt lat="42.8138568" lon="13.6468612"><ele>334.0</ele><time>2026-04-18T07:38:55.332Z</time></trkpt><trkpt lat="42.8139392" lon="13.6468211"><ele>334.0</ele><time>2026-04-18T07:38:56.291Z</time></trkpt><trkpt lat="42.814038" lon="13.6468112"><ele>334.0</ele><time>2026-04-18T07:38:57.292Z</time></trkpt><trkpt lat="42.8141547" lon="13.6468059"><ele>331.25</ele><time>2026-04-18T07:38:58.298Z</time></trkpt><trkpt lat="42.8142948" lon="13.6467981"><ele>328.5</ele><time>2026-04-18T07:38:59.402Z</time></trkpt><trkpt lat="42.8144168" lon="13.646792"><ele>325.75</ele><time>2026-04-18T07:39:00.354Z</time></trkpt><trkpt lat="42.8145561" lon="13.6467803"><ele>323.0</ele><time>2026-04-18T07:39:01.333Z</time></trkpt><trkpt lat="42.8146993" lon="13.6467659"><ele>322.6666666666667</ele><time>2026-04-18T07:39:02.284Z</time></trkpt><trkpt lat="42.8148541" lon="13.6467497"><ele>322.3333333333333</ele><time>2026-04-18T07:39:03.321Z</time></trkpt><trkpt lat="42.81501" lon="13.6467361"><ele>322.0</ele><time>2026-04-18T07:39:04.338Z</time></trkpt><trkpt lat="42.8151561" lon="13.6467205"><ele>320.5</ele><time>2026-04-18T07:39:05.31Z</time></trkpt><trkpt lat="42.8153071" lon="13.6467079"><ele>319.0</ele><time>2026-04-18T07:39:06.339Z</time></trkpt><trkpt lat="42.8154393" lon="13.6466966"><ele>317.5</ele><time>2026-04-18T07:39:07.294Z</time></trkpt><trkpt lat="42.8155683" lon="13.6466844"><ele>316.0</ele><time>2026-04-18T07:39:08.3Z</time></trkpt><trkpt lat="42.815682" lon="13.6466744"><ele>316.0</ele><time>2026-04-18T07:39:09.297Z</time></trkpt><trkpt lat="42.8157819" lon="13.6466753"><ele>316.0</ele><time>2026-04-18T07:39:10.269Z</time></trkpt><trkpt lat="42.815879" lon="13.6466999"><ele>316.0</ele><time>2026-04-18T07:39:11.282Z</time></trkpt><trkpt lat="42.8159487" lon="13.6467527"><ele>316.0</ele><time>2026-04-18T07:39:12.29Z</time></trkpt><trkpt lat="42.8159927" lon="13.6468628"><ele>316.0</ele><time>2026-04-18T07:39:13.285Z</time></trkpt><trkpt lat="42.8159919" lon="13.6470154"><ele>318.0</ele><time>2026-04-18T07:39:14.334Z</time></trkpt><trkpt lat="42.8159694" lon="13.6471944"><ele>320.0</ele><time>2026-04-18T07:39:15.403Z</time></trkpt><trkpt lat="42.815949" lon="13.6473439"><ele>322.0</ele><time>2026-04-18T07:39:16.315Z</time></trkpt><trkpt lat="42.8159373" lon="13.6475165"><ele>324.0</ele><time>2026-04-18T07:39:17.317Z</time></trkpt><trkpt lat="42.8159509" lon="13.6476874"><ele>324.25</ele><time>2026-04-18T07:39:18.291Z</time></trkpt><trkpt lat="42.8159756" lon="13.6478639"><ele>324.5</ele><time>2026-04-18T07:39:19.343Z</time></trkpt><trkpt lat="42.8159946" lon="13.6480142"><ele>324.75</ele><time>2026-04-18T07:39:20.273Z</time></trkpt><trkpt lat="42.8160123" lon="13.648176"><ele>325.0</ele><time>2026-04-18T07:39:21.292Z</time></trkpt><trkpt lat="42.816029" lon="13.6483292"><ele>323.0</ele><time>2026-04-18T07:39:22.289Z</time></trkpt><trkpt lat="42.8160496" lon="13.6484762"><ele>321.0</ele><time>2026-04-18T07:39:23.296Z</time></trkpt><trkpt lat="42.8160643" lon="13.6486089"><ele>319.0</ele><time>2026-04-18T07:39:24.297Z</time></trkpt><trkpt lat="42.8160916" lon="13.6487208"><ele>317.0</ele><time>2026-04-18T07:39:25.302Z</time></trkpt><trkpt lat="42.816187" lon="13.6488095"><ele>315.0</ele><time>2026-04-18T07:39:27.289Z</time></trkpt><trkpt lat="42.8162976" lon="13.6488183"><ele>315.0</ele><time>2026-04-18T07:39:28.279Z</time></trkpt><trkpt lat="42.8163913" lon="13.6487825"><ele>315.0</ele><time>2026-04-18T07:39:29.278Z</time></trkpt><trkpt lat="42.8164835" lon="13.6486915"><ele>315.0</ele><time>2026-04-18T07:39:30.311Z</time></trkpt><trkpt lat="42.8165386" lon="13.6485565"><ele>315.0</ele><time>2026-04-18T07:39:31.31Z</time></trkpt><trkpt lat="42.8165969" lon="13.6484237"><ele>315.0</ele><time>2026-04-18T07:39:32.348Z</time></trkpt><trkpt lat="42.8166572" lon="13.648356"><ele>314.8</ele><time>2026-04-18T07:39:33.28Z</time></trkpt><trkpt lat="42.8167324" lon="13.6483327"><ele>314.6</ele><time>2026-04-18T07:39:34.285Z</time></trkpt><trkpt lat="42.8168165" lon="13.6483814"><ele>314.4</ele><time>2026-04-18T07:39:35.299Z</time></trkpt><trkpt lat="42.8168983" lon="13.6484613"><ele>314.2</ele><time>2026-04-18T07:39:36.304Z</time></trkpt><trkpt lat="42.8169859" lon="13.648558"><ele>314.0</ele><time>2026-04-18T07:39:37.281Z</time></trkpt><trkpt lat="42.8170636" lon="13.6486514"><ele>314.0</ele><time>2026-04-18T07:39:38.298Z</time></trkpt><trkpt lat="42.8171459" lon="13.6487083"><ele>314.0</ele><time>2026-04-18T07:39:39.297Z</time></trkpt><trkpt lat="42.8172328" lon="13.6487043"><ele>314.0</ele><time>2026-04-18T07:39:40.292Z</time></trkpt><trkpt lat="42.8173037" lon="13.6486316"><ele>314.0</ele><time>2026-04-18T07:39:41.296Z</time></trkpt><trkpt lat="42.8173481" lon="13.6485032"><ele>314.0</ele><time>2026-04-18T07:39:42.393Z</time></trkpt><trkpt lat="42.8173525" lon="13.648371"><ele>313.0</ele><time>2026-04-18T07:39:43.308Z</time></trkpt><trkpt lat="42.8173348" lon="13.6482363"><ele>312.0</ele><time>2026-04-18T07:39:44.289Z</time></trkpt><trkpt lat="42.8173149" lon="13.6481155"><ele>311.0</ele><time>2026-04-18T07:39:45.262Z</time></trkpt><trkpt lat="42.8173037" lon="13.6479691"><ele>310.0</ele><time>2026-04-18T07:39:46.415Z</time></trkpt><trkpt lat="42.8173623" lon="13.6477293"><ele>308.8</ele><time>2026-04-18T07:39:48.309Z</time></trkpt><trkpt lat="42.8174203" lon="13.6476193"><ele>307.6</ele><time>2026-04-18T07:39:49.292Z</time></trkpt><trkpt lat="42.8174923" lon="13.647525"><ele>306.4</ele><time>2026-04-18T07:39:50.272Z</time></trkpt><trkpt lat="42.8175831" lon="13.6474554"><ele>305.2</ele><time>2026-04-18T07:39:51.291Z</time></trkpt><trkpt lat="42.8176847" lon="13.6474161"><ele>304.0</ele><time>2026-04-18T07:39:52.264Z</time></trkpt><trkpt lat="42.8177933" lon="13.6474033"><ele>304.0</ele><time>2026-04-18T07:39:53.283Z</time></trkpt><trkpt lat="42.8178985" lon="13.6473995"><ele>304.0</ele><time>2026-04-18T07:39:54.29Z</time></trkpt><trkpt lat="42.8180015" lon="13.6473719"><ele>304.0</ele><time>2026-04-18T07:39:55.289Z</time></trkpt><trkpt lat="42.8180984" lon="13.6473071"><ele>304.0</ele><time>2026-04-18T07:39:56.317Z</time></trkpt><trkpt lat="42.818176" lon="13.647208"><ele>304.0</ele><time>2026-04-18T07:39:57.383Z</time></trkpt><trkpt lat="42.8183258" lon="13.6470384"><ele>304.0</ele><time>2026-04-18T07:39:59.283Z</time></trkpt><trkpt lat="42.8184243" lon="13.6470044"><ele>304.0</ele><time>2026-04-18T07:40:00.281Z</time></trkpt><trkpt lat="42.8185215" lon="13.6470128"><ele>304.0</ele><time>2026-04-18T07:40:01.26Z</time></trkpt><trkpt lat="42.8186178" lon="13.6470389"><ele>304.0</ele><time>2026-04-18T07:40:02.265Z</time></trkpt><trkpt lat="42.8187231" lon="13.6470593"><ele>304.0</ele><time>2026-04-18T07:40:03.293Z</time></trkpt><trkpt lat="42.8188084" lon="13.6470291"><ele>302.8</ele><time>2026-04-18T07:40:04.293Z</time></trkpt><trkpt lat="42.8188711" lon="13.6469469"><ele>301.59999999999997</ele><time>2026-04-18T07:40:05.308Z</time></trkpt><trkpt lat="42.8189045" lon="13.6468323"><ele>300.4</ele><time>2026-04-18T07:40:06.283Z</time></trkpt><trkpt lat="42.8189027" lon="13.6466674"><ele>299.2</ele><time>2026-04-18T07:40:07.277Z</time></trkpt><trkpt lat="42.8189059" lon="13.64652"><ele>298.0</ele><time>2026-04-18T07:40:08.275Z</time></trkpt><trkpt lat="42.8189388" lon="13.6463822"><ele>298.0</ele><time>2026-04-18T07:40:09.385Z</time></trkpt><trkpt lat="42.8190741" lon="13.6462354"><ele>298.0</ele><time>2026-04-18T07:40:11.289Z</time></trkpt><trkpt lat="42.8191622" lon="13.6461889"><ele>298.0</ele><time>2026-04-18T07:40:12.282Z</time></trkpt><trkpt lat="42.8192559" lon="13.6461456"><ele>298.0</ele><time>2026-04-18T07:40:13.313Z</time></trkpt><trkpt lat="42.8193448" lon="13.646117"><ele>295.75</ele><time>2026-04-18T07:40:14.285Z</time></trkpt><trkpt lat="42.8194367" lon="13.6461166"><ele>293.5</ele><time>2026-04-18T07:40:15.295Z</time></trkpt><trkpt lat="42.8195405" lon="13.6461825"><ele>291.25</ele><time>2026-04-18T07:40:16.288Z</time></trkpt><trkpt lat="42.8196388" lon="13.6462768"><ele>289.0</ele><time>2026-04-18T07:40:17.273Z</time></trkpt><trkpt lat="42.8197292" lon="13.6463943"><ele>289.0</ele><time>2026-04-18T07:40:18.267Z</time></trkpt><trkpt lat="42.8198266" lon="13.6465274"><ele>289.0</ele><time>2026-04-18T07:40:19.281Z</time></trkpt><trkpt lat="42.8199244" lon="13.6466505"><ele>289.0</ele><time>2026-04-18T07:40:20.265Z</time></trkpt><trkpt lat="42.8200345" lon="13.6467622"><ele>289.0</ele><time>2026-04-18T07:40:21.264Z</time></trkpt><trkpt lat="42.8201488" lon="13.6468611"><ele>289.25</ele><time>2026-04-18T07:40:22.282Z</time></trkpt><trkpt lat="42.8202685" lon="13.6469278"><ele>289.5</ele><time>2026-04-18T07:40:23.298Z</time></trkpt><trkpt lat="42.8203922" lon="13.6469738"><ele>289.75</ele><time>2026-04-18T07:40:24.295Z</time></trkpt><trkpt lat="42.8205163" lon="13.6470105"><ele>290.0</ele><time>2026-04-18T07:40:25.295Z</time></trkpt><trkpt lat="42.8206334" lon="13.6470572"><ele>290.0</ele><time>2026-04-18T07:40:26.29Z</time></trkpt><trkpt lat="42.8207436" lon="13.6471192"><ele>290.0</ele><time>2026-04-18T07:40:27.282Z</time></trkpt><trkpt lat="42.8208437" lon="13.6471995"><ele>290.0</ele><time>2026-04-18T07:40:28.269Z</time></trkpt><trkpt lat="42.8209277" lon="13.6473151"><ele>290.0</ele><time>2026-04-18T07:40:29.287Z</time></trkpt><trkpt lat="42.8210016" lon="13.647441"><ele>287.2</ele><time>2026-04-18T07:40:30.322Z</time></trkpt><trkpt lat="42.8210594" lon="13.6475649"><ele>284.4</ele><time>2026-04-18T07:40:31.346Z</time></trkpt><trkpt lat="42.821113" lon="13.6476828"><ele>281.6</ele><time>2026-04-18T07:40:32.279Z</time></trkpt><trkpt lat="42.8211817" lon="13.6478098"><ele>278.8</ele><time>2026-04-18T07:40:33.357Z</time></trkpt><trkpt lat="42.8212533" lon="13.6479086"><ele>276.0</ele><time>2026-04-18T07:40:34.289Z</time></trkpt><trkpt lat="42.821339" lon="13.6480081"><ele>276.0</ele><time>2026-04-18T07:40:35.306Z</time></trkpt><trkpt lat="42.8214253" lon="13.6481132"><ele>276.0</ele><time>2026-04-18T07:40:36.271Z</time></trkpt><trkpt lat="42.8215129" lon="13.6482384"><ele>276.0</ele><time>2026-04-18T07:40:37.284Z</time></trkpt><trkpt lat="42.8215837" lon="13.6483941"><ele>276.0</ele><time>2026-04-18T07:40:38.336Z</time></trkpt><trkpt lat="42.8216272" lon="13.6485404"><ele>275.75</ele><time>2026-04-18T07:40:39.299Z</time></trkpt><trkpt lat="42.8216764" lon="13.6486899"><ele>275.5</ele><time>2026-04-18T07:40:40.308Z</time></trkpt><trkpt lat="42.8217248" lon="13.6488266"><ele>275.25</ele><time>2026-04-18T07:40:41.273Z</time></trkpt><trkpt lat="42.8217757" lon="13.6489671"><ele>275.0</ele><time>2026-04-18T07:40:42.302Z</time></trkpt><trkpt lat="42.8218282" lon="13.6490972"><ele>275.0</ele><time>2026-04-18T07:40:43.298Z</time></trkpt><trkpt lat="42.8218884" lon="13.6492165"><ele>275.0</ele><time>2026-04-18T07:40:44.309Z</time></trkpt><trkpt lat="42.8219585" lon="13.6493102"><ele>275.0</ele><time>2026-04-18T07:40:45.292Z</time></trkpt><trkpt lat="42.822039" lon="13.6493766"><ele>275.0</ele><time>2026-04-18T07:40:46.304Z</time></trkpt><trkpt lat="42.822114" lon="13.6493983"><ele>275.0</ele><time>2026-04-18T07:40:47.318Z</time></trkpt><trkpt lat="42.8222062" lon="13.6493688"><ele>275.0</ele><time>2026-04-18T07:40:48.301Z</time></trkpt><trkpt lat="42.8223341" lon="13.6492747"><ele>275.0</ele><time>2026-04-18T07:40:49.311Z</time></trkpt><trkpt lat="42.8224442" lon="13.649157"><ele>275.0</ele><time>2026-04-18T07:40:50.288Z</time></trkpt><trkpt lat="42.8225067" lon="13.6490253"><ele>275.0</ele><time>2026-04-18T07:40:51.286Z</time></trkpt><trkpt lat="42.8225338" lon="13.6488877"><ele>275.0</ele><time>2026-04-18T07:40:52.281Z</time></trkpt><trkpt lat="42.8225145" lon="13.6487301"><ele>275.0</ele><time>2026-04-18T07:40:53.273Z</time></trkpt><trkpt lat="42.8224854" lon="13.6485439"><ele>275.0</ele><time>2026-04-18T07:40:54.281Z</time></trkpt><trkpt lat="42.8224816" lon="13.6483414"><ele>275.0</ele><time>2026-04-18T07:40:55.329Z</time></trkpt><trkpt lat="42.8225067" lon="13.6481573"><ele>273.25</ele><time>2026-04-18T07:40:56.282Z</time></trkpt><trkpt lat="42.8225568" lon="13.6479705"><ele>271.5</ele><time>2026-04-18T07:40:57.299Z</time></trkpt><trkpt lat="42.8226136" lon="13.6477958"><ele>269.75</ele><time>2026-04-18T07:40:58.296Z</time></trkpt><trkpt lat="42.8226529" lon="13.6476213"><ele>268.0</ele><time>2026-04-18T07:40:59.294Z</time></trkpt><trkpt lat="42.8226769" lon="13.6474686"><ele>265.8</ele><time>2026-04-18T07:41:00.27Z</time></trkpt><trkpt lat="42.8226814" lon="13.6473206"><ele>263.6</ele><time>2026-04-18T07:41:01.27Z</time></trkpt><trkpt lat="42.8226815" lon="13.647171"><ele>261.4</ele><time>2026-04-18T07:41:02.269Z</time></trkpt><trkpt lat="42.8226822" lon="13.6470378"><ele>259.2</ele><time>2026-04-18T07:41:03.278Z</time></trkpt><trkpt lat="42.8226751" lon="13.6469108"><ele>257.0</ele><time>2026-04-18T07:41:04.293Z</time></trkpt><trkpt lat="42.8226896" lon="13.6467915"><ele>254.0</ele><time>2026-04-18T07:41:05.294Z</time></trkpt><trkpt lat="42.8227335" lon="13.6467005"><ele>251.0</ele><time>2026-04-18T07:41:06.286Z</time></trkpt><trkpt lat="42.8228077" lon="13.64665"><ele>248.0</ele><time>2026-04-18T07:41:07.29Z</time></trkpt><trkpt lat="42.8228959" lon="13.6466612"><ele>245.0</ele><time>2026-04-18T07:41:08.45Z</time></trkpt><trkpt lat="42.8230406" lon="13.6468394"><ele>242.0</ele><time>2026-04-18T07:41:10.302Z</time></trkpt><trkpt lat="42.8230938" lon="13.6469494"><ele>245.0</ele><time>2026-04-18T07:41:11.284Z</time></trkpt><trkpt lat="42.8231405" lon="13.6470769"><ele>248.0</ele><time>2026-04-18T07:41:12.277Z</time></trkpt><trkpt lat="42.8231798" lon="13.6472118"><ele>251.0</ele><time>2026-04-18T07:41:13.269Z</time></trkpt><trkpt lat="42.8232208" lon="13.6473446"><ele>254.0</ele><time>2026-04-18T07:41:14.265Z</time></trkpt><trkpt lat="42.8232628" lon="13.6474758"><ele>257.0</ele><time>2026-04-18T07:41:15.277Z</time></trkpt><trkpt lat="42.8232996" lon="13.6476074"><ele>257.0</ele><time>2026-04-18T07:41:16.271Z</time></trkpt><trkpt lat="42.8233347" lon="13.6477392"><ele>257.0</ele><time>2026-04-18T07:41:17.3Z</time></trkpt><trkpt lat="42.8233676" lon="13.6478718"><ele>257.0</ele><time>2026-04-18T07:41:18.34Z</time></trkpt><trkpt lat="42.8234082" lon="13.647971"><ele>257.0</ele><time>2026-04-18T07:41:19.277Z</time></trkpt><trkpt lat="42.8234832" lon="13.6480332"><ele>257.0</ele><time>2026-04-18T07:41:20.266Z</time></trkpt><trkpt lat="42.8235776" lon="13.6480449"><ele>258.0</ele><time>2026-04-18T07:41:21.286Z</time></trkpt><trkpt lat="42.8236651" lon="13.6479978"><ele>259.0</ele><time>2026-04-18T07:41:22.281Z</time></trkpt><trkpt lat="42.8237406" lon="13.6479096"><ele>260.0</ele><time>2026-04-18T07:41:23.29Z</time></trkpt><trkpt lat="42.8238144" lon="13.6478069"><ele>261.0</ele><time>2026-04-18T07:41:24.283Z</time></trkpt><trkpt lat="42.823883" lon="13.6476971"><ele>262.0</ele><time>2026-04-18T07:41:25.276Z</time></trkpt><trkpt lat="42.8239402" lon="13.6475782"><ele>259.0</ele><time>2026-04-18T07:41:26.28Z</time></trkpt><trkpt lat="42.823995" lon="13.6474558"><ele>256.0</ele><time>2026-04-18T07:41:27.283Z</time></trkpt><trkpt lat="42.8240454" lon="13.6473374"><ele>253.0</ele><time>2026-04-18T07:41:28.272Z</time></trkpt><trkpt lat="42.8240985" lon="13.6472314"><ele>250.0</ele><time>2026-04-18T07:41:29.262Z</time></trkpt><trkpt lat="42.8241593" lon="13.6471551"><ele>247.0</ele><time>2026-04-18T07:41:30.284Z</time></trkpt><trkpt lat="42.8242323" lon="13.6471461"><ele>247.0</ele><time>2026-04-18T07:41:31.253Z</time></trkpt><trkpt lat="42.8243053" lon="13.6472012"><ele>247.0</ele><time>2026-04-18T07:41:32.288Z</time></trkpt><trkpt lat="42.8243533" lon="13.6472943"><ele>247.0</ele><time>2026-04-18T07:41:33.264Z</time></trkpt><trkpt lat="42.8243979" lon="13.6474096"><ele>247.0</ele><time>2026-04-18T07:41:34.265Z</time></trkpt><trkpt lat="42.8244421" lon="13.6475368"><ele>247.0</ele><time>2026-04-18T07:41:35.293Z</time></trkpt><trkpt lat="42.8244981" lon="13.6476428"><ele>248.6</ele><time>2026-04-18T07:41:36.285Z</time></trkpt><trkpt lat="42.8245666" lon="13.64773"><ele>250.2</ele><time>2026-04-18T07:41:37.301Z</time></trkpt><trkpt lat="42.8246523" lon="13.647806"><ele>251.8</ele><time>2026-04-18T07:41:38.315Z</time></trkpt><trkpt lat="42.8247529" lon="13.6478711"><ele>253.4</ele><time>2026-04-18T07:41:39.284Z</time></trkpt><trkpt lat="42.8248522" lon="13.6479251"><ele>255.0</ele><time>2026-04-18T07:41:40.296Z</time></trkpt><trkpt lat="42.824944" lon="13.6479575"><ele>255.0</ele><time>2026-04-18T07:41:41.285Z</time></trkpt><trkpt lat="42.8250362" lon="13.6479743"><ele>255.0</ele><time>2026-04-18T07:41:42.268Z</time></trkpt><trkpt lat="42.8251259" lon="13.6479725"><ele>255.0</ele><time>2026-04-18T07:41:43.241Z</time></trkpt><trkpt lat="42.8252183" lon="13.6479396"><ele>255.0</ele><time>2026-04-18T07:41:44.269Z</time></trkpt><trkpt lat="42.825311" lon="13.6478949"><ele>255.0</ele><time>2026-04-18T07:41:45.275Z</time></trkpt><trkpt lat="42.8254009" lon="13.6478353"><ele>254.25</ele><time>2026-04-18T07:41:46.248Z</time></trkpt><trkpt lat="42.8254914" lon="13.647744"><ele>253.5</ele><time>2026-04-18T07:41:47.267Z</time></trkpt><trkpt lat="42.8255647" lon="13.6476237"><ele>252.75</ele><time>2026-04-18T07:41:48.251Z</time></trkpt><trkpt lat="42.8256303" lon="13.64746"><ele>252.0</ele><time>2026-04-18T07:41:49.396Z</time></trkpt><trkpt lat="42.8256787" lon="13.6471628"><ele>252.0</ele><time>2026-04-18T07:41:51Z</time></trkpt><trkpt lat="42.8256756" lon="13.6469988"><ele>252.0</ele><time>2026-04-18T07:41:51.999Z</time></trkpt><trkpt lat="42.8256515" lon="13.64683"><ele>252.0</ele><time>2026-04-18T07:41:52.999Z</time></trkpt><trkpt lat="42.8256086" lon="13.6466672"><ele>252.0</ele><time>2026-04-18T07:41:53.999Z</time></trkpt><trkpt lat="42.8255487" lon="13.6465019"><ele>250.0</ele><time>2026-04-18T07:41:55.252Z</time></trkpt><trkpt lat="42.8254784" lon="13.6463489"><ele>248.0</ele><time>2026-04-18T07:41:56.235Z</time></trkpt><trkpt lat="42.8254054" lon="13.6461936"><ele>246.0</ele><time>2026-04-18T07:41:57.273Z</time></trkpt><trkpt lat="42.8253383" lon="13.6460509"><ele>244.0</ele><time>2026-04-18T07:41:58.243Z</time></trkpt><trkpt lat="42.8252733" lon="13.6459044"><ele>242.75</ele><time>2026-04-18T07:41:59.266Z</time></trkpt><trkpt lat="42.8252132" lon="13.6457654"><ele>241.5</ele><time>2026-04-18T07:42:00.256Z</time></trkpt><trkpt lat="42.8251532" lon="13.64563"><ele>240.25</ele><time>2026-04-18T07:42:01.242Z</time></trkpt><trkpt lat="42.8250898" lon="13.6454753"><ele>239.0</ele><time>2026-04-18T07:42:02.368Z</time></trkpt><trkpt lat="42.825048" lon="13.6453438"><ele>235.5</ele><time>2026-04-18T07:42:03.277Z</time></trkpt><trkpt lat="42.825018" lon="13.6451954"><ele>232.0</ele><time>2026-04-18T07:42:04.248Z</time></trkpt><trkpt lat="42.8250017" lon="13.6450376"><ele>228.5</ele><time>2026-04-18T07:42:05.253Z</time></trkpt><trkpt lat="42.8249976" lon="13.6448838"><ele>225.0</ele><time>2026-04-18T07:42:06.272Z</time></trkpt><trkpt lat="42.8250148" lon="13.6447304"><ele>225.0</ele><time>2026-04-18T07:42:07.385Z</time></trkpt><trkpt lat="42.8250999" lon="13.6445074"><ele>225.0</ele><time>2026-04-18T07:42:09.274Z</time></trkpt><trkpt lat="42.8251536" lon="13.6444167"><ele>225.0</ele><time>2026-04-18T07:42:10.285Z</time></trkpt><trkpt lat="42.8252028" lon="13.6443363"><ele>225.0</ele><time>2026-04-18T07:42:11.26Z</time></trkpt><trkpt lat="42.8252569" lon="13.6442494"><ele>225.0</ele><time>2026-04-18T07:42:12.313Z</time></trkpt><trkpt lat="42.8253107" lon="13.644173"><ele>223.83333333333334</ele><time>2026-04-18T07:42:13.28Z</time></trkpt><trkpt lat="42.8253724" lon="13.6441054"><ele>222.66666666666669</ele><time>2026-04-18T07:42:14.268Z</time></trkpt><trkpt lat="42.8254404" lon="13.6440502"><ele>221.5</ele><time>2026-04-18T07:42:15.256Z</time></trkpt><trkpt lat="42.8255149" lon="13.6440276"><ele>220.33333333333334</ele><time>2026-04-18T07:42:16.304Z</time></trkpt><trkpt lat="42.825588" lon="13.6440339"><ele>219.16666666666669</ele><time>2026-04-18T07:42:17.242Z</time></trkpt><trkpt lat="42.8256651" lon="13.6440637"><ele>218.0</ele><time>2026-04-18T07:42:18.267Z</time></trkpt><trkpt lat="42.8257484" lon="13.6441339"><ele>218.0</ele><time>2026-04-18T07:42:19.266Z</time></trkpt><trkpt lat="42.8258383" lon="13.6442198"><ele>218.0</ele><time>2026-04-18T07:42:20.25Z</time></trkpt><trkpt lat="42.8259322" lon="13.6443163"><ele>218.0</ele><time>2026-04-18T07:42:21.287Z</time></trkpt><trkpt lat="42.8260163" lon="13.6444112"><ele>218.0</ele><time>2026-04-18T07:42:22.288Z</time></trkpt><trkpt lat="42.8261017" lon="13.6445041"><ele>218.0</ele><time>2026-04-18T07:42:23.283Z</time></trkpt><trkpt lat="42.8261823" lon="13.6445931"><ele>219.00000000000003</ele><time>2026-04-18T07:42:24.283Z</time></trkpt><trkpt lat="42.8262503" lon="13.6446603"><ele>220.0</ele><time>2026-04-18T07:42:25.272Z</time></trkpt><trkpt lat="42.8263182" lon="13.6447268"><ele>221.0</ele><time>2026-04-18T07:42:26.258Z</time></trkpt><trkpt lat="42.8263904" lon="13.6447856"><ele>222.0</ele><time>2026-04-18T07:42:27.274Z</time></trkpt><trkpt lat="42.8264614" lon="13.6448278"><ele>223.00000000000003</ele><time>2026-04-18T07:42:28.261Z</time></trkpt><trkpt lat="42.8265286" lon="13.6448248"><ele>224.0</ele><time>2026-04-18T07:42:29.245Z</time></trkpt><trkpt lat="42.8266426" lon="13.6447226"><ele>224.0</ele><time>2026-04-18T07:42:31.274Z</time></trkpt><trkpt lat="42.826681" lon="13.6446176"><ele>223.99999999999997</ele><time>2026-04-18T07:42:32.284Z</time></trkpt><trkpt lat="42.8266975" lon="13.644491"><ele>223.99999999999997</ele><time>2026-04-18T07:42:33.291Z</time></trkpt><trkpt lat="42.8267155" lon="13.6443636"><ele>224.0</ele><time>2026-04-18T07:42:34.275Z</time></trkpt><trkpt lat="42.8267451" lon="13.6442334"><ele>224.0</ele><time>2026-04-18T07:42:35.297Z</time></trkpt><trkpt lat="42.826795" lon="13.6441018"><ele>221.2</ele><time>2026-04-18T07:42:36.31Z</time></trkpt><trkpt lat="42.82686" lon="13.6439889"><ele>218.39999999999998</ele><time>2026-04-18T07:42:37.29Z</time></trkpt><trkpt lat="42.8269326" lon="13.6438751"><ele>215.6</ele><time>2026-04-18T07:42:38.297Z</time></trkpt><trkpt lat="42.827002" lon="13.6437629"><ele>212.8</ele><time>2026-04-18T07:42:39.272Z</time></trkpt><trkpt lat="42.8270663" lon="13.6436459"><ele>210.0</ele><time>2026-04-18T07:42:40.262Z</time></trkpt><trkpt lat="42.8271278" lon="13.6435328"><ele>207.83333333333334</ele><time>2026-04-18T07:42:41.271Z</time></trkpt><trkpt lat="42.8271968" lon="13.6434302"><ele>205.66666666666669</ele><time>2026-04-18T07:42:42.355Z</time></trkpt><trkpt lat="42.8272628" lon="13.6433646"><ele>203.5</ele><time>2026-04-18T07:42:43.27Z</time></trkpt><trkpt lat="42.8273438" lon="13.643325"><ele>201.33333333333334</ele><time>2026-04-18T07:42:44.246Z</time></trkpt><trkpt lat="42.8274305" lon="13.6433314"><ele>199.16666666666669</ele><time>2026-04-18T07:42:45.267Z</time></trkpt><trkpt lat="42.8275095" lon="13.6433801"><ele>197.0</ele><time>2026-04-18T07:42:46.261Z</time></trkpt><trkpt lat="42.8275903" lon="13.6434511"><ele>197.0</ele><time>2026-04-18T07:42:47.298Z</time></trkpt><trkpt lat="42.8276756" lon="13.6435349"><ele>197.0</ele><time>2026-04-18T07:42:48.281Z</time></trkpt><trkpt lat="42.8277723" lon="13.6436361"><ele>197.0</ele><time>2026-04-18T07:42:49.28Z</time></trkpt><trkpt lat="42.827868" lon="13.6437391"><ele>197.0</ele><time>2026-04-18T07:42:50.264Z</time></trkpt><trkpt lat="42.8279693" lon="13.643849"><ele>197.0</ele><time>2026-04-18T07:42:51.282Z</time></trkpt><trkpt lat="42.8280687" lon="13.6439548"><ele>197.0</ele><time>2026-04-18T07:42:52.288Z</time></trkpt><trkpt lat="42.8281605" lon="13.6440741"><ele>197.0</ele><time>2026-04-18T07:42:53.284Z</time></trkpt><trkpt lat="42.828238" lon="13.6442075"><ele>197.0</ele><time>2026-04-18T07:42:54.296Z</time></trkpt><trkpt lat="42.8283105" lon="13.644339"><ele>198.0</ele><time>2026-04-18T07:42:55.279Z</time></trkpt><trkpt lat="42.8283796" lon="13.6444768"><ele>199.0</ele><time>2026-04-18T07:42:56.285Z</time></trkpt><trkpt lat="42.8284521" lon="13.644603"><ele>200.0</ele><time>2026-04-18T07:42:57.33Z</time></trkpt><trkpt lat="42.8285187" lon="13.6447145"><ele>201.0</ele><time>2026-04-18T07:42:58.278Z</time></trkpt><trkpt lat="42.8285903" lon="13.6448353"><ele>199.5</ele><time>2026-04-18T07:42:59.31Z</time></trkpt><trkpt lat="42.8286532" lon="13.644949"><ele>198.0</ele><time>2026-04-18T07:43:00.273Z</time></trkpt><trkpt lat="42.8287142" lon="13.6450607"><ele>196.5</ele><time>2026-04-18T07:43:01.313Z</time></trkpt><trkpt lat="42.8287639" lon="13.6451541"><ele>195.0</ele><time>2026-04-18T07:43:02.318Z</time></trkpt><trkpt lat="42.8288138" lon="13.6452378"><ele>193.5</ele><time>2026-04-18T07:43:03.316Z</time></trkpt><trkpt lat="42.8288492" lon="13.6453105"><ele>192.0</ele><time>2026-04-18T07:43:04.304Z</time></trkpt><trkpt lat="42.8289101" lon="13.6454259"><ele>192.0</ele><time>2026-04-18T07:43:06.29Z</time></trkpt><trkpt lat="42.8289761" lon="13.6455609"><ele>192.0</ele><time>2026-04-18T07:43:08.271Z</time></trkpt><trkpt lat="42.8290266" lon="13.6456432"><ele>192.0</ele><time>2026-04-18T07:43:09.328Z</time></trkpt><trkpt lat="42.8290748" lon="13.6457344"><ele>192.0</ele><time>2026-04-18T07:43:10.29Z</time></trkpt><trkpt lat="42.8291194" lon="13.645853"><ele>192.0</ele><time>2026-04-18T07:43:11.316Z</time></trkpt><trkpt lat="42.8291526" lon="13.6459893"><ele>191.0</ele><time>2026-04-18T07:43:12.289Z</time></trkpt><trkpt lat="42.8291731" lon="13.6461416"><ele>190.0</ele><time>2026-04-18T07:43:13.293Z</time></trkpt><trkpt lat="42.8291772" lon="13.6463233"><ele>189.0</ele><time>2026-04-18T07:43:14.433Z</time></trkpt><trkpt lat="42.8291436" lon="13.6466318"><ele>189.0</ele><time>2026-04-18T07:43:16.46Z</time></trkpt><trkpt lat="42.8291216" lon="13.6468885"><ele>189.0</ele><time>2026-04-18T07:43:18.326Z</time></trkpt><trkpt lat="42.8291387" lon="13.6470169"><ele>189.0</ele><time>2026-04-18T07:43:19.312Z</time></trkpt><trkpt lat="42.8291861" lon="13.6471325"><ele>189.0</ele><time>2026-04-18T07:43:20.309Z</time></trkpt><trkpt lat="42.8292675" lon="13.6472185"><ele>187.25</ele><time>2026-04-18T07:43:21.314Z</time></trkpt><trkpt lat="42.829376" lon="13.6472871"><ele>185.5</ele><time>2026-04-18T07:43:22.447Z</time></trkpt><trkpt lat="42.829577" lon="13.6473541"><ele>183.75</ele><time>2026-04-18T07:43:24.289Z</time></trkpt><trkpt lat="42.8296919" lon="13.6473922"><ele>182.0</ele><time>2026-04-18T07:43:25.287Z</time></trkpt><trkpt lat="42.8298168" lon="13.6474352"><ele>182.0</ele><time>2026-04-18T07:43:26.346Z</time></trkpt><trkpt lat="42.8299311" lon="13.6474684"><ele>182.0</ele><time>2026-04-18T07:43:27.326Z</time></trkpt><trkpt lat="42.8300439" lon="13.6475042"><ele>182.0</ele><time>2026-04-18T07:43:28.389Z</time></trkpt><trkpt lat="42.8301405" lon="13.6475392"><ele>182.0</ele><time>2026-04-18T07:43:29.291Z</time></trkpt><trkpt lat="42.8302419" lon="13.6475704"><ele>182.0</ele><time>2026-04-18T07:43:30.292Z</time></trkpt><trkpt lat="42.8303315" lon="13.6475747"><ele>184.0</ele><time>2026-04-18T07:43:31.291Z</time></trkpt><trkpt lat="42.8304142" lon="13.6475328"><ele>186.0</ele><time>2026-04-18T07:43:32.275Z</time></trkpt><trkpt lat="42.8304861" lon="13.647452"><ele>188.0</ele><time>2026-04-18T07:43:33.27Z</time></trkpt><trkpt lat="42.8305438" lon="13.64734"><ele>190.0</ele><time>2026-04-18T07:43:34.294Z</time></trkpt><trkpt lat="42.8305879" lon="13.6471899"><ele>192.0</ele><time>2026-04-18T07:43:35.287Z</time></trkpt><trkpt lat="42.8306445" lon="13.6470135"><ele>189.25</ele><time>2026-04-18T07:43:36.413Z</time></trkpt><trkpt lat="42.8307348" lon="13.6467406"><ele>186.5</ele><time>2026-04-18T07:43:38.267Z</time></trkpt><trkpt lat="42.8307773" lon="13.6466005"><ele>183.75</ele><time>2026-04-18T07:43:39.256Z</time></trkpt><trkpt lat="42.8308221" lon="13.646463"><ele>181.0</ele><time>2026-04-18T07:43:40.264Z</time></trkpt><trkpt lat="42.8308802" lon="13.6463397"><ele>181.0</ele><time>2026-04-18T07:43:41.301Z</time></trkpt><trkpt lat="42.8309494" lon="13.6462536"><ele>181.0</ele><time>2026-04-18T07:43:42.259Z</time></trkpt><trkpt lat="42.8310484" lon="13.6461935"><ele>181.0</ele><time>2026-04-18T07:43:43.282Z</time></trkpt><trkpt lat="42.8311602" lon="13.646152"><ele>181.0</ele><time>2026-04-18T07:43:44.26Z</time></trkpt><trkpt lat="42.8312687" lon="13.646098"><ele>181.0</ele><time>2026-04-18T07:43:45.257Z</time></trkpt><trkpt lat="42.8313703" lon="13.6460332"><ele>181.0</ele><time>2026-04-18T07:43:46.28Z</time></trkpt><trkpt lat="42.8314605" lon="13.6459472"><ele>181.0</ele><time>2026-04-18T07:43:47.292Z</time></trkpt><trkpt lat="42.8315234" lon="13.6458299"><ele>181.0</ele><time>2026-04-18T07:43:48.308Z</time></trkpt><trkpt lat="42.8315534" lon="13.6456988"><ele>181.0</ele><time>2026-04-18T07:43:49.28Z</time></trkpt><trkpt lat="42.8315578" lon="13.6455491"><ele>181.0</ele><time>2026-04-18T07:43:50.274Z</time></trkpt><trkpt lat="42.831556" lon="13.6453925"><ele>180.25</ele><time>2026-04-18T07:43:51.256Z</time></trkpt><trkpt lat="42.8315561" lon="13.6452189"><ele>179.5</ele><time>2026-04-18T07:43:52.274Z</time></trkpt><trkpt lat="42.83156" lon="13.6450363"><ele>178.75</ele><time>2026-04-18T07:43:53.28Z</time></trkpt><trkpt lat="42.8315594" lon="13.6448405"><ele>178.0</ele><time>2026-04-18T07:43:54.336Z</time></trkpt><trkpt lat="42.8315602" lon="13.6446749"><ele>178.0</ele><time>2026-04-18T07:43:55.297Z</time></trkpt><trkpt lat="42.8315605" lon="13.6445029"><ele>178.0</ele><time>2026-04-18T07:43:56.284Z</time></trkpt><trkpt lat="42.8315587" lon="13.644332"><ele>178.0</ele><time>2026-04-18T07:43:57.3Z</time></trkpt><trkpt lat="42.8315617" lon="13.6441646"><ele>178.0</ele><time>2026-04-18T07:43:58.289Z</time></trkpt><trkpt lat="42.8315721" lon="13.6439969"><ele>175.75</ele><time>2026-04-18T07:43:59.338Z</time></trkpt><trkpt lat="42.8316014" lon="13.6438463"><ele>173.5</ele><time>2026-04-18T07:44:00.302Z</time></trkpt><trkpt lat="42.8316494" lon="13.6436903"><ele>171.25</ele><time>2026-04-18T07:44:01.309Z</time></trkpt><trkpt lat="42.8317106" lon="13.64354"><ele>169.0</ele><time>2026-04-18T07:44:02.294Z</time></trkpt><trkpt lat="42.831793" lon="13.64339"><ele>169.25</ele><time>2026-04-18T07:44:03.312Z</time></trkpt><trkpt lat="42.831882" lon="13.6432531"><ele>169.5</ele><time>2026-04-18T07:44:04.284Z</time></trkpt><trkpt lat="42.8319747" lon="13.6431202"><ele>169.75</ele><time>2026-04-18T07:44:05.273Z</time></trkpt><trkpt lat="42.8320702" lon="13.6429967"><ele>170.0</ele><time>2026-04-18T07:44:06.281Z</time></trkpt><trkpt lat="42.8321791" lon="13.6428969"><ele>170.0</ele><time>2026-04-18T07:44:07.268Z</time></trkpt><trkpt lat="42.8323062" lon="13.6428222"><ele>170.0</ele><time>2026-04-18T07:44:08.262Z</time></trkpt><trkpt lat="42.8324423" lon="13.6427408"><ele>170.0</ele><time>2026-04-18T07:44:09.254Z</time></trkpt><trkpt lat="42.8325674" lon="13.6426465"><ele>170.0</ele><time>2026-04-18T07:44:10.26Z</time></trkpt><trkpt lat="42.8326951" lon="13.6425878"><ele>166.0</ele><time>2026-04-18T07:44:11.265Z</time></trkpt><trkpt lat="42.8328263" lon="13.642569"><ele>162.0</ele><time>2026-04-18T07:44:12.267Z</time></trkpt><trkpt lat="42.8329597" lon="13.6425954"><ele>158.0</ele><time>2026-04-18T07:44:13.291Z</time></trkpt><trkpt lat="42.8330828" lon="13.642648"><ele>154.0</ele><time>2026-04-18T07:44:14.268Z</time></trkpt><trkpt lat="42.8331929" lon="13.6427423"><ele>153.75</ele><time>2026-04-18T07:44:15.254Z</time></trkpt><trkpt lat="42.8332969" lon="13.6428603"><ele>153.5</ele><time>2026-04-18T07:44:16.267Z</time></trkpt><trkpt lat="42.8333941" lon="13.6430128"><ele>153.25</ele><time>2026-04-18T07:44:17.322Z</time></trkpt><trkpt lat="42.8334733" lon="13.6431449"><ele>153.0</ele><time>2026-04-18T07:44:18.29Z</time></trkpt><trkpt lat="42.8335553" lon="13.6432903"><ele>153.0</ele><time>2026-04-18T07:44:19.353Z</time></trkpt><trkpt lat="42.8336264" lon="13.6434147"><ele>153.0</ele><time>2026-04-18T07:44:20.285Z</time></trkpt><trkpt lat="42.8337065" lon="13.6435407"><ele>153.0</ele><time>2026-04-18T07:44:21.309Z</time></trkpt><trkpt lat="42.8337869" lon="13.6436396"><ele>153.0</ele><time>2026-04-18T07:44:22.294Z</time></trkpt><trkpt lat="42.8338636" lon="13.6436979"><ele>153.0</ele><time>2026-04-18T07:44:23.279Z</time></trkpt><trkpt lat="42.8339716" lon="13.643729"><ele>153.0</ele><time>2026-04-18T07:44:24.405Z</time></trkpt><trkpt lat="42.8341954" lon="13.6435289"><ele>153.0</ele><time>2026-04-18T07:44:26.312Z</time></trkpt><trkpt lat="42.8342492" lon="13.6434062"><ele>153.0</ele><time>2026-04-18T07:44:27.287Z</time></trkpt><trkpt lat="42.8342979" lon="13.6432206"><ele>153.0</ele><time>2026-04-18T07:44:28.264Z</time></trkpt><trkpt lat="42.834342" lon="13.6430343"><ele>153.0</ele><time>2026-04-18T07:44:29.285Z</time></trkpt><trkpt lat="42.8343859" lon="13.6428597"><ele>153.0</ele><time>2026-04-18T07:44:30.289Z</time></trkpt><trkpt lat="42.8344221" lon="13.6426911"><ele>153.0</ele><time>2026-04-18T07:44:31.278Z</time></trkpt><trkpt lat="42.8344381" lon="13.6425256"><ele>153.0</ele><time>2026-04-18T07:44:32.273Z</time></trkpt><trkpt lat="42.8344368" lon="13.6423334"><ele>153.0</ele><time>2026-04-18T07:44:33.257Z</time></trkpt><trkpt lat="42.8343949" lon="13.6421368"><ele>153.0</ele><time>2026-04-18T07:44:34.259Z</time></trkpt><trkpt lat="42.83435" lon="13.6419708"><ele>153.0</ele><time>2026-04-18T07:44:35.27Z</time></trkpt><trkpt lat="42.8342673" lon="13.6417961"><ele>151.0</ele><time>2026-04-18T07:44:36.273Z</time></trkpt><trkpt lat="42.8342021" lon="13.641617"><ele>149.0</ele><time>2026-04-18T07:44:37.316Z</time></trkpt><trkpt lat="42.8341489" lon="13.6414493"><ele>147.0</ele><time>2026-04-18T07:44:38.29Z</time></trkpt><trkpt lat="42.8341139" lon="13.6412761"><ele>145.0</ele><time>2026-04-18T07:44:39.28Z</time></trkpt><trkpt lat="42.8340947" lon="13.6410865"><ele>144.5</ele><time>2026-04-18T07:44:40.28Z</time></trkpt><trkpt lat="42.8341049" lon="13.6408949"><ele>144.0</ele><time>2026-04-18T07:44:41.267Z</time></trkpt><trkpt lat="42.8341321" lon="13.6406922"><ele>143.5</ele><time>2026-04-18T07:44:42.28Z</time></trkpt><trkpt lat="42.8341609" lon="13.6404848"><ele>143.0</ele><time>2026-04-18T07:44:43.28Z</time></trkpt><trkpt lat="42.8341955" lon="13.6402534"><ele>141.0</ele><time>2026-04-18T07:44:44.289Z</time></trkpt><trkpt lat="42.83423" lon="13.6400129"><ele>139.0</ele><time>2026-04-18T07:44:45.282Z</time></trkpt><trkpt lat="42.8342643" lon="13.6397869"><ele>137.0</ele><time>2026-04-18T07:44:46.297Z</time></trkpt><trkpt lat="42.8343041" lon="13.639552"><ele>134.33333333333331</ele><time>2026-04-18T07:44:47.414Z</time></trkpt><trkpt lat="42.834363" lon="13.6392014"><ele>131.66666666666666</ele><time>2026-04-18T07:44:49.316Z</time></trkpt><trkpt lat="42.8343922" lon="13.6390688"><ele>129.0</ele><time>2026-04-18T07:44:50.283Z</time></trkpt><trkpt lat="42.8344199" lon="13.6389173"><ele>129.0</ele><time>2026-04-18T07:44:51.292Z</time></trkpt><trkpt lat="42.8344512" lon="13.6387613"><ele>129.0</ele><time>2026-04-18T07:44:52.355Z</time></trkpt><trkpt lat="42.834485" lon="13.6386249"><ele>129.0</ele><time>2026-04-18T07:44:53.308Z</time></trkpt><trkpt lat="42.8345385" lon="13.6384809"><ele>129.0</ele><time>2026-04-18T07:44:54.301Z</time></trkpt><trkpt lat="42.8346151" lon="13.6383523"><ele>130.75</ele><time>2026-04-18T07:44:55.308Z</time></trkpt><trkpt lat="42.8347099" lon="13.6382313"><ele>132.5</ele><time>2026-04-18T07:44:56.297Z</time></trkpt><trkpt lat="42.8348052" lon="13.6380944"><ele>134.25</ele><time>2026-04-18T07:44:57.281Z</time></trkpt><trkpt lat="42.8349198" lon="13.6379557"><ele>136.0</ele><time>2026-04-18T07:44:58.303Z</time></trkpt><trkpt lat="42.8350324" lon="13.6378222"><ele>137.0</ele><time>2026-04-18T07:44:59.295Z</time></trkpt><trkpt lat="42.8351412" lon="13.6376992"><ele>138.0</ele><time>2026-04-18T07:45:00.31Z</time></trkpt><trkpt lat="42.835237" lon="13.6375895"><ele>139.0</ele><time>2026-04-18T07:45:01.343Z</time></trkpt><trkpt lat="42.8353205" lon="13.6374961"><ele>140.0</ele><time>2026-04-18T07:45:02.3Z</time></trkpt><trkpt lat="42.8354005" lon="13.6373945"><ele>140.0</ele><time>2026-04-18T07:45:03.318Z</time></trkpt><trkpt lat="42.8354796" lon="13.6373062"><ele>140.0</ele><time>2026-04-18T07:45:04.288Z</time></trkpt><trkpt lat="42.8355963" lon="13.6372447"><ele>140.0</ele><time>2026-04-18T07:45:05.31Z</time></trkpt><trkpt lat="42.8357252" lon="13.6372183"><ele>140.0</ele><time>2026-04-18T07:45:06.298Z</time></trkpt><trkpt lat="42.835871" lon="13.6372094"><ele>139.5</ele><time>2026-04-18T07:45:07.311Z</time></trkpt><trkpt lat="42.8360122" lon="13.6372125"><ele>139.0</ele><time>2026-04-18T07:45:08.283Z</time></trkpt><trkpt lat="42.8361403" lon="13.6372156"><ele>138.5</ele><time>2026-04-18T07:45:09.267Z</time></trkpt><trkpt lat="42.8362793" lon="13.6372127"><ele>138.0</ele><time>2026-04-18T07:45:10.316Z</time></trkpt><trkpt lat="42.8364153" lon="13.6372053"><ele>138.0</ele><time>2026-04-18T07:45:11.35Z</time></trkpt><trkpt lat="42.8365345" lon="13.6371988"><ele>138.0</ele><time>2026-04-18T07:45:12.304Z</time></trkpt><trkpt lat="42.836664" lon="13.6371925"><ele>138.0</ele><time>2026-04-18T07:45:13.392Z</time></trkpt><trkpt lat="42.8367549" lon="13.6371792"><ele>138.0</ele><time>2026-04-18T07:45:14.292Z</time></trkpt><trkpt lat="42.8368652" lon="13.6371483"><ele>137.4</ele><time>2026-04-18T07:45:15.451Z</time></trkpt><trkpt lat="42.8370131" lon="13.6370888"><ele>136.8</ele><time>2026-04-18T07:45:17.315Z</time></trkpt><trkpt lat="42.8370885" lon="13.6370537"><ele>136.2</ele><time>2026-04-18T07:45:18.298Z</time></trkpt><trkpt lat="42.8371655" lon="13.6370146"><ele>135.6</ele><time>2026-04-18T07:45:19.311Z</time></trkpt><trkpt lat="42.8372457" lon="13.6369719"><ele>135.0</ele><time>2026-04-18T07:45:20.305Z</time></trkpt><trkpt lat="42.8373293" lon="13.636928"><ele>135.0</ele><time>2026-04-18T07:45:21.311Z</time></trkpt><trkpt lat="42.8374128" lon="13.6368801"><ele>135.0</ele><time>2026-04-18T07:45:22.314Z</time></trkpt><trkpt lat="42.8374966" lon="13.6368282"><ele>135.0</ele><time>2026-04-18T07:45:23.298Z</time></trkpt><trkpt lat="42.8375901" lon="13.6367674"><ele>135.0</ele><time>2026-04-18T07:45:24.325Z</time></trkpt><trkpt lat="42.837691" lon="13.6367038"><ele>135.0</ele><time>2026-04-18T07:45:25.316Z</time></trkpt><trkpt lat="42.8378042" lon="13.6366352"><ele>134.5</ele><time>2026-04-18T07:45:26.343Z</time></trkpt><trkpt lat="42.8379161" lon="13.6365695"><ele>134.0</ele><time>2026-04-18T07:45:27.315Z</time></trkpt><trkpt lat="42.8380416" lon="13.6364973"><ele>133.5</ele><time>2026-04-18T07:45:28.361Z</time></trkpt><trkpt lat="42.8381644" lon="13.6364246"><ele>133.0</ele><time>2026-04-18T07:45:29.353Z</time></trkpt><trkpt lat="42.8382888" lon="13.6363504"><ele>133.0</ele><time>2026-04-18T07:45:30.314Z</time></trkpt><trkpt lat="42.8384256" lon="13.6362667"><ele>133.0</ele><time>2026-04-18T07:45:31.341Z</time></trkpt><trkpt lat="42.8385603" lon="13.6361846"><ele>133.0</ele><time>2026-04-18T07:45:32.327Z</time></trkpt><trkpt lat="42.8387009" lon="13.6361022"><ele>131.66666666666669</ele><time>2026-04-18T07:45:33.317Z</time></trkpt><trkpt lat="42.8388531" lon="13.6360145"><ele>130.33333333333334</ele><time>2026-04-18T07:45:34.374Z</time></trkpt><trkpt lat="42.838993" lon="13.6359348"><ele>129.0</ele><time>2026-04-18T07:45:35.356Z</time></trkpt><trkpt lat="42.8391321" lon="13.6358577"><ele>129.0</ele><time>2026-04-18T07:45:36.339Z</time></trkpt><trkpt lat="42.839266" lon="13.6357827"><ele>129.0</ele><time>2026-04-18T07:45:37.303Z</time></trkpt><trkpt lat="42.8394007" lon="13.6357066"><ele>129.0</ele><time>2026-04-18T07:45:38.278Z</time></trkpt><trkpt lat="42.8395347" lon="13.6356264"><ele>129.0</ele><time>2026-04-18T07:45:39.28Z</time></trkpt><trkpt lat="42.8396774" lon="13.6355505"><ele>127.75</ele><time>2026-04-18T07:45:40.29Z</time></trkpt><trkpt lat="42.8398164" lon="13.6354789"><ele>126.5</ele><time>2026-04-18T07:45:41.326Z</time></trkpt><trkpt lat="42.839945" lon="13.6354048"><ele>125.25</ele><time>2026-04-18T07:45:42.342Z</time></trkpt><trkpt lat="42.8400652" lon="13.6353277"><ele>124.0</ele><time>2026-04-18T07:45:43.342Z</time></trkpt><trkpt lat="42.8401679" lon="13.6352518"><ele>123.2</ele><time>2026-04-18T07:45:44.313Z</time></trkpt><trkpt lat="42.8402714" lon="13.6351715"><ele>122.4</ele><time>2026-04-18T07:45:45.343Z</time></trkpt><trkpt lat="42.840363" lon="13.6350964"><ele>121.6</ele><time>2026-04-18T07:45:46.295Z</time></trkpt><trkpt lat="42.8404582" lon="13.6350146"><ele>120.8</ele><time>2026-04-18T07:45:47.336Z</time></trkpt><trkpt lat="42.8405437" lon="13.6349292"><ele>120.0</ele><time>2026-04-18T07:45:48.308Z</time></trkpt><trkpt lat="42.8406331" lon="13.6348255"><ele>120.0</ele><time>2026-04-18T07:45:49.331Z</time></trkpt><trkpt lat="42.8407171" lon="13.6347223"><ele>120.0</ele><time>2026-04-18T07:45:50.293Z</time></trkpt><trkpt lat="42.8408058" lon="13.6346077"><ele>120.0</ele><time>2026-04-18T07:45:51.322Z</time></trkpt><trkpt lat="42.8408899" lon="13.6344891"><ele>120.0</ele><time>2026-04-18T07:45:52.323Z</time></trkpt><trkpt lat="42.8409726" lon="13.634363"><ele>118.75</ele><time>2026-04-18T07:45:53.363Z</time></trkpt><trkpt lat="42.8410554" lon="13.6342231"><ele>117.5</ele><time>2026-04-18T07:45:54.465Z</time></trkpt><trkpt lat="42.8411221" lon="13.6340997"><ele>116.25</ele><time>2026-04-18T07:45:55.39Z</time></trkpt><trkpt lat="42.8411913" lon="13.6339625"><ele>115.0</ele><time>2026-04-18T07:45:56.366Z</time></trkpt><trkpt lat="42.8412581" lon="13.6338201"><ele>115.0</ele><time>2026-04-18T07:45:57.324Z</time></trkpt><trkpt lat="42.841325" lon="13.6336603"><ele>115.0</ele><time>2026-04-18T07:45:58.321Z</time></trkpt><trkpt lat="42.8413912" lon="13.63349"><ele>115.0</ele><time>2026-04-18T07:45:59.342Z</time></trkpt><trkpt lat="42.8414515" lon="13.6333167"><ele>115.0</ele><time>2026-04-18T07:46:00.333Z</time></trkpt><trkpt lat="42.8415074" lon="13.6331401"><ele>115.0</ele><time>2026-04-18T07:46:01.343Z</time></trkpt><trkpt lat="42.841554" lon="13.6329728"><ele>115.0</ele><time>2026-04-18T07:46:02.315Z</time></trkpt><trkpt lat="42.8415957" lon="13.632805"><ele>115.0</ele><time>2026-04-18T07:46:03.324Z</time></trkpt><trkpt lat="42.8416336" lon="13.6326481"><ele>115.0</ele><time>2026-04-18T07:46:04.312Z</time></trkpt><trkpt lat="42.8416768" lon="13.6324802"><ele>115.0</ele><time>2026-04-18T07:46:05.444Z</time></trkpt><trkpt lat="42.841712" lon="13.6323537"><ele>115.0</ele><time>2026-04-18T07:46:06.358Z</time></trkpt><trkpt lat="42.8417504" lon="13.6322207"><ele>115.0</ele><time>2026-04-18T07:46:07.36Z</time></trkpt><trkpt lat="42.8417876" lon="13.6320947"><ele>115.0</ele><time>2026-04-18T07:46:08.345Z</time></trkpt><trkpt lat="42.8418304" lon="13.6319927"><ele>115.0</ele><time>2026-04-18T07:46:09.333Z</time></trkpt><trkpt lat="42.8418862" lon="13.6319153"><ele>114.50000000000001</ele><time>2026-04-18T07:46:10.333Z</time></trkpt><trkpt lat="42.8419503" lon="13.631873"><ele>114.0</ele><time>2026-04-18T07:46:11.321Z</time></trkpt><trkpt lat="42.842025" lon="13.6318613"><ele>113.5</ele><time>2026-04-18T07:46:12.353Z</time></trkpt><trkpt lat="42.8420992" lon="13.6318788"><ele>113.0</ele><time>2026-04-18T07:46:13.325Z</time></trkpt><trkpt lat="42.842171" lon="13.6319237"><ele>112.50000000000001</ele><time>2026-04-18T07:46:14.319Z</time></trkpt><trkpt lat="42.8422289" lon="13.6320021"><ele>112.0</ele><time>2026-04-18T07:46:15.353Z</time></trkpt><trkpt lat="42.8422639" lon="13.6321076"><ele>112.0</ele><time>2026-04-18T07:46:16.319Z</time></trkpt><trkpt lat="42.8422729" lon="13.632229"><ele>111.99999999999999</ele><time>2026-04-18T07:46:17.3Z</time></trkpt><trkpt lat="42.8422603" lon="13.6323692"><ele>111.99999999999999</ele><time>2026-04-18T07:46:18.317Z</time></trkpt><trkpt lat="42.8422377" lon="13.6325083"><ele>112.0</ele><time>2026-04-18T07:46:19.317Z</time></trkpt><trkpt lat="42.8422229" lon="13.6326443"><ele>112.0</ele><time>2026-04-18T07:46:20.33Z</time></trkpt><trkpt lat="42.8422003" lon="13.6327744"><ele>111.83333333333334</ele><time>2026-04-18T07:46:21.349Z</time></trkpt><trkpt lat="42.8421666" lon="13.6328855"><ele>111.66666666666667</ele><time>2026-04-18T07:46:22.314Z</time></trkpt><trkpt lat="42.8421092" lon="13.6329862"><ele>111.5</ele><time>2026-04-18T07:46:23.339Z</time></trkpt><trkpt lat="42.8420391" lon="13.633055"><ele>111.33333333333334</ele><time>2026-04-18T07:46:24.299Z</time></trkpt><trkpt lat="42.8419581" lon="13.6330935"><ele>111.16666666666667</ele><time>2026-04-18T07:46:25.309Z</time></trkpt><trkpt lat="42.8418785" lon="13.633096"><ele>111.0</ele><time>2026-04-18T07:46:26.285Z</time></trkpt><trkpt lat="42.8417842" lon="13.6330793"><ele>112.0</ele><time>2026-04-18T07:46:27.315Z</time></trkpt><trkpt lat="42.8416951" lon="13.6330298"><ele>113.0</ele><time>2026-04-18T07:46:28.284Z</time></trkpt><trkpt lat="42.8415937" lon="13.6329726"><ele>114.0</ele><time>2026-04-18T07:46:29.327Z</time></trkpt><trkpt lat="42.8414932" lon="13.6329153"><ele>115.0</ele><time>2026-04-18T07:46:30.26Z</time></trkpt><trkpt lat="42.8413448" lon="13.6328417"><ele>115.0</ele><time>2026-04-18T07:46:31.273Z</time></trkpt><trkpt lat="42.841232" lon="13.6327856"><ele>115.0</ele><time>2026-04-18T07:46:32.278Z</time></trkpt><trkpt lat="42.8411288" lon="13.632747"><ele>115.0</ele><time>2026-04-18T07:46:33.274Z</time></trkpt><trkpt lat="42.8410319" lon="13.6327131"><ele>115.0</ele><time>2026-04-18T07:46:34.31Z</time></trkpt><trkpt lat="42.8409405" lon="13.6326903"><ele>115.0</ele><time>2026-04-18T07:46:35.327Z</time></trkpt><trkpt lat="42.8408512" lon="13.6326738"><ele>115.8</ele><time>2026-04-18T07:46:36.315Z</time></trkpt><trkpt lat="42.8407597" lon="13.6326693"><ele>116.6</ele><time>2026-04-18T07:46:37.298Z</time></trkpt><trkpt lat="42.8406652" lon="13.6326738"><ele>117.4</ele><time>2026-04-18T07:46:38.315Z</time></trkpt><trkpt lat="42.8405692" lon="13.6326958"><ele>118.2</ele><time>2026-04-18T07:46:39.326Z</time></trkpt><trkpt lat="42.8404717" lon="13.6327205"><ele>119.0</ele><time>2026-04-18T07:46:40.343Z</time></trkpt><trkpt lat="42.8403776" lon="13.6327589"><ele>119.2</ele><time>2026-04-18T07:46:41.363Z</time></trkpt><trkpt lat="42.8402953" lon="13.6328137"><ele>119.4</ele><time>2026-04-18T07:46:42.31Z</time></trkpt><trkpt lat="42.8402111" lon="13.632884"><ele>119.6</ele><time>2026-04-18T07:46:43.359Z</time></trkpt><trkpt lat="42.8401277" lon="13.6329563"><ele>119.8</ele><time>2026-04-18T07:46:44.343Z</time></trkpt><trkpt lat="42.8400418" lon="13.6330307"><ele>120.0</ele><time>2026-04-18T07:46:45.313Z</time></trkpt><trkpt lat="42.8399521" lon="13.6331037"><ele>120.2</ele><time>2026-04-18T07:46:46.325Z</time></trkpt><trkpt lat="42.8398618" lon="13.6331733"><ele>120.4</ele><time>2026-04-18T07:46:47.319Z</time></trkpt><trkpt lat="42.8397666" lon="13.6332422"><ele>120.6</ele><time>2026-04-18T07:46:48.331Z</time></trkpt><trkpt lat="42.8396701" lon="13.6333035"><ele>120.8</ele><time>2026-04-18T07:46:49.312Z</time></trkpt><trkpt lat="42.839569" lon="13.6333651"><ele>121.0</ele><time>2026-04-18T07:46:50.316Z</time></trkpt><trkpt lat="42.8394691" lon="13.6334242"><ele>121.0</ele><time>2026-04-18T07:46:51.349Z</time></trkpt><trkpt lat="42.8393673" lon="13.6334723"><ele>121.0</ele><time>2026-04-18T07:46:52.339Z</time></trkpt><trkpt lat="42.8392576" lon="13.633485"><ele>121.0</ele><time>2026-04-18T07:46:53.349Z</time></trkpt><trkpt lat="42.8391524" lon="13.6334738"><ele>121.0</ele><time>2026-04-18T07:46:54.321Z</time></trkpt><trkpt lat="42.8390402" lon="13.6334346"><ele>121.0</ele><time>2026-04-18T07:46:55.344Z</time></trkpt><trkpt lat="42.8389472" lon="13.6333709"><ele>121.75</ele><time>2026-04-18T07:46:56.336Z</time></trkpt><trkpt lat="42.8388568" lon="13.633283"><ele>122.5</ele><time>2026-04-18T07:46:57.347Z</time></trkpt><trkpt lat="42.8387811" lon="13.6331755"><ele>123.25</ele><time>2026-04-18T07:46:58.329Z</time></trkpt><trkpt lat="42.8387127" lon="13.6330456"><ele>124.0</ele><time>2026-04-18T07:46:59.334Z</time></trkpt><trkpt lat="42.838657" lon="13.6328992"><ele>123.75</ele><time>2026-04-18T07:47:00.353Z</time></trkpt><trkpt lat="42.8385968" lon="13.6327393"><ele>123.5</ele><time>2026-04-18T07:47:01.37Z</time></trkpt><trkpt lat="42.8385405" lon="13.6325824"><ele>123.25</ele><time>2026-04-18T07:47:02.339Z</time></trkpt><trkpt lat="42.8384787" lon="13.6324141"><ele>123.0</ele><time>2026-04-18T07:47:03.362Z</time></trkpt><trkpt lat="42.838417" lon="13.6322501"><ele>124.25</ele><time>2026-04-18T07:47:04.351Z</time></trkpt><trkpt lat="42.8383592" lon="13.6320797"><ele>125.5</ele><time>2026-04-18T07:47:05.335Z</time></trkpt><trkpt lat="42.8383013" lon="13.6318985"><ele>126.75</ele><time>2026-04-18T07:47:06.349Z</time></trkpt><trkpt lat="42.8382469" lon="13.6317279"><ele>128.0</ele><time>2026-04-18T07:47:07.337Z</time></trkpt><trkpt lat="42.8381965" lon="13.6315687"><ele>128.25</ele><time>2026-04-18T07:47:08.315Z</time></trkpt><trkpt lat="42.8381412" lon="13.6314015"><ele>128.5</ele><time>2026-04-18T07:47:09.353Z</time></trkpt><trkpt lat="42.8380873" lon="13.6312364"><ele>128.75</ele><time>2026-04-18T07:47:10.343Z</time></trkpt><trkpt lat="42.8380329" lon="13.6310573"><ele>129.0</ele><time>2026-04-18T07:47:11.359Z</time></trkpt><trkpt lat="42.8379805" lon="13.6308766"><ele>129.33333333333334</ele><time>2026-04-18T07:47:12.346Z</time></trkpt><trkpt lat="42.837934" lon="13.6306865"><ele>129.66666666666669</ele><time>2026-04-18T07:47:13.341Z</time></trkpt><trkpt lat="42.8378861" lon="13.6304822"><ele>130.0</ele><time>2026-04-18T07:47:14.357Z</time></trkpt><trkpt lat="42.8378384" lon="13.630277"><ele>129.33333333333334</ele><time>2026-04-18T07:47:15.31Z</time></trkpt><trkpt lat="42.8377876" lon="13.6300377"><ele>128.66666666666666</ele><time>2026-04-18T07:47:16.336Z</time></trkpt><trkpt lat="42.8377371" lon="13.6298049"><ele>128.0</ele><time>2026-04-18T07:47:17.343Z</time></trkpt><trkpt lat="42.8376846" lon="13.629549"><ele>128.33333333333331</ele><time>2026-04-18T07:47:18.449Z</time></trkpt><trkpt lat="42.837645" lon="13.6293374"><ele>128.66666666666666</ele><time>2026-04-18T07:47:19.362Z</time></trkpt><trkpt lat="42.8376083" lon="13.6291212"><ele>129.0</ele><time>2026-04-18T07:47:20.32Z</time></trkpt><trkpt lat="42.8375724" lon="13.6289003"><ele>133.33333333333334</ele><time>2026-04-18T07:47:21.302Z</time></trkpt><trkpt lat="42.8375354" lon="13.628677"><ele>137.66666666666669</ele><time>2026-04-18T07:47:22.328Z</time></trkpt><trkpt lat="42.8374989" lon="13.6284617"><ele>142.0</ele><time>2026-04-18T07:47:23.338Z</time></trkpt><trkpt lat="42.8374611" lon="13.6282565"><ele>143.75</ele><time>2026-04-18T07:47:24.325Z</time></trkpt><trkpt lat="42.8374252" lon="13.628066"><ele>145.5</ele><time>2026-04-18T07:47:25.295Z</time></trkpt><trkpt lat="42.8373866" lon="13.6278858"><ele>147.25</ele><time>2026-04-18T07:47:26.276Z</time></trkpt><trkpt lat="42.8373525" lon="13.6277205"><ele>149.0</ele><time>2026-04-18T07:47:27.253Z</time></trkpt><trkpt lat="42.83731" lon="13.6275335"><ele>146.0</ele><time>2026-04-18T07:47:28.221Z</time></trkpt><trkpt lat="42.8372621" lon="13.6273227"><ele>143.0</ele><time>2026-04-18T07:47:29.235Z</time></trkpt><trkpt lat="42.8368222" lon="13.6234202"><ele>143.0</ele><time>2026-04-18T07:47:46.005Z</time></trkpt><trkpt lat="42.8368035" lon="13.623177"><ele>143.0</ele><time>2026-04-18T07:47:47.005Z</time></trkpt><trkpt lat="42.8367838" lon="13.6229466"><ele>143.0</ele><time>2026-04-18T07:47:48.005Z</time></trkpt><trkpt lat="42.8367697" lon="13.6227082"><ele>144.33333333333331</ele><time>2026-04-18T07:47:49.006Z</time></trkpt><trkpt lat="42.8367586" lon="13.6224508"><ele>145.66666666666666</ele><time>2026-04-18T07:47:50.006Z</time></trkpt><trkpt lat="42.836745" lon="13.6221646"><ele>147.0</ele><time>2026-04-18T07:47:51.31Z</time></trkpt><trkpt lat="42.8367401" lon="13.6218762"><ele>147.0</ele><time>2026-04-18T07:47:52.299Z</time></trkpt><trkpt lat="42.8367401" lon="13.6215815"><ele>147.0</ele><time>2026-04-18T07:47:53.308Z</time></trkpt><trkpt lat="42.83674" lon="13.6212664"><ele>147.0</ele><time>2026-04-18T07:47:54.392Z</time></trkpt><trkpt lat="42.8367502" lon="13.6207245"><ele>147.0</ele><time>2026-04-18T07:47:56.325Z</time></trkpt><trkpt lat="42.8367564" lon="13.6204536"><ele>147.0</ele><time>2026-04-18T07:47:57.305Z</time></trkpt><trkpt lat="42.8367656" lon="13.6201799"><ele>147.0</ele><time>2026-04-18T07:47:58.321Z</time></trkpt><trkpt lat="42.8367834" lon="13.6199032"><ele>147.66666666666666</ele><time>2026-04-18T07:47:59.364Z</time></trkpt><trkpt lat="42.8367996" lon="13.6196585"><ele>148.33333333333331</ele><time>2026-04-18T07:48:00.327Z</time></trkpt><trkpt lat="42.8368151" lon="13.6193981"><ele>149.0</ele><time>2026-04-18T07:48:01.353Z</time></trkpt><trkpt lat="42.8368342" lon="13.619152"><ele>149.33333333333331</ele><time>2026-04-18T07:48:02.337Z</time></trkpt><trkpt lat="42.8368561" lon="13.6189037"><ele>149.66666666666666</ele><time>2026-04-18T07:48:03.36Z</time></trkpt><trkpt lat="42.8368781" lon="13.6186698"><ele>150.0</ele><time>2026-04-18T07:48:04.339Z</time></trkpt><trkpt lat="42.836906" lon="13.6184284"><ele>151.33333333333334</ele><time>2026-04-18T07:48:05.333Z</time></trkpt><trkpt lat="42.8369337" lon="13.618184"><ele>152.66666666666669</ele><time>2026-04-18T07:48:06.339Z</time></trkpt><trkpt lat="42.8369656" lon="13.6179361"><ele>154.0</ele><time>2026-04-18T07:48:07.337Z</time></trkpt><trkpt lat="42.8369995" lon="13.6176984"><ele>154.0</ele><time>2026-04-18T07:48:08.292Z</time></trkpt><trkpt lat="42.8370382" lon="13.6174376"><ele>154.0</ele><time>2026-04-18T07:48:09.311Z</time></trkpt><trkpt lat="42.8370821" lon="13.6171568"><ele>154.0</ele><time>2026-04-18T07:48:10.353Z</time></trkpt><trkpt lat="42.8371294" lon="13.6168604"><ele>154.5</ele><time>2026-04-18T07:48:11.428Z</time></trkpt><trkpt lat="42.8372197" lon="13.6163339"><ele>155.0</ele><time>2026-04-18T07:48:13.349Z</time></trkpt><trkpt lat="42.8372744" lon="13.6160466"><ele>155.0</ele><time>2026-04-18T07:48:14.371Z</time></trkpt><trkpt lat="42.8373303" lon="13.615763"><ele>155.0</ele><time>2026-04-18T07:48:15.394Z</time></trkpt><trkpt lat="42.8373863" lon="13.6154987"><ele>155.0</ele><time>2026-04-18T07:48:16.353Z</time></trkpt><trkpt lat="42.8374454" lon="13.615231"><ele>157.0</ele><time>2026-04-18T07:48:17.328Z</time></trkpt><trkpt lat="42.8375035" lon="13.614946"><ele>159.0</ele><time>2026-04-18T07:48:18.347Z</time></trkpt><trkpt lat="42.8375596" lon="13.6146698"><ele>161.0</ele><time>2026-04-18T07:48:19.339Z</time></trkpt><trkpt lat="42.8376206" lon="13.6143852"><ele>160.66666666666666</ele><time>2026-04-18T07:48:20.356Z</time></trkpt><trkpt lat="42.8376837" lon="13.6140979"><ele>160.33333333333334</ele><time>2026-04-18T07:48:21.359Z</time></trkpt><trkpt lat="42.8377441" lon="13.6138068"><ele>160.0</ele><time>2026-04-18T07:48:22.348Z</time></trkpt><trkpt lat="42.8378048" lon="13.6135133"><ele>160.0</ele><time>2026-04-18T07:48:23.348Z</time></trkpt><trkpt lat="42.8378745" lon="13.6131839"><ele>160.0</ele><time>2026-04-18T07:48:24.463Z</time></trkpt><trkpt lat="42.8380058" lon="13.6125935"><ele>161.5</ele><time>2026-04-18T07:48:26.498Z</time></trkpt><trkpt lat="42.8381227" lon="13.6120543"><ele>163.0</ele><time>2026-04-18T07:48:28.37Z</time></trkpt><trkpt lat="42.8381831" lon="13.611777"><ele>163.66666666666669</ele><time>2026-04-18T07:48:29.349Z</time></trkpt><trkpt lat="42.8382438" lon="13.6114946"><ele>164.33333333333334</ele><time>2026-04-18T07:48:30.339Z</time></trkpt><trkpt lat="42.8383058" lon="13.6112069"><ele>165.0</ele><time>2026-04-18T07:48:31.355Z</time></trkpt><trkpt lat="42.8383634" lon="13.6109327"><ele>166.0</ele><time>2026-04-18T07:48:32.32Z</time></trkpt><trkpt lat="42.8384244" lon="13.6106379"><ele>167.0</ele><time>2026-04-18T07:48:33.359Z</time></trkpt><trkpt lat="42.8384843" lon="13.6103506"><ele>168.0</ele><time>2026-04-18T07:48:34.373Z</time></trkpt><trkpt lat="42.8385432" lon="13.61007"><ele>168.66666666666666</ele><time>2026-04-18T07:48:35.364Z</time></trkpt><trkpt lat="42.838604" lon="13.6097863"><ele>169.33333333333331</ele><time>2026-04-18T07:48:36.367Z</time></trkpt><trkpt lat="42.8386638" lon="13.6095081"><ele>170.0</ele><time>2026-04-18T07:48:37.351Z</time></trkpt><trkpt lat="42.8387245" lon="13.6092172"><ele>171.5</ele><time>2026-04-18T07:48:38.372Z</time></trkpt><trkpt lat="42.8387905" lon="13.6089089"><ele>173.0</ele><time>2026-04-18T07:48:39.444Z</time></trkpt><trkpt lat="42.8389247" lon="13.6083263"><ele>175.5</ele><time>2026-04-18T07:48:41.458Z</time></trkpt><trkpt lat="42.8389996" lon="13.6080339"><ele>178.0</ele><time>2026-04-18T07:48:42.473Z</time></trkpt><trkpt lat="42.839152" lon="13.6074816"><ele>179.5</ele><time>2026-04-18T07:48:44.34Z</time></trkpt><trkpt lat="42.8392394" lon="13.6071856"><ele>181.0</ele><time>2026-04-18T07:48:45.341Z</time></trkpt><trkpt lat="42.8393259" lon="13.6068862"><ele>181.0</ele><time>2026-04-18T07:48:46.35Z</time></trkpt><trkpt lat="42.8394137" lon="13.6065983"><ele>181.0</ele><time>2026-04-18T07:48:47.31Z</time></trkpt><trkpt lat="42.8395138" lon="13.6062669"><ele>183.0</ele><time>2026-04-18T07:48:48.409Z</time></trkpt><trkpt lat="42.8395974" lon="13.6059869"><ele>185.0</ele><time>2026-04-18T07:48:49.34Z</time></trkpt><trkpt lat="42.8396864" lon="13.6056885"><ele>185.0</ele><time>2026-04-18T07:48:50.324Z</time></trkpt><trkpt lat="42.8397776" lon="13.6053848"><ele>185.0</ele><time>2026-04-18T07:48:51.327Z</time></trkpt><trkpt lat="42.8398712" lon="13.6050808"><ele>187.0</ele><time>2026-04-18T07:48:52.34Z</time></trkpt><trkpt lat="42.8399645" lon="13.6047799"><ele>189.0</ele><time>2026-04-18T07:48:53.348Z</time></trkpt><trkpt lat="42.8400603" lon="13.6044792"><ele>192.0</ele><time>2026-04-18T07:48:54.363Z</time></trkpt><trkpt lat="42.8401558" lon="13.6041879"><ele>195.0</ele><time>2026-04-18T07:48:55.342Z</time></trkpt><trkpt lat="42.8402539" lon="13.6038936"><ele>195.5</ele><time>2026-04-18T07:48:56.328Z</time></trkpt><trkpt lat="42.8403566" lon="13.6035954"><ele>196.0</ele><time>2026-04-18T07:48:57.334Z</time></trkpt><trkpt lat="42.840463" lon="13.603292"><ele>196.0</ele><time>2026-04-18T07:48:58.364Z</time></trkpt><trkpt lat="42.8405679" lon="13.6030034"><ele>196.0</ele><time>2026-04-18T07:48:59.344Z</time></trkpt><trkpt lat="42.8406808" lon="13.6026996"><ele>196.5</ele><time>2026-04-18T07:49:00.353Z</time></trkpt><trkpt lat="42.8407995" lon="13.6023961"><ele>197.0</ele><time>2026-04-18T07:49:01.361Z</time></trkpt><trkpt lat="42.8409201" lon="13.6021002"><ele>200.0</ele><time>2026-04-18T07:49:02.349Z</time></trkpt><trkpt lat="42.8410511" lon="13.6017924"><ele>203.0</ele><time>2026-04-18T07:49:03.4Z</time></trkpt><trkpt lat="42.84117" lon="13.6015224"><ele>203.0</ele><time>2026-04-18T07:49:04.345Z</time></trkpt><trkpt lat="42.8413011" lon="13.6012264"><ele>203.0</ele><time>2026-04-18T07:49:05.379Z</time></trkpt><trkpt lat="42.841438" lon="13.6009475"><ele>204.0</ele><time>2026-04-18T07:49:06.404Z</time></trkpt><trkpt lat="42.8415708" lon="13.6006919"><ele>205.0</ele><time>2026-04-18T07:49:07.355Z</time></trkpt><trkpt lat="42.8417291" lon="13.6004026"><ele>205.0</ele><time>2026-04-18T07:49:08.457Z</time></trkpt><trkpt lat="42.8420097" lon="13.5999254"><ele>205.0</ele><time>2026-04-18T07:49:10.327Z</time></trkpt><trkpt lat="42.8421662" lon="13.5996688"><ele>206.5</ele><time>2026-04-18T07:49:11.346Z</time></trkpt><trkpt lat="42.8423171" lon="13.5994374"><ele>208.0</ele><time>2026-04-18T07:49:12.313Z</time></trkpt><trkpt lat="42.8425064" lon="13.599163"><ele>208.0</ele><time>2026-04-18T07:49:13.469Z</time></trkpt><trkpt lat="42.8426472" lon="13.5989684"><ele>208.0</ele><time>2026-04-18T07:49:14.317Z</time></trkpt><trkpt lat="42.8428207" lon="13.5987392"><ele>208.0</ele><time>2026-04-18T07:49:15.324Z</time></trkpt><trkpt lat="42.8429977" lon="13.5985117"><ele>208.0</ele><time>2026-04-18T07:49:16.303Z</time></trkpt><trkpt lat="42.8431739" lon="13.5982933"><ele>208.0</ele><time>2026-04-18T07:49:17.261Z</time></trkpt><trkpt lat="42.8433714" lon="13.5980527"><ele>201.0</ele><time>2026-04-18T07:49:18.319Z</time></trkpt><trkpt lat="42.8435778" lon="13.5978065"><ele>194.0</ele><time>2026-04-18T07:49:19.41Z</time></trkpt><trkpt lat="42.8439462" lon="13.5973778"><ele>194.0</ele><time>2026-04-18T07:49:21.315Z</time></trkpt><trkpt lat="42.8441435" lon="13.5971481"><ele>194.0</ele><time>2026-04-18T07:49:22.324Z</time></trkpt><trkpt lat="42.8443363" lon="13.5969209"><ele>193.0</ele><time>2026-04-18T07:49:23.316Z</time></trkpt><trkpt lat="42.8445305" lon="13.5966819"><ele>192.0</ele><time>2026-04-18T07:49:24.325Z</time></trkpt><trkpt lat="42.8447145" lon="13.5964285"><ele>197.0</ele><time>2026-04-18T07:49:25.33Z</time></trkpt><trkpt lat="42.8449006" lon="13.5961397"><ele>202.0</ele><time>2026-04-18T07:49:26.36Z</time></trkpt><trkpt lat="42.8450719" lon="13.5958339"><ele>200.0</ele><time>2026-04-18T07:49:27.363Z</time></trkpt><trkpt lat="42.8452417" lon="13.595523"><ele>198.0</ele><time>2026-04-18T07:49:28.366Z</time></trkpt><trkpt lat="42.8454056" lon="13.5952198"><ele>198.0</ele><time>2026-04-18T07:49:29.34Z</time></trkpt><trkpt lat="42.8455664" lon="13.5949186"><ele>198.0</ele><time>2026-04-18T07:49:30.314Z</time></trkpt><trkpt lat="42.8457273" lon="13.5945866"><ele>199.0</ele><time>2026-04-18T07:49:31.343Z</time></trkpt><trkpt lat="42.845872" lon="13.5942505"><ele>200.0</ele><time>2026-04-18T07:49:32.338Z</time></trkpt><trkpt lat="42.8459987" lon="13.593902"><ele>196.0</ele><time>2026-04-18T07:49:33.331Z</time></trkpt><trkpt lat="42.8461173" lon="13.5935402"><ele>192.0</ele><time>2026-04-18T07:49:34.323Z</time></trkpt><trkpt lat="42.8462316" lon="13.593154"><ele>195.0</ele><time>2026-04-18T07:49:35.347Z</time></trkpt><trkpt lat="42.8463418" lon="13.5927697"><ele>198.0</ele><time>2026-04-18T07:49:36.367Z</time></trkpt><trkpt lat="42.8464352" lon="13.5924165"><ele>198.0</ele><time>2026-04-18T07:49:37.311Z</time></trkpt><trkpt lat="42.8465131" lon="13.5920378"><ele>198.0</ele><time>2026-04-18T07:49:38.326Z</time></trkpt><trkpt lat="42.8465665" lon="13.5916471"><ele>197.5</ele><time>2026-04-18T07:49:39.35Z</time></trkpt><trkpt lat="42.8466012" lon="13.5912624"><ele>197.0</ele><time>2026-04-18T07:49:40.356Z</time></trkpt><trkpt lat="42.8466174" lon="13.5908688"><ele>197.0</ele><time>2026-04-18T07:49:41.388Z</time></trkpt><trkpt lat="42.8466252" lon="13.5905221"><ele>197.0</ele><time>2026-04-18T07:49:42.31Z</time></trkpt><trkpt lat="42.8466366" lon="13.5900961"><ele>193.0</ele><time>2026-04-18T07:49:43.455Z</time></trkpt><trkpt lat="42.8466567" lon="13.5894057"><ele>193.0</ele><time>2026-04-18T07:49:45.347Z</time></trkpt><trkpt lat="42.8466637" lon="13.5890436"><ele>193.0</ele><time>2026-04-18T07:49:46.352Z</time></trkpt><trkpt lat="42.8466679" lon="13.5886826"><ele>192.0</ele><time>2026-04-18T07:49:47.355Z</time></trkpt><trkpt lat="42.8466711" lon="13.5883237"><ele>191.0</ele><time>2026-04-18T07:49:48.356Z</time></trkpt><trkpt lat="42.846681" lon="13.5879703"><ele>192.0</ele><time>2026-04-18T07:49:49.346Z</time></trkpt><trkpt lat="42.8467024" lon="13.5875735"><ele>193.0</ele><time>2026-04-18T07:49:50.463Z</time></trkpt><trkpt lat="42.8467646" lon="13.5869074"><ele>188.0</ele><time>2026-04-18T07:49:52.394Z</time></trkpt><trkpt lat="42.8468043" lon="13.5865725"><ele>183.0</ele><time>2026-04-18T07:49:53.375Z</time></trkpt><trkpt lat="42.8468494" lon="13.5862413"><ele>186.5</ele><time>2026-04-18T07:49:54.365Z</time></trkpt><trkpt lat="42.8468977" lon="13.5859177"><ele>190.0</ele><time>2026-04-18T07:49:55.343Z</time></trkpt><trkpt lat="42.8469438" lon="13.5856082"><ele>191.0</ele><time>2026-04-18T07:49:56.292Z</time></trkpt><trkpt lat="42.8470174" lon="13.5852528"><ele>192.0</ele><time>2026-04-18T07:49:57.377Z</time></trkpt><trkpt lat="42.8470919" lon="13.5849573"><ele>192.0</ele><time>2026-04-18T07:49:58.313Z</time></trkpt><trkpt lat="42.8471718" lon="13.5846621"><ele>192.0</ele><time>2026-04-18T07:49:59.311Z</time></trkpt><trkpt lat="42.8472557" lon="13.5843803"><ele>192.66666666666669</ele><time>2026-04-18T07:50:00.322Z</time></trkpt><trkpt lat="42.8473472" lon="13.5841009"><ele>193.33333333333334</ele><time>2026-04-18T07:50:01.357Z</time></trkpt><trkpt lat="42.8474393" lon="13.5838464"><ele>194.0</ele><time>2026-04-18T07:50:02.332Z</time></trkpt><trkpt lat="42.8475402" lon="13.583582"><ele>193.0</ele><time>2026-04-18T07:50:03.352Z</time></trkpt><trkpt lat="42.8476389" lon="13.5833288"><ele>192.0</ele><time>2026-04-18T07:50:04.325Z</time></trkpt><trkpt lat="42.8477392" lon="13.5830726"><ele>191.0</ele><time>2026-04-18T07:50:05.303Z</time></trkpt><trkpt lat="42.8478427" lon="13.5828183"><ele>191.0</ele><time>2026-04-18T07:50:06.307Z</time></trkpt><trkpt lat="42.8479483" lon="13.5825669"><ele>191.0</ele><time>2026-04-18T07:50:07.312Z</time></trkpt><trkpt lat="42.8480494" lon="13.5823231"><ele>191.0</ele><time>2026-04-18T07:50:08.323Z</time></trkpt><trkpt lat="42.8481692" lon="13.5820398"><ele>197.0</ele><time>2026-04-18T07:50:09.521Z</time></trkpt><trkpt lat="42.8482572" lon="13.5818112"><ele>203.0</ele><time>2026-04-18T07:50:10.465Z</time></trkpt><trkpt lat="42.8484103" lon="13.5813659"><ele>199.33333333333334</ele><time>2026-04-18T07:50:12.316Z</time></trkpt><trkpt lat="42.8484816" lon="13.5811178"><ele>195.66666666666669</ele><time>2026-04-18T07:50:13.344Z</time></trkpt><trkpt lat="42.8485395" lon="13.5808786"><ele>192.0</ele><time>2026-04-18T07:50:14.345Z</time></trkpt><trkpt lat="42.8485814" lon="13.5806438"><ele>192.0</ele><time>2026-04-18T07:50:15.346Z</time></trkpt><trkpt lat="42.8486109" lon="13.5804111"><ele>192.0</ele><time>2026-04-18T07:50:16.35Z</time></trkpt><trkpt lat="42.8486291" lon="13.5801672"><ele>192.0</ele><time>2026-04-18T07:50:17.374Z</time></trkpt><trkpt lat="42.8486362" lon="13.5799309"><ele>194.5</ele><time>2026-04-18T07:50:18.349Z</time></trkpt><trkpt lat="42.8486373" lon="13.5796464"><ele>197.0</ele><time>2026-04-18T07:50:19.498Z</time></trkpt><trkpt lat="42.8486223" lon="13.5791712"><ele>197.66666666666669</ele><time>2026-04-18T07:50:21.324Z</time></trkpt><trkpt lat="42.848602" lon="13.5788964"><ele>198.33333333333331</ele><time>2026-04-18T07:50:22.317Z</time></trkpt><trkpt lat="42.8485684" lon="13.5786151"><ele>199.0</ele><time>2026-04-18T07:50:23.331Z</time></trkpt><trkpt lat="42.8485269" lon="13.5783306"><ele>199.33333333333331</ele><time>2026-04-18T07:50:24.324Z</time></trkpt><trkpt lat="42.8484741" lon="13.5780498"><ele>199.66666666666669</ele><time>2026-04-18T07:50:25.301Z</time></trkpt><trkpt lat="42.848409" lon="13.5777426"><ele>200.0</ele><time>2026-04-18T07:50:26.315Z</time></trkpt><trkpt lat="42.8483264" lon="13.5774524"><ele>200.0</ele><time>2026-04-18T07:50:27.342Z</time></trkpt><trkpt lat="42.8482319" lon="13.57716"><ele>200.0</ele><time>2026-04-18T07:50:28.329Z</time></trkpt><trkpt lat="42.8481335" lon="13.5768715"><ele>195.5</ele><time>2026-04-18T07:50:29.331Z</time></trkpt><trkpt lat="42.8480197" lon="13.576543"><ele>191.0</ele><time>2026-04-18T07:50:30.47Z</time></trkpt><trkpt lat="42.8478332" lon="13.5759931"><ele>183.5</ele><time>2026-04-18T07:50:32.342Z</time></trkpt><trkpt lat="42.8477382" lon="13.5756911"><ele>176.0</ele><time>2026-04-18T07:50:33.356Z</time></trkpt><trkpt lat="42.847649" lon="13.5753782"><ele>184.0</ele><time>2026-04-18T07:50:34.393Z</time></trkpt><trkpt lat="42.8475753" lon="13.5750885"><ele>192.0</ele><time>2026-04-18T07:50:35.345Z</time></trkpt><trkpt lat="42.8475078" lon="13.5747724"><ele>190.0</ele><time>2026-04-18T07:50:36.362Z</time></trkpt><trkpt lat="42.847454" lon="13.5744613"><ele>188.0</ele><time>2026-04-18T07:50:37.35Z</time></trkpt><trkpt lat="42.8474107" lon="13.5741395"><ele>188.0</ele><time>2026-04-18T07:50:38.348Z</time></trkpt><trkpt lat="42.8473766" lon="13.5738269"><ele>188.0</ele><time>2026-04-18T07:50:39.315Z</time></trkpt><trkpt lat="42.847347" lon="13.5734967"><ele>187.5</ele><time>2026-04-18T07:50:40.318Z</time></trkpt><trkpt lat="42.8473197" lon="13.5731707"><ele>187.0</ele><time>2026-04-18T07:50:41.32Z</time></trkpt><trkpt lat="42.8472825" lon="13.5728155"><ele>187.0</ele><time>2026-04-18T07:50:42.436Z</time></trkpt><trkpt lat="42.8472137" lon="13.5722224"><ele>187.0</ele><time>2026-04-18T07:50:44.309Z</time></trkpt><trkpt lat="42.8471725" lon="13.5719036"><ele>185.5</ele><time>2026-04-18T07:50:45.32Z</time></trkpt><trkpt lat="42.8471256" lon="13.5715606"><ele>184.0</ele><time>2026-04-18T07:50:46.406Z</time></trkpt><trkpt lat="42.8470797" lon="13.5712764"><ele>183.5</ele><time>2026-04-18T07:50:47.325Z</time></trkpt><trkpt lat="42.8470274" lon="13.5709715"><ele>183.0</ele><time>2026-04-18T07:50:48.312Z</time></trkpt><trkpt lat="42.8469686" lon="13.5706495"><ele>184.0</ele><time>2026-04-18T07:50:49.358Z</time></trkpt><trkpt lat="42.8469059" lon="13.5703383"><ele>185.0</ele><time>2026-04-18T07:50:50.373Z</time></trkpt><trkpt lat="42.8468433" lon="13.5700478"><ele>192.5</ele><time>2026-04-18T07:50:51.32Z</time></trkpt><trkpt lat="42.8467719" lon="13.5697415"><ele>200.0</ele><time>2026-04-18T07:50:52.324Z</time></trkpt><trkpt lat="42.8467031" lon="13.5694422"><ele>200.0</ele><time>2026-04-18T07:50:53.298Z</time></trkpt><trkpt lat="42.8466279" lon="13.5691164"><ele>200.0</ele><time>2026-04-18T07:50:54.357Z</time></trkpt><trkpt lat="42.846555" lon="13.5687796"><ele>196.0</ele><time>2026-04-18T07:50:55.454Z</time></trkpt><trkpt lat="42.8464371" lon="13.5682104"><ele>192.0</ele><time>2026-04-18T07:50:57.329Z</time></trkpt><trkpt lat="42.8463837" lon="13.5679049"><ele>187.5</ele><time>2026-04-18T07:50:58.347Z</time></trkpt><trkpt lat="42.846338" lon="13.5675928"><ele>183.0</ele><time>2026-04-18T07:50:59.367Z</time></trkpt><trkpt lat="42.8463052" lon="13.5672958"><ele>181.0</ele><time>2026-04-18T07:51:00.345Z</time></trkpt><trkpt lat="42.8462852" lon="13.5670045"><ele>179.0</ele><time>2026-04-18T07:51:01.309Z</time></trkpt><trkpt lat="42.8462785" lon="13.5667005"><ele>177.0</ele><time>2026-04-18T07:51:02.321Z</time></trkpt><trkpt lat="42.8462822" lon="13.5664007"><ele>176.5</ele><time>2026-04-18T07:51:03.319Z</time></trkpt><trkpt lat="42.846294" lon="13.5660923"><ele>176.0</ele><time>2026-04-18T07:51:04.348Z</time></trkpt><trkpt lat="42.8463202" lon="13.5657676"><ele>180.0</ele><time>2026-04-18T07:51:05.437Z</time></trkpt><trkpt lat="42.8464001" lon="13.5652142"><ele>184.0</ele><time>2026-04-18T07:51:07.322Z</time></trkpt><trkpt lat="42.8464591" lon="13.5649266"><ele>184.0</ele><time>2026-04-18T07:51:08.318Z</time></trkpt><trkpt lat="42.8465252" lon="13.5646455"><ele>184.0</ele><time>2026-04-18T07:51:09.294Z</time></trkpt><trkpt lat="42.8466048" lon="13.5643394"><ele>186.66666666666669</ele><time>2026-04-18T07:51:10.362Z</time></trkpt><trkpt lat="42.8466807" lon="13.5640733"><ele>189.33333333333334</ele><time>2026-04-18T07:51:11.302Z</time></trkpt><trkpt lat="42.8467628" lon="13.5637904"><ele>192.0</ele><time>2026-04-18T07:51:12.301Z</time></trkpt><trkpt lat="42.8468485" lon="13.5635025"><ele>189.33333333333334</ele><time>2026-04-18T07:51:13.317Z</time></trkpt><trkpt lat="42.8469341" lon="13.5632203"><ele>186.66666666666669</ele><time>2026-04-18T07:51:14.312Z</time></trkpt><trkpt lat="42.8470193" lon="13.5629426"><ele>184.0</ele><time>2026-04-18T07:51:15.298Z</time></trkpt><trkpt lat="42.8471085" lon="13.5626554"><ele>184.0</ele><time>2026-04-18T07:51:16.311Z</time></trkpt><trkpt lat="42.8471967" lon="13.562373"><ele>184.0</ele><time>2026-04-18T07:51:17.318Z</time></trkpt><trkpt lat="42.84728" lon="13.5620884"><ele>194.0</ele><time>2026-04-18T07:51:18.317Z</time></trkpt><trkpt lat="42.8473565" lon="13.5618031"><ele>204.0</ele><time>2026-04-18T07:51:19.298Z</time></trkpt><trkpt lat="42.8474351" lon="13.5615092"><ele>204.0</ele><time>2026-04-18T07:51:20.315Z</time></trkpt><trkpt lat="42.8474976" lon="13.5612498"><ele>204.0</ele><time>2026-04-18T07:51:21.267Z</time></trkpt><trkpt lat="42.847565" lon="13.5609681"><ele>204.0</ele><time>2026-04-18T07:51:22.191Z</time></trkpt><trkpt lat="42.8476393" lon="13.5606577"><ele>161.0</ele><time>2026-04-18T07:51:23.173Z</time></trkpt><trkpt lat="42.8490567" lon="13.5727964"><ele>196.0</ele><time>2026-04-18T07:51:53.522Z</time></trkpt><trkpt lat="42.8487715" lon="13.5492177"><ele>196.0</ele><time>2026-04-18T07:52:00.018Z</time></trkpt><trkpt lat="42.8487929" lon="13.5488821"><ele>196.0</ele><time>2026-04-18T07:52:01.01Z</time></trkpt><trkpt lat="42.8488142" lon="13.5485549"><ele>193.0</ele><time>2026-04-18T07:52:02.01Z</time></trkpt><trkpt lat="42.8488439" lon="13.548245"><ele>190.0</ele><time>2026-04-18T07:52:03.01Z</time></trkpt><trkpt lat="42.8488728" lon="13.5479254"><ele>186.5</ele><time>2026-04-18T07:52:04.01Z</time></trkpt><trkpt lat="42.8488952" lon="13.5476025"><ele>183.0</ele><time>2026-04-18T07:52:05.01Z</time></trkpt><trkpt lat="42.8489143" lon="13.547249"><ele>182.5</ele><time>2026-04-18T07:52:06.286Z</time></trkpt><trkpt lat="42.848928" lon="13.5469027"><ele>182.0</ele><time>2026-04-18T07:52:07.264Z</time></trkpt><trkpt lat="42.8489347" lon="13.5465489"><ele>182.0</ele><time>2026-04-18T07:52:08.303Z</time></trkpt><trkpt lat="42.8489348" lon="13.546218"><ele>182.0</ele><time>2026-04-18T07:52:09.282Z</time></trkpt><trkpt lat="42.8489297" lon="13.5459022"><ele>182.5</ele><time>2026-04-18T07:52:10.277Z</time></trkpt><trkpt lat="42.848923" lon="13.5455765"><ele>183.0</ele><time>2026-04-18T07:52:11.308Z</time></trkpt><trkpt lat="42.8489174" lon="13.545258"><ele>178.5</ele><time>2026-04-18T07:52:12.319Z</time></trkpt><trkpt lat="42.8489127" lon="13.5449412"><ele>174.0</ele><time>2026-04-18T07:52:13.315Z</time></trkpt><trkpt lat="42.84892" lon="13.5446415"><ele>170.5</ele><time>2026-04-18T07:52:14.289Z</time></trkpt><trkpt lat="42.8489358" lon="13.5443158"><ele>167.0</ele><time>2026-04-18T07:52:15.324Z</time></trkpt><trkpt lat="42.8489616" lon="13.5439816"><ele>168.33333333333331</ele><time>2026-04-18T07:52:16.389Z</time></trkpt><trkpt lat="42.8489968" lon="13.5436959"><ele>169.66666666666666</ele><time>2026-04-18T07:52:17.317Z</time></trkpt><trkpt lat="42.8490489" lon="13.5433956"><ele>171.0</ele><time>2026-04-18T07:52:18.305Z</time></trkpt><trkpt lat="42.849121" lon="13.5430916"><ele>170.33333333333334</ele><time>2026-04-18T07:52:19.353Z</time></trkpt><trkpt lat="42.8491943" lon="13.5428242"><ele>169.66666666666669</ele><time>2026-04-18T07:52:20.291Z</time></trkpt><trkpt lat="42.8492834" lon="13.5425294"><ele>169.0</ele><time>2026-04-18T07:52:21.33Z</time></trkpt><trkpt lat="42.8493763" lon="13.5422586"><ele>171.0</ele><time>2026-04-18T07:52:22.305Z</time></trkpt><trkpt lat="42.8494729" lon="13.541983"><ele>173.0</ele><time>2026-04-18T07:52:23.277Z</time></trkpt><trkpt lat="42.8495779" lon="13.5416875"><ele>173.0</ele><time>2026-04-18T07:52:24.315Z</time></trkpt><trkpt lat="42.84968" lon="13.5414056"><ele>173.0</ele><time>2026-04-18T07:52:25.306Z</time></trkpt><trkpt lat="42.8497864" lon="13.5411078"><ele>173.5</ele><time>2026-04-18T07:52:26.333Z</time></trkpt><trkpt lat="42.8498797" lon="13.5408159"><ele>174.0</ele><time>2026-04-18T07:52:27.312Z</time></trkpt><trkpt lat="42.8499649" lon="13.5405101"><ele>177.5</ele><time>2026-04-18T07:52:28.316Z</time></trkpt><trkpt lat="42.8500357" lon="13.5401916"><ele>181.0</ele><time>2026-04-18T07:52:29.32Z</time></trkpt><trkpt lat="42.85009" lon="13.5398732"><ele>178.0</ele><time>2026-04-18T07:52:30.311Z</time></trkpt><trkpt lat="42.8501317" lon="13.5395453"><ele>175.0</ele><time>2026-04-18T07:52:31.315Z</time></trkpt><trkpt lat="42.8501677" lon="13.5392085"><ele>175.0</ele><time>2026-04-18T07:52:32.314Z</time></trkpt><trkpt lat="42.850182" lon="13.5388734"><ele>175.0</ele><time>2026-04-18T07:52:33.304Z</time></trkpt><trkpt lat="42.8501844" lon="13.5385249"><ele>174.0</ele><time>2026-04-18T07:52:34.301Z</time></trkpt><trkpt lat="42.8501791" lon="13.5381578"><ele>173.0</ele><time>2026-04-18T07:52:35.317Z</time></trkpt><trkpt lat="42.8501706" lon="13.537792"><ele>173.0</ele><time>2026-04-18T07:52:36.297Z</time></trkpt><trkpt lat="42.8501624" lon="13.5374002"><ele>173.0</ele><time>2026-04-18T07:52:37.34Z</time></trkpt><trkpt lat="42.850159" lon="13.5370276"><ele>174.0</ele><time>2026-04-18T07:52:38.334Z</time></trkpt><trkpt lat="42.8501538" lon="13.5366615"><ele>175.0</ele><time>2026-04-18T07:52:39.337Z</time></trkpt><trkpt lat="42.8501505" lon="13.5362995"><ele>175.0</ele><time>2026-04-18T07:52:40.367Z</time></trkpt><trkpt lat="42.850148" lon="13.5359778"><ele>175.0</ele><time>2026-04-18T07:52:41.306Z</time></trkpt><trkpt lat="42.8501439" lon="13.5356402"><ele>175.0</ele><time>2026-04-18T07:52:42.329Z</time></trkpt><trkpt lat="42.8501359" lon="13.5353227"><ele>175.0</ele><time>2026-04-18T07:52:43.3Z</time></trkpt><trkpt lat="42.8501259" lon="13.5349786"><ele>177.0</ele><time>2026-04-18T07:52:44.364Z</time></trkpt><trkpt lat="42.8501175" lon="13.5346767"><ele>179.0</ele><time>2026-04-18T07:52:45.317Z</time></trkpt><trkpt lat="42.8501109" lon="13.5343707"><ele>181.0</ele><time>2026-04-18T07:52:46.311Z</time></trkpt><trkpt lat="42.8501043" lon="13.5340634"><ele>185.0</ele><time>2026-04-18T07:52:47.317Z</time></trkpt><trkpt lat="42.8500971" lon="13.5337136"><ele>189.0</ele><time>2026-04-18T07:52:48.454Z</time></trkpt><trkpt lat="42.8500834" lon="13.533144"><ele>190.0</ele><time>2026-04-18T07:52:50.325Z</time></trkpt><trkpt lat="42.850078" lon="13.5328218"><ele>191.0</ele><time>2026-04-18T07:52:51.416Z</time></trkpt><trkpt lat="42.8500699" lon="13.5325692"><ele>192.0</ele><time>2026-04-18T07:52:52.325Z</time></trkpt><trkpt lat="42.8500516" lon="13.5323009"><ele>192.0</ele><time>2026-04-18T07:52:53.347Z</time></trkpt><trkpt lat="42.850026" lon="13.5320583"><ele>192.0</ele><time>2026-04-18T07:52:54.309Z</time></trkpt><trkpt lat="42.849989" lon="13.5318158"><ele>192.0</ele><time>2026-04-18T07:52:55.293Z</time></trkpt><trkpt lat="42.849938" lon="13.5315602"><ele>190.0</ele><time>2026-04-18T07:52:56.346Z</time></trkpt><trkpt lat="42.8498775" lon="13.5313107"><ele>188.0</ele><time>2026-04-18T07:52:57.406Z</time></trkpt><trkpt lat="42.8497517" lon="13.5308982"><ele>185.66666666666666</ele><time>2026-04-18T07:52:59.293Z</time></trkpt><trkpt lat="42.8496764" lon="13.5306852"><ele>183.33333333333334</ele><time>2026-04-18T07:53:00.311Z</time></trkpt><trkpt lat="42.8495976" lon="13.5304813"><ele>181.0</ele><time>2026-04-18T07:53:01.323Z</time></trkpt><trkpt lat="42.8495191" lon="13.5302987"><ele>182.0</ele><time>2026-04-18T07:53:02.288Z</time></trkpt><trkpt lat="42.8494222" lon="13.530116"><ele>183.0</ele><time>2026-04-18T07:53:03.339Z</time></trkpt><trkpt lat="42.8493235" lon="13.5299606"><ele>184.0</ele><time>2026-04-18T07:53:04.316Z</time></trkpt><trkpt lat="42.84921" lon="13.5298102"><ele>184.0</ele><time>2026-04-18T07:53:05.328Z</time></trkpt><trkpt lat="42.8490872" lon="13.5296716"><ele>184.0</ele><time>2026-04-18T07:53:06.308Z</time></trkpt><trkpt lat="42.8489543" lon="13.5295388"><ele>184.0</ele><time>2026-04-18T07:53:07.288Z</time></trkpt><trkpt lat="42.8488066" lon="13.5294071"><ele>178.66666666666669</ele><time>2026-04-18T07:53:08.309Z</time></trkpt><trkpt lat="42.8486519" lon="13.5292782"><ele>173.33333333333334</ele><time>2026-04-18T07:53:09.325Z</time></trkpt><trkpt lat="42.8484793" lon="13.5291374"><ele>168.0</ele><time>2026-04-18T07:53:10.411Z</time></trkpt><trkpt lat="42.8483224" lon="13.5290132"><ele>168.0</ele><time>2026-04-18T07:53:11.37Z</time></trkpt><trkpt lat="42.8481679" lon="13.5288973"><ele>168.0</ele><time>2026-04-18T07:53:12.291Z</time></trkpt><trkpt lat="42.8479942" lon="13.5287718"><ele>168.0</ele><time>2026-04-18T07:53:13.299Z</time></trkpt><trkpt lat="42.8478201" lon="13.5286493"><ele>168.0</ele><time>2026-04-18T07:53:14.287Z</time></trkpt><trkpt lat="42.8476333" lon="13.5285159"><ele>168.0</ele><time>2026-04-18T07:53:15.325Z</time></trkpt><trkpt lat="42.8474532" lon="13.5283863"><ele>168.0</ele><time>2026-04-18T07:53:16.3Z</time></trkpt><trkpt lat="42.8472603" lon="13.528251"><ele>168.0</ele><time>2026-04-18T07:53:17.316Z</time></trkpt><trkpt lat="42.8470641" lon="13.528118"><ele>168.0</ele><time>2026-04-18T07:53:18.311Z</time></trkpt><trkpt lat="42.8468675" lon="13.5279803"><ele>168.0</ele><time>2026-04-18T07:53:19.298Z</time></trkpt><trkpt lat="42.8466601" lon="13.5278295"><ele>167.0</ele><time>2026-04-18T07:53:20.325Z</time></trkpt><trkpt lat="42.8464321" lon="13.5276584"><ele>166.0</ele><time>2026-04-18T07:53:21.449Z</time></trkpt><trkpt lat="42.8460455" lon="13.5273666"><ele>173.0</ele><time>2026-04-18T07:53:23.342Z</time></trkpt><trkpt lat="42.8458453" lon="13.5272183"><ele>180.0</ele><time>2026-04-18T07:53:24.308Z</time></trkpt><trkpt lat="42.8456313" lon="13.5270648"><ele>175.0</ele><time>2026-04-18T07:53:25.325Z</time></trkpt><trkpt lat="42.845415" lon="13.5269102"><ele>170.0</ele><time>2026-04-18T07:53:26.351Z</time></trkpt><trkpt lat="42.8452059" lon="13.526759"><ele>177.5</ele><time>2026-04-18T07:53:27.335Z</time></trkpt><trkpt lat="42.8449991" lon="13.5266066"><ele>185.0</ele><time>2026-04-18T07:53:28.315Z</time></trkpt><trkpt lat="42.8447807" lon="13.5264419"><ele>185.0</ele><time>2026-04-18T07:53:29.35Z</time></trkpt><trkpt lat="42.8445753" lon="13.5262856"><ele>185.0</ele><time>2026-04-18T07:53:30.307Z</time></trkpt><trkpt lat="42.844348" lon="13.5261115"><ele>184.5</ele><time>2026-04-18T07:53:31.359Z</time></trkpt><trkpt lat="42.8441379" lon="13.5259478"><ele>184.0</ele><time>2026-04-18T07:53:32.331Z</time></trkpt><trkpt lat="42.8439211" lon="13.5257668"><ele>184.0</ele><time>2026-04-18T07:53:33.355Z</time></trkpt><trkpt lat="42.8436908" lon="13.5255682"><ele>184.0</ele><time>2026-04-18T07:53:34.448Z</time></trkpt><trkpt lat="42.8435019" lon="13.5253979"><ele>184.5</ele><time>2026-04-18T07:53:35.36Z</time></trkpt><trkpt lat="42.8432971" lon="13.5252083"><ele>185.0</ele><time>2026-04-18T07:53:36.36Z</time></trkpt><trkpt lat="42.8431033" lon="13.5250247"><ele>185.0</ele><time>2026-04-18T07:53:37.315Z</time></trkpt><trkpt lat="42.842897" lon="13.5248245"><ele>185.0</ele><time>2026-04-18T07:53:38.345Z</time></trkpt><trkpt lat="42.8427081" lon="13.5246296"><ele>186.5</ele><time>2026-04-18T07:53:39.316Z</time></trkpt><trkpt lat="42.8425142" lon="13.5244271"><ele>188.0</ele><time>2026-04-18T07:53:40.326Z</time></trkpt><trkpt lat="42.8423318" lon="13.524232"><ele>188.0</ele><time>2026-04-18T07:53:41.312Z</time></trkpt><trkpt lat="42.8421484" lon="13.5240323"><ele>188.0</ele><time>2026-04-18T07:53:42.327Z</time></trkpt><trkpt lat="42.8419656" lon="13.5238289"><ele>189.33333333333331</ele><time>2026-04-18T07:53:43.347Z</time></trkpt><trkpt lat="42.8418002" lon="13.5236392"><ele>190.66666666666666</ele><time>2026-04-18T07:53:44.308Z</time></trkpt><trkpt lat="42.8416368" lon="13.5234359"><ele>192.0</ele><time>2026-04-18T07:53:45.293Z</time></trkpt><trkpt lat="42.8414757" lon="13.523217"><ele>192.0</ele><time>2026-04-18T07:53:46.297Z</time></trkpt><trkpt lat="42.8413111" lon="13.5229899"><ele>192.0</ele><time>2026-04-18T07:53:47.311Z</time></trkpt><trkpt lat="42.8411547" lon="13.5227636"><ele>192.0</ele><time>2026-04-18T07:53:48.302Z</time></trkpt><trkpt lat="42.8410006" lon="13.5225374"><ele>192.0</ele><time>2026-04-18T07:53:49.29Z</time></trkpt><trkpt lat="42.8408385" lon="13.5223046"><ele>192.0</ele><time>2026-04-18T07:53:50.314Z</time></trkpt><trkpt lat="42.8406725" lon="13.5220792"><ele>192.0</ele><time>2026-04-18T07:53:51.323Z</time></trkpt><trkpt lat="42.8405021" lon="13.521869"><ele>186.0</ele><time>2026-04-18T07:53:52.312Z</time></trkpt><trkpt lat="42.8403202" lon="13.5216696"><ele>180.0</ele><time>2026-04-18T07:53:53.309Z</time></trkpt><trkpt lat="42.8401353" lon="13.5214806"><ele>181.5</ele><time>2026-04-18T07:53:54.296Z</time></trkpt><trkpt lat="42.8399354" lon="13.5212892"><ele>183.0</ele><time>2026-04-18T07:53:55.341Z</time></trkpt><trkpt lat="42.8397409" lon="13.5211221"><ele>183.0</ele><time>2026-04-18T07:53:56.327Z</time></trkpt><trkpt lat="42.8395409" lon="13.5209681"><ele>183.0</ele><time>2026-04-18T07:53:57.329Z</time></trkpt><trkpt lat="42.8393371" lon="13.5208285"><ele>189.0</ele><time>2026-04-18T07:53:58.328Z</time></trkpt><trkpt lat="42.8391309" lon="13.5206948"><ele>195.0</ele><time>2026-04-18T07:53:59.331Z</time></trkpt><trkpt lat="42.8389268" lon="13.5205669"><ele>195.0</ele><time>2026-04-18T07:54:00.332Z</time></trkpt><trkpt lat="42.8386965" lon="13.5204291"><ele>195.0</ele><time>2026-04-18T07:54:01.455Z</time></trkpt><trkpt lat="42.8383027" lon="13.5202186"><ele>196.0</ele><time>2026-04-18T07:54:03.347Z</time></trkpt><trkpt lat="42.838093" lon="13.5201157"><ele>197.0</ele><time>2026-04-18T07:54:04.342Z</time></trkpt><trkpt lat="42.8378717" lon="13.5200216"><ele>197.0</ele><time>2026-04-18T07:54:05.359Z</time></trkpt><trkpt lat="42.8376568" lon="13.5199355"><ele>197.0</ele><time>2026-04-18T07:54:06.341Z</time></trkpt><trkpt lat="42.8374438" lon="13.5198511"><ele>197.0</ele><time>2026-04-18T07:54:07.317Z</time></trkpt><trkpt lat="42.8371954" lon="13.5197504"><ele>197.5</ele><time>2026-04-18T07:54:08.481Z</time></trkpt><trkpt lat="42.8368047" lon="13.5195969"><ele>198.0</ele><time>2026-04-18T07:54:10.341Z</time></trkpt><trkpt lat="42.8366035" lon="13.5195127"><ele>198.0</ele><time>2026-04-18T07:54:11.32Z</time></trkpt><trkpt lat="42.8364" lon="13.5194221"><ele>198.0</ele><time>2026-04-18T07:54:12.333Z</time></trkpt><trkpt lat="42.8361962" lon="13.5193264"><ele>198.0</ele><time>2026-04-18T07:54:13.36Z</time></trkpt><trkpt lat="42.8359776" lon="13.5192256"><ele>205.0</ele><time>2026-04-18T07:54:14.479Z</time></trkpt><trkpt lat="42.8356222" lon="13.5190713"><ele>212.0</ele><time>2026-04-18T07:54:16.319Z</time></trkpt><trkpt lat="42.8354289" lon="13.5189843"><ele>212.0</ele><time>2026-04-18T07:54:17.325Z</time></trkpt><trkpt lat="42.8352414" lon="13.5188919"><ele>212.0</ele><time>2026-04-18T07:54:18.319Z</time></trkpt><trkpt lat="42.8350576" lon="13.5187984"><ele>212.0</ele><time>2026-04-18T07:54:19.294Z</time></trkpt><trkpt lat="42.8348578" lon="13.5186949"><ele>212.33333333333334</ele><time>2026-04-18T07:54:20.36Z</time></trkpt><trkpt lat="42.8346704" lon="13.5185917"><ele>212.66666666666669</ele><time>2026-04-18T07:54:21.379Z</time></trkpt><trkpt lat="42.8344732" lon="13.5184758"><ele>213.0</ele><time>2026-04-18T07:54:22.45Z</time></trkpt><trkpt lat="42.8341068" lon="13.5182618"><ele>218.0</ele><time>2026-04-18T07:54:24.361Z</time></trkpt><trkpt lat="42.8338954" lon="13.5181421"><ele>223.0</ele><time>2026-04-18T07:54:25.409Z</time></trkpt><trkpt lat="42.8335177" lon="13.517914"><ele>220.33333333333331</ele><time>2026-04-18T07:54:27.316Z</time></trkpt><trkpt lat="42.8333248" lon="13.517787"><ele>217.66666666666669</ele><time>2026-04-18T07:54:28.295Z</time></trkpt><trkpt lat="42.8331273" lon="13.5176519"><ele>215.0</ele><time>2026-04-18T07:54:29.306Z</time></trkpt><trkpt lat="42.8329356" lon="13.5175186"><ele>215.0</ele><time>2026-04-18T07:54:30.284Z</time></trkpt><trkpt lat="42.8327317" lon="13.5173708"><ele>215.0</ele><time>2026-04-18T07:54:31.334Z</time></trkpt><trkpt lat="42.8325428" lon="13.5172325"><ele>215.0</ele><time>2026-04-18T07:54:32.299Z</time></trkpt><trkpt lat="42.8323519" lon="13.5170864"><ele>215.66666666666669</ele><time>2026-04-18T07:54:33.288Z</time></trkpt><trkpt lat="42.8321645" lon="13.516934"><ele>216.33333333333331</ele><time>2026-04-18T07:54:34.294Z</time></trkpt><trkpt lat="42.8319758" lon="13.5167717"><ele>217.0</ele><time>2026-04-18T07:54:35.323Z</time></trkpt><trkpt lat="42.8318026" lon="13.5166108"><ele>217.0</ele><time>2026-04-18T07:54:36.287Z</time></trkpt><trkpt lat="42.8316193" lon="13.5164316"><ele>217.0</ele><time>2026-04-18T07:54:37.297Z</time></trkpt><trkpt lat="42.8314202" lon="13.5162338"><ele>217.0</ele><time>2026-04-18T07:54:38.383Z</time></trkpt><trkpt lat="42.8310749" lon="13.5158708"><ele>217.0</ele><time>2026-04-18T07:54:40.359Z</time></trkpt><trkpt lat="42.8309207" lon="13.5157035"><ele>217.0</ele><time>2026-04-18T07:54:41.301Z</time></trkpt><trkpt lat="42.83077" lon="13.5155326"><ele>217.0</ele><time>2026-04-18T07:54:42.294Z</time></trkpt><trkpt lat="42.8306198" lon="13.5153644"><ele>217.0</ele><time>2026-04-18T07:54:43.32Z</time></trkpt><trkpt lat="42.830482" lon="13.5152107"><ele>213.5</ele><time>2026-04-18T07:54:44.279Z</time></trkpt><trkpt lat="42.8303228" lon="13.5150223"><ele>210.0</ele><time>2026-04-18T07:54:45.319Z</time></trkpt><trkpt lat="42.8301183" lon="13.5147467"><ele>218.0</ele><time>2026-04-18T07:54:47.128Z</time></trkpt><trkpt lat="42.8292732" lon="13.5137137"><ele>218.0</ele><time>2026-04-18T07:54:53.013Z</time></trkpt><trkpt lat="42.8292356" lon="13.5134364"><ele>218.0</ele><time>2026-04-18T07:54:54.013Z</time></trkpt><trkpt lat="42.8291187" lon="13.5132483"><ele>218.0</ele><time>2026-04-18T07:54:55.013Z</time></trkpt><trkpt lat="42.8289992" lon="13.5130352"><ele>213.66666666666669</ele><time>2026-04-18T07:54:56.013Z</time></trkpt><trkpt lat="42.828866" lon="13.5128375"><ele>209.33333333333331</ele><time>2026-04-18T07:54:57.013Z</time></trkpt><trkpt lat="42.8287306" lon="13.5126327"><ele>205.0</ele><time>2026-04-18T07:54:58.013Z</time></trkpt><trkpt lat="42.8285875" lon="13.5124204"><ele>204.0</ele><time>2026-04-18T07:54:59.267Z</time></trkpt><trkpt lat="42.828448" lon="13.5122009"><ele>203.0</ele><time>2026-04-18T07:55:00.318Z</time></trkpt><trkpt lat="42.8283138" lon="13.5119883"><ele>202.0</ele><time>2026-04-18T07:55:01.296Z</time></trkpt><trkpt lat="42.8281657" lon="13.5117598"><ele>202.0</ele><time>2026-04-18T07:55:02.408Z</time></trkpt><trkpt lat="42.8279489" lon="13.5113991"><ele>202.0</ele><time>2026-04-18T07:55:04.294Z</time></trkpt><trkpt lat="42.8278374" lon="13.51122"><ele>200.33333333333331</ele><time>2026-04-18T07:55:05.309Z</time></trkpt><trkpt lat="42.8277248" lon="13.5110457"><ele>198.66666666666669</ele><time>2026-04-18T07:55:06.321Z</time></trkpt><trkpt lat="42.8276147" lon="13.5108756"><ele>197.0</ele><time>2026-04-18T07:55:07.288Z</time></trkpt><trkpt lat="42.8274712" lon="13.5106625"><ele>197.0</ele><time>2026-04-18T07:55:08.392Z</time></trkpt><trkpt lat="42.8273314" lon="13.5104536"><ele>197.0</ele><time>2026-04-18T07:55:09.402Z</time></trkpt><trkpt lat="42.8270402" lon="13.5100198"><ele>199.5</ele><time>2026-04-18T07:55:11.294Z</time></trkpt><trkpt lat="42.8268771" lon="13.5098001"><ele>202.0</ele><time>2026-04-18T07:55:12.297Z</time></trkpt><trkpt lat="42.8267137" lon="13.5095923"><ele>205.33333333333331</ele><time>2026-04-18T07:55:13.298Z</time></trkpt><trkpt lat="42.8265485" lon="13.5094024"><ele>208.66666666666669</ele><time>2026-04-18T07:55:14.324Z</time></trkpt><trkpt lat="42.8263969" lon="13.5092388"><ele>212.0</ele><time>2026-04-18T07:55:15.303Z</time></trkpt><trkpt lat="42.8262529" lon="13.5090982"><ele>212.0</ele><time>2026-04-18T07:55:16.308Z</time></trkpt><trkpt lat="42.8261164" lon="13.508978"><ele>212.0</ele><time>2026-04-18T07:55:17.313Z</time></trkpt><trkpt lat="42.8259867" lon="13.5088726"><ele>212.0</ele><time>2026-04-18T07:55:18.303Z</time></trkpt><trkpt lat="42.8258594" lon="13.5087735"><ele>216.25</ele><time>2026-04-18T07:55:19.312Z</time></trkpt><trkpt lat="42.8257414" lon="13.5086877"><ele>220.5</ele><time>2026-04-18T07:55:20.279Z</time></trkpt><trkpt lat="42.8256165" lon="13.508607"><ele>224.75</ele><time>2026-04-18T07:55:21.277Z</time></trkpt><trkpt lat="42.8254889" lon="13.5085382"><ele>229.0</ele><time>2026-04-18T07:55:22.287Z</time></trkpt><trkpt lat="42.8253602" lon="13.5084889"><ele>229.0</ele><time>2026-04-18T07:55:23.284Z</time></trkpt><trkpt lat="42.8252246" lon="13.5084602"><ele>229.0</ele><time>2026-04-18T07:55:24.266Z</time></trkpt><trkpt lat="42.8250801" lon="13.5084462"><ele>229.0</ele><time>2026-04-18T07:55:25.322Z</time></trkpt><trkpt lat="42.8249516" lon="13.5084492"><ele>229.0</ele><time>2026-04-18T07:55:26.293Z</time></trkpt><trkpt lat="42.8248234" lon="13.5084715"><ele>228.75</ele><time>2026-04-18T07:55:27.283Z</time></trkpt><trkpt lat="42.8246937" lon="13.508499"><ele>228.5</ele><time>2026-04-18T07:55:28.287Z</time></trkpt><trkpt lat="42.8245594" lon="13.5085347"><ele>228.25</ele><time>2026-04-18T07:55:29.35Z</time></trkpt><trkpt lat="42.824442" lon="13.508566"><ele>228.0</ele><time>2026-04-18T07:55:30.291Z</time></trkpt><trkpt lat="42.8243235" lon="13.5085969"><ele>225.0</ele><time>2026-04-18T07:55:31.285Z</time></trkpt><trkpt lat="42.8242082" lon="13.5086237"><ele>222.0</ele><time>2026-04-18T07:55:32.281Z</time></trkpt><trkpt lat="42.8240869" lon="13.5086438"><ele>219.0</ele><time>2026-04-18T07:55:33.307Z</time></trkpt><trkpt lat="42.8239646" lon="13.5086518"><ele>216.0</ele><time>2026-04-18T07:55:34.283Z</time></trkpt><trkpt lat="42.8238288" lon="13.5086444"><ele>216.0</ele><time>2026-04-18T07:55:35.325Z</time></trkpt><trkpt lat="42.8236979" lon="13.5086147"><ele>216.0</ele><time>2026-04-18T07:55:36.314Z</time></trkpt><trkpt lat="42.8235708" lon="13.5085689"><ele>216.0</ele><time>2026-04-18T07:55:37.321Z</time></trkpt><trkpt lat="42.8234501" lon="13.5085223"><ele>216.0</ele><time>2026-04-18T07:55:38.284Z</time></trkpt><trkpt lat="42.8233262" lon="13.508476"><ele>213.5</ele><time>2026-04-18T07:55:39.293Z</time></trkpt><trkpt lat="42.8232062" lon="13.508433"><ele>211.0</ele><time>2026-04-18T07:55:40.284Z</time></trkpt><trkpt lat="42.8230905" lon="13.5083921"><ele>208.5</ele><time>2026-04-18T07:55:41.294Z</time></trkpt><trkpt lat="42.8229787" lon="13.5083516"><ele>206.0</ele><time>2026-04-18T07:55:42.288Z</time></trkpt><trkpt lat="42.8228612" lon="13.5083104"><ele>206.0</ele><time>2026-04-18T07:55:43.291Z</time></trkpt><trkpt lat="42.8227461" lon="13.5082675"><ele>206.0</ele><time>2026-04-18T07:55:44.3Z</time></trkpt><trkpt lat="42.8226403" lon="13.5082301"><ele>206.0</ele><time>2026-04-18T07:55:45.301Z</time></trkpt><trkpt lat="42.8225196" lon="13.5081878"><ele>206.0</ele><time>2026-04-18T07:55:46.464Z</time></trkpt><trkpt lat="42.8223574" lon="13.508126"><ele>206.16666666666669</ele><time>2026-04-18T07:55:48.303Z</time></trkpt><trkpt lat="42.8222847" lon="13.5080747"><ele>206.33333333333334</ele><time>2026-04-18T07:55:49.309Z</time></trkpt><trkpt lat="42.822224" lon="13.5080138"><ele>206.5</ele><time>2026-04-18T07:55:50.293Z</time></trkpt><trkpt lat="42.8221673" lon="13.5079385"><ele>206.66666666666669</ele><time>2026-04-18T07:55:51.317Z</time></trkpt><trkpt lat="42.8221161" lon="13.5078556"><ele>206.83333333333334</ele><time>2026-04-18T07:55:52.314Z</time></trkpt><trkpt lat="42.8220772" lon="13.5077588"><ele>207.0</ele><time>2026-04-18T07:55:53.304Z</time></trkpt><trkpt lat="42.8220462" lon="13.5076549"><ele>207.39999999999998</ele><time>2026-04-18T07:55:54.316Z</time></trkpt><trkpt lat="42.8220145" lon="13.507544"><ele>207.79999999999998</ele><time>2026-04-18T07:55:55.318Z</time></trkpt><trkpt lat="42.8219835" lon="13.5074241"><ele>208.2</ele><time>2026-04-18T07:55:56.301Z</time></trkpt><trkpt lat="42.8219452" lon="13.5072792"><ele>208.6</ele><time>2026-04-18T07:55:57.356Z</time></trkpt><trkpt lat="42.8219046" lon="13.5071218"><ele>209.0</ele><time>2026-04-18T07:55:58.318Z</time></trkpt><trkpt lat="42.8218593" lon="13.5069295"><ele>209.5</ele><time>2026-04-18T07:55:59.35Z</time></trkpt><trkpt lat="42.8218032" lon="13.5066838"><ele>210.0</ele><time>2026-04-18T07:56:00.474Z</time></trkpt><trkpt lat="42.8217323" lon="13.5063253"><ele>211.5</ele><time>2026-04-18T07:56:02.355Z</time></trkpt><trkpt lat="42.8216999" lon="13.5061545"><ele>213.0</ele><time>2026-04-18T07:56:03.355Z</time></trkpt><trkpt lat="42.8216804" lon="13.5060023"><ele>214.5</ele><time>2026-04-18T07:56:04.308Z</time></trkpt><trkpt lat="42.821662" lon="13.5058519"><ele>216.0</ele><time>2026-04-18T07:56:05.321Z</time></trkpt><trkpt lat="42.8216452" lon="13.5057131"><ele>216.0</ele><time>2026-04-18T07:56:06.352Z</time></trkpt><trkpt lat="42.8216337" lon="13.5055919"><ele>216.0</ele><time>2026-04-18T07:56:07.321Z</time></trkpt><trkpt lat="42.8216297" lon="13.5054791"><ele>216.0</ele><time>2026-04-18T07:56:08.353Z</time></trkpt><trkpt lat="42.8216167" lon="13.5053262"><ele>216.0</ele><time>2026-04-18T07:56:10.357Z</time></trkpt><trkpt lat="42.8216236" lon="13.5052208"><ele>216.0</ele><time>2026-04-18T07:56:12.354Z</time></trkpt><trkpt lat="42.8216151" lon="13.5051208"><ele>216.0</ele><time>2026-04-18T07:56:15.343Z</time></trkpt><trkpt lat="42.8215885" lon="13.5050355"><ele>216.0</ele><time>2026-04-18T07:56:37.331Z</time></trkpt><trkpt lat="42.8215273" lon="13.5050696"><ele>216.00000000000003</ele><time>2026-04-18T07:56:39.335Z</time></trkpt><trkpt lat="42.8214945" lon="13.505225"><ele>216.00000000000003</ele><time>2026-04-18T07:56:41.332Z</time></trkpt><trkpt lat="42.8214539" lon="13.5053533"><ele>216.0</ele><time>2026-04-18T07:56:43.3Z</time></trkpt><trkpt lat="42.8214084" lon="13.5054352"><ele>216.0</ele><time>2026-04-18T07:56:45.324Z</time></trkpt><trkpt lat="42.8213211" lon="13.5054504"><ele>216.0</ele><time>2026-04-18T07:56:50.32Z</time></trkpt><trkpt lat="42.8212624" lon="13.5054157"><ele>216.00000000000003</ele><time>2026-04-18T07:56:51.324Z</time></trkpt><trkpt lat="42.8211934" lon="13.5053564"><ele>216.00000000000003</ele><time>2026-04-18T07:56:52.308Z</time></trkpt><trkpt lat="42.8211132" lon="13.5052854"><ele>216.0</ele><time>2026-04-18T07:56:53.302Z</time></trkpt><trkpt lat="42.8210002" lon="13.5051903"><ele>216.0</ele><time>2026-04-18T07:56:54.276Z</time></trkpt><trkpt lat="42.8208761" lon="13.5050846"><ele>219.33333333333331</ele><time>2026-04-18T07:56:55.281Z</time></trkpt><trkpt lat="42.8207266" lon="13.5049561"><ele>222.66666666666666</ele><time>2026-04-18T07:56:56.317Z</time></trkpt><trkpt lat="42.8205887" lon="13.5048336"><ele>226.0</ele><time>2026-04-18T07:56:57.29Z</time></trkpt><trkpt lat="42.8204406" lon="13.5047027"><ele>226.0</ele><time>2026-04-18T07:56:58.339Z</time></trkpt><trkpt lat="42.8203287" lon="13.5046133"><ele>226.0</ele><time>2026-04-18T07:56:59.295Z</time></trkpt><trkpt lat="42.8202195" lon="13.5045264"><ele>226.0</ele><time>2026-04-18T07:57:00.283Z</time></trkpt><trkpt lat="42.8200952" lon="13.5044378"><ele>226.0</ele><time>2026-04-18T07:57:01.294Z</time></trkpt><trkpt lat="42.8199559" lon="13.5043568"><ele>227.0</ele><time>2026-04-18T07:57:02.293Z</time></trkpt><trkpt lat="42.8198071" lon="13.5042815"><ele>228.0</ele><time>2026-04-18T07:57:03.293Z</time></trkpt><trkpt lat="42.819633" lon="13.5042012"><ele>229.0</ele><time>2026-04-18T07:57:04.309Z</time></trkpt><trkpt lat="42.8194229" lon="13.5041241"><ele>224.0</ele><time>2026-04-18T07:57:05.388Z</time></trkpt><trkpt lat="42.8192169" lon="13.5040714"><ele>219.0</ele><time>2026-04-18T07:57:06.3Z</time></trkpt><trkpt lat="42.818962" lon="13.5040255"><ele>219.0</ele><time>2026-04-18T07:57:07.31Z</time></trkpt><trkpt lat="42.8186953" lon="13.5039801"><ele>219.0</ele><time>2026-04-18T07:57:08.295Z</time></trkpt><trkpt lat="42.8184018" lon="13.503929"><ele>219.5</ele><time>2026-04-18T07:57:09.321Z</time></trkpt><trkpt lat="42.8181061" lon="13.5038742"><ele>220.0</ele><time>2026-04-18T07:57:10.305Z</time></trkpt><trkpt lat="42.8178014" lon="13.5038139"><ele>217.0</ele><time>2026-04-18T07:57:11.282Z</time></trkpt><trkpt lat="42.8174847" lon="13.5037477"><ele>214.0</ele><time>2026-04-18T07:57:12.268Z</time></trkpt><trkpt lat="42.817157" lon="13.5036744"><ele>223.0</ele><time>2026-04-18T07:57:13.286Z</time></trkpt><trkpt lat="42.8168434" lon="13.5036102"><ele>232.0</ele><time>2026-04-18T07:57:14.293Z</time></trkpt><trkpt lat="42.8165504" lon="13.5035552"><ele>232.0</ele><time>2026-04-18T07:57:15.274Z</time></trkpt><trkpt lat="42.8162511" lon="13.5034885"><ele>232.0</ele><time>2026-04-18T07:57:16.279Z</time></trkpt><trkpt lat="42.815942" lon="13.503427"><ele>232.0</ele><time>2026-04-18T07:57:17.306Z</time></trkpt><trkpt lat="42.81564" lon="13.5033812"><ele>232.0</ele><time>2026-04-18T07:57:18.271Z</time></trkpt><trkpt lat="42.8153246" lon="13.5033451"><ele>230.5</ele><time>2026-04-18T07:57:19.283Z</time></trkpt><trkpt lat="42.8150038" lon="13.5033265"><ele>229.0</ele><time>2026-04-18T07:57:20.277Z</time></trkpt><trkpt lat="42.8146546" lon="13.5033131"><ele>229.0</ele><time>2026-04-18T07:57:21.308Z</time></trkpt><trkpt lat="42.8143484" lon="13.503305"><ele>229.0</ele><time>2026-04-18T07:57:22.294Z</time></trkpt><trkpt lat="42.8140503" lon="13.5032958"><ele>228.5</ele><time>2026-04-18T07:57:23.302Z</time></trkpt><trkpt lat="42.8137778" lon="13.5032827"><ele>228.0</ele><time>2026-04-18T07:57:24.285Z</time></trkpt><trkpt lat="42.813513" lon="13.5032682"><ele>229.5</ele><time>2026-04-18T07:57:25.309Z</time></trkpt><trkpt lat="42.8132714" lon="13.5032405"><ele>231.0</ele><time>2026-04-18T07:57:26.3Z</time></trkpt><trkpt lat="42.8130269" lon="13.5031916"><ele>231.0</ele><time>2026-04-18T07:57:27.315Z</time></trkpt><trkpt lat="42.8127993" lon="13.5031206"><ele>231.0</ele><time>2026-04-18T07:57:28.271Z</time></trkpt><trkpt lat="42.8125615" lon="13.5030249"><ele>241.5</ele><time>2026-04-18T07:57:29.269Z</time></trkpt><trkpt lat="42.8123204" lon="13.5029063"><ele>252.0</ele><time>2026-04-18T07:57:30.262Z</time></trkpt><trkpt lat="42.8120847" lon="13.5027738"><ele>252.0</ele><time>2026-04-18T07:57:31.247Z</time></trkpt><trkpt lat="42.8118356" lon="13.5026232"><ele>252.0</ele><time>2026-04-18T07:57:32.275Z</time></trkpt><trkpt lat="42.8115952" lon="13.5024769"><ele>244.0</ele><time>2026-04-18T07:57:33.28Z</time></trkpt><trkpt lat="42.8113271" lon="13.5023129"><ele>236.0</ele><time>2026-04-18T07:57:34.246Z</time></trkpt><trkpt lat="42.8110642" lon="13.5021504"><ele>240.0</ele><time>2026-04-18T07:57:35.159Z</time></trkpt><trkpt lat="42.8108725" lon="13.5020471"><ele>244.0</ele><time>2026-04-18T07:57:36.18Z</time></trkpt><trkpt lat="42.8106399" lon="13.5018885"><ele>244.0</ele><time>2026-04-18T07:57:37.274Z</time></trkpt><trkpt lat="42.8104224" lon="13.5017008"><ele>244.0</ele><time>2026-04-18T07:57:38.254Z</time></trkpt><trkpt lat="42.8102024" lon="13.5014758"><ele>246.0</ele><time>2026-04-18T07:57:39.287Z</time></trkpt><trkpt lat="42.8100044" lon="13.5012531"><ele>248.0</ele><time>2026-04-18T07:57:40.255Z</time></trkpt><trkpt lat="42.809808" lon="13.5010005"><ele>248.0</ele><time>2026-04-18T07:57:41.269Z</time></trkpt><trkpt lat="42.8096231" lon="13.5007291"><ele>248.0</ele><time>2026-04-18T07:57:42.254Z</time></trkpt><trkpt lat="42.8094429" lon="13.5004167"><ele>242.0</ele><time>2026-04-18T07:57:43.291Z</time></trkpt><trkpt lat="42.8092823" lon="13.5001145"><ele>236.0</ele><time>2026-04-18T07:57:44.285Z</time></trkpt><trkpt lat="42.8091448" lon="13.4998122"><ele>237.0</ele><time>2026-04-18T07:57:45.263Z</time></trkpt><trkpt lat="42.8090197" lon="13.4994775"><ele>238.0</ele><time>2026-04-18T07:57:46.279Z</time></trkpt><trkpt lat="42.8089037" lon="13.4991314"><ele>238.0</ele><time>2026-04-18T07:57:47.27Z</time></trkpt><trkpt lat="42.8087884" lon="13.4987708"><ele>238.0</ele><time>2026-04-18T07:57:48.254Z</time></trkpt><trkpt lat="42.8086549" lon="13.4983575"><ele>236.5</ele><time>2026-04-18T07:57:49.332Z</time></trkpt><trkpt lat="42.8085494" lon="13.4980114"><ele>235.0</ele><time>2026-04-18T07:57:50.266Z</time></trkpt><trkpt lat="42.8084435" lon="13.4976575"><ele>233.5</ele><time>2026-04-18T07:57:51.3Z</time></trkpt><trkpt lat="42.8083526" lon="13.497337"><ele>232.0</ele><time>2026-04-18T07:57:52.283Z</time></trkpt><trkpt lat="42.808267" lon="13.4970298"><ele>232.0</ele><time>2026-04-18T07:57:53.272Z</time></trkpt><trkpt lat="42.8081811" lon="13.4967294"><ele>232.0</ele><time>2026-04-18T07:57:54.292Z</time></trkpt><trkpt lat="42.8080982" lon="13.4964398"><ele>233.66666666666666</ele><time>2026-04-18T07:57:55.285Z</time></trkpt><trkpt lat="42.8080124" lon="13.4961518"><ele>235.33333333333331</ele><time>2026-04-18T07:57:56.308Z</time></trkpt><trkpt lat="42.8079325" lon="13.4958843"><ele>237.0</ele><time>2026-04-18T07:57:57.275Z</time></trkpt><trkpt lat="42.8078545" lon="13.4956354"><ele>236.0</ele><time>2026-04-18T07:57:58.278Z</time></trkpt><trkpt lat="42.807782" lon="13.4953852"><ele>235.0</ele><time>2026-04-18T07:57:59.295Z</time></trkpt><trkpt lat="42.8077156" lon="13.4951572"><ele>234.0</ele><time>2026-04-18T07:58:00.294Z</time></trkpt><trkpt lat="42.8076576" lon="13.4949508"><ele>235.5</ele><time>2026-04-18T07:58:01.29Z</time></trkpt><trkpt lat="42.8076048" lon="13.4947641"><ele>237.0</ele><time>2026-04-18T07:58:02.304Z</time></trkpt><trkpt lat="42.8075587" lon="13.4946024"><ele>238.5</ele><time>2026-04-18T07:58:03.289Z</time></trkpt><trkpt lat="42.8075172" lon="13.4944634"><ele>240.0</ele><time>2026-04-18T07:58:04.283Z</time></trkpt><trkpt lat="42.8074812" lon="13.4943509"><ele>240.0</ele><time>2026-04-18T07:58:05.31Z</time></trkpt><trkpt lat="42.807451" lon="13.4942638"><ele>240.0</ele><time>2026-04-18T07:58:06.268Z</time></trkpt><trkpt lat="42.8074261" lon="13.4941724"><ele>240.0</ele><time>2026-04-18T07:58:08.302Z</time></trkpt><trkpt lat="42.8074173" lon="13.4940699"><ele>240.0</ele><time>2026-04-18T07:58:20.31Z</time></trkpt><trkpt lat="42.8073766" lon="13.4939308"><ele>240.0</ele><time>2026-04-18T07:58:22.262Z</time></trkpt><trkpt lat="42.8073981" lon="13.4938119"><ele>240.0</ele><time>2026-04-18T07:58:24.288Z</time></trkpt><trkpt lat="42.8074945" lon="13.4937135"><ele>239.14285714285717</ele><time>2026-04-18T07:58:26.29Z</time></trkpt><trkpt lat="42.807551" lon="13.4936635"><ele>238.28571428571428</ele><time>2026-04-18T07:58:27.294Z</time></trkpt><trkpt lat="42.807605" lon="13.493611"><ele>237.42857142857144</ele><time>2026-04-18T07:58:28.28Z</time></trkpt><trkpt lat="42.8077" lon="13.4935658"><ele>236.57142857142858</ele><time>2026-04-18T07:58:30.3Z</time></trkpt><trkpt lat="42.8077661" lon="13.4935804"><ele>235.71428571428572</ele><time>2026-04-18T07:58:32.283Z</time></trkpt><trkpt lat="42.8078051" lon="13.4936543"><ele>234.85714285714286</ele><time>2026-04-18T08:02:53.293Z</time></trkpt><trkpt lat="42.8078308" lon="13.4935658"><ele>234.0</ele><time>2026-04-18T08:02:57.333Z</time></trkpt><trkpt lat="42.8077538" lon="13.493527"><ele>229.0</ele><time>2026-04-18T08:03:00.328Z</time></trkpt><trkpt lat="42.8076901" lon="13.4934814"><ele>229.0</ele><time>2026-04-18T08:03:26.327Z</time></trkpt><trkpt lat="42.8076012" lon="13.4934448"><ele>234.0</ele><time>2026-04-18T08:03:28.33Z</time></trkpt><trkpt lat="42.8075203" lon="13.493419"><ele>234.0</ele><time>2026-04-18T08:03:30.328Z</time></trkpt></trkseg></trk></gpx>